<?xml version="1.0" encoding="UTF-8" standalone="no" ?>
<gpx xmlns="http://www.topografix.com/GPX/1/1" xmlns:xsi="http://www.w3.org/2001/XMLSchema-instance" xsi:schemaLocation="http://www.topografix.com/GPX/1/1 http://www.topografix.com/GPX/1/1/gpx.xsd" version="1.1" creator="VisuGPX - https://www.visugpx.com">
  <metadata>
    <name>pouncho, pouncho</name>
    <desc><![CDATA[la pouncho en passant par le rocher troué, descente templiers.]]></desc>
  </metadata>
  <trk>
    <name><![CDATA[Untitled]]></name>
    <trkseg>
      <trkpt lat="44.10299" lon="3.08888">
        <ele>363.20001220703</ele>
        <time>2014-09-13T06:44:29.000Z</time>
      </trkpt>
      <trkpt lat="44.103" lon="3.08897">
        <ele>363</ele>
        <time>2014-09-13T06:44:34.000Z</time>
      </trkpt>
      <trkpt lat="44.10303" lon="3.0891">
        <ele>363.39999389648</ele>
        <time>2014-09-13T06:44:39.000Z</time>
      </trkpt>
      <trkpt lat="44.10305" lon="3.08927">
        <ele>363.39999389648</ele>
        <time>2014-09-13T06:44:46.000Z</time>
      </trkpt>
      <trkpt lat="44.1031" lon="3.08938">
        <ele>363</ele>
        <time>2014-09-13T06:44:51.000Z</time>
      </trkpt>
      <trkpt lat="44.10314" lon="3.08956">
        <ele>363.60000610352</ele>
        <time>2014-09-13T06:44:58.000Z</time>
      </trkpt>
      <trkpt lat="44.10317" lon="3.08971">
        <ele>363.79998779297</ele>
        <time>2014-09-13T06:45:04.000Z</time>
      </trkpt>
      <trkpt lat="44.1032" lon="3.08987">
        <ele>363.39999389648</ele>
        <time>2014-09-13T06:45:09.000Z</time>
      </trkpt>
      <trkpt lat="44.1032" lon="3.09001">
        <ele>363.79998779297</ele>
        <time>2014-09-13T06:45:14.000Z</time>
      </trkpt>
      <trkpt lat="44.10318" lon="3.09019">
        <ele>363.79998779297</ele>
        <time>2014-09-13T06:45:20.000Z</time>
      </trkpt>
      <trkpt lat="44.10314" lon="3.0903">
        <ele>364.20001220703</ele>
        <time>2014-09-13T06:45:24.000Z</time>
      </trkpt>
      <trkpt lat="44.10311" lon="3.09043">
        <ele>363.79998779297</ele>
        <time>2014-09-13T06:45:28.000Z</time>
      </trkpt>
      <trkpt lat="44.1031" lon="3.09044">
        <ele>364</ele>
        <time>2014-09-13T06:45:29.000Z</time>
      </trkpt>
      <trkpt lat="44.10306" lon="3.09053">
        <ele>363.79998779297</ele>
        <time>2014-09-13T06:45:32.000Z</time>
      </trkpt>
      <trkpt lat="44.10302" lon="3.0906">
        <ele>364</ele>
        <time>2014-09-13T06:45:35.000Z</time>
      </trkpt>
      <trkpt lat="44.103" lon="3.09065">
        <ele>363.79998779297</ele>
        <time>2014-09-13T06:45:37.000Z</time>
      </trkpt>
      <trkpt lat="44.10293" lon="3.09079">
        <ele>364</ele>
        <time>2014-09-13T06:45:43.000Z</time>
      </trkpt>
      <trkpt lat="44.10288" lon="3.09089">
        <ele>364</ele>
        <time>2014-09-13T06:45:47.000Z</time>
      </trkpt>
      <trkpt lat="44.10283" lon="3.09101">
        <ele>364.20001220703</ele>
        <time>2014-09-13T06:45:52.000Z</time>
      </trkpt>
      <trkpt lat="44.10279" lon="3.09108">
        <ele>364.39999389648</ele>
        <time>2014-09-13T06:45:55.000Z</time>
      </trkpt>
      <trkpt lat="44.10278" lon="3.0911">
        <ele>364.39999389648</ele>
        <time>2014-09-13T06:45:56.000Z</time>
      </trkpt>
      <trkpt lat="44.10273" lon="3.0912">
        <ele>364.39999389648</ele>
        <time>2014-09-13T06:46:00.000Z</time>
      </trkpt>
      <trkpt lat="44.10267" lon="3.09134">
        <ele>364.39999389648</ele>
        <time>2014-09-13T06:46:06.000Z</time>
      </trkpt>
      <trkpt lat="44.1026" lon="3.09147">
        <ele>364.39999389648</ele>
        <time>2014-09-13T06:46:11.000Z</time>
      </trkpt>
      <trkpt lat="44.10256" lon="3.09157">
        <ele>364.39999389648</ele>
        <time>2014-09-13T06:46:15.000Z</time>
      </trkpt>
      <trkpt lat="44.10251" lon="3.09171">
        <ele>364.60000610352</ele>
        <time>2014-09-13T06:46:20.000Z</time>
      </trkpt>
      <trkpt lat="44.10246" lon="3.09183">
        <ele>364.60000610352</ele>
        <time>2014-09-13T06:46:25.000Z</time>
      </trkpt>
      <trkpt lat="44.10236" lon="3.09196">
        <ele>365</ele>
        <time>2014-09-13T06:46:31.000Z</time>
      </trkpt>
      <trkpt lat="44.10228" lon="3.09206">
        <ele>364.79998779297</ele>
        <time>2014-09-13T06:46:36.000Z</time>
      </trkpt>
      <trkpt lat="44.1022" lon="3.09213">
        <ele>365</ele>
        <time>2014-09-13T06:46:41.000Z</time>
      </trkpt>
      <trkpt lat="44.10219" lon="3.09216">
        <ele>365</ele>
        <time>2014-09-13T06:46:42.000Z</time>
      </trkpt>
      <trkpt lat="44.10212" lon="3.09223">
        <ele>365</ele>
        <time>2014-09-13T06:46:46.000Z</time>
      </trkpt>
      <trkpt lat="44.1021" lon="3.09224">
        <ele>365</ele>
        <time>2014-09-13T06:46:47.000Z</time>
      </trkpt>
      <trkpt lat="44.10201" lon="3.09239">
        <ele>365.39999389648</ele>
        <time>2014-09-13T06:46:53.000Z</time>
      </trkpt>
      <trkpt lat="44.10199" lon="3.09256">
        <ele>365.39999389648</ele>
        <time>2014-09-13T06:46:58.000Z</time>
      </trkpt>
      <trkpt lat="44.10197" lon="3.09268">
        <ele>365.39999389648</ele>
        <time>2014-09-13T06:47:02.000Z</time>
      </trkpt>
      <trkpt lat="44.10196" lon="3.0928">
        <ele>365.39999389648</ele>
        <time>2014-09-13T06:47:06.000Z</time>
      </trkpt>
      <trkpt lat="44.10193" lon="3.09294">
        <ele>365.60000610352</ele>
        <time>2014-09-13T06:47:10.000Z</time>
      </trkpt>
      <trkpt lat="44.10191" lon="3.09306">
        <ele>365.39999389648</ele>
        <time>2014-09-13T06:47:14.000Z</time>
      </trkpt>
      <trkpt lat="44.10182" lon="3.09319">
        <ele>365.20001220703</ele>
        <time>2014-09-13T06:47:19.000Z</time>
      </trkpt>
      <trkpt lat="44.10173" lon="3.09327">
        <ele>365</ele>
        <time>2014-09-13T06:47:24.000Z</time>
      </trkpt>
      <trkpt lat="44.10163" lon="3.09338">
        <ele>364.79998779297</ele>
        <time>2014-09-13T06:47:30.000Z</time>
      </trkpt>
      <trkpt lat="44.10156" lon="3.09352">
        <ele>364.60000610352</ele>
        <time>2014-09-13T06:47:35.000Z</time>
      </trkpt>
      <trkpt lat="44.10152" lon="3.09366">
        <ele>364.60000610352</ele>
        <time>2014-09-13T06:47:40.000Z</time>
      </trkpt>
      <trkpt lat="44.10148" lon="3.0938">
        <ele>364.60000610352</ele>
        <time>2014-09-13T06:47:45.000Z</time>
      </trkpt>
      <trkpt lat="44.10146" lon="3.09395">
        <ele>364.60000610352</ele>
        <time>2014-09-13T06:47:50.000Z</time>
      </trkpt>
      <trkpt lat="44.10142" lon="3.0941">
        <ele>364.60000610352</ele>
        <time>2014-09-13T06:47:55.000Z</time>
      </trkpt>
      <trkpt lat="44.10137" lon="3.09424">
        <ele>364.60000610352</ele>
        <time>2014-09-13T06:48:00.000Z</time>
      </trkpt>
      <trkpt lat="44.10134" lon="3.09438">
        <ele>364.60000610352</ele>
        <time>2014-09-13T06:48:05.000Z</time>
      </trkpt>
      <trkpt lat="44.10129" lon="3.09455">
        <ele>364.39999389648</ele>
        <time>2014-09-13T06:48:11.000Z</time>
      </trkpt>
      <trkpt lat="44.10126" lon="3.09461">
        <ele>364.60000610352</ele>
        <time>2014-09-13T06:48:13.000Z</time>
      </trkpt>
      <trkpt lat="44.10124" lon="3.09469">
        <ele>364.60000610352</ele>
        <time>2014-09-13T06:48:16.000Z</time>
      </trkpt>
      <trkpt lat="44.10122" lon="3.09475">
        <ele>364.79998779297</ele>
        <time>2014-09-13T06:48:18.000Z</time>
      </trkpt>
      <trkpt lat="44.10119" lon="3.09484">
        <ele>364.60000610352</ele>
        <time>2014-09-13T06:48:21.000Z</time>
      </trkpt>
      <trkpt lat="44.10115" lon="3.09498">
        <ele>364.79998779297</ele>
        <time>2014-09-13T06:48:26.000Z</time>
      </trkpt>
      <trkpt lat="44.10111" lon="3.09512">
        <ele>365</ele>
        <time>2014-09-13T06:48:31.000Z</time>
      </trkpt>
      <trkpt lat="44.10105" lon="3.09526">
        <ele>365.20001220703</ele>
        <time>2014-09-13T06:48:36.000Z</time>
      </trkpt>
      <trkpt lat="44.10098" lon="3.09539">
        <ele>365</ele>
        <time>2014-09-13T06:48:41.000Z</time>
      </trkpt>
      <trkpt lat="44.10093" lon="3.09555">
        <ele>365.20001220703</ele>
        <time>2014-09-13T06:48:47.000Z</time>
      </trkpt>
      <trkpt lat="44.10089" lon="3.09574">
        <ele>365.20001220703</ele>
        <time>2014-09-13T06:48:53.000Z</time>
      </trkpt>
      <trkpt lat="44.10083" lon="3.09588">
        <ele>365.39999389648</ele>
        <time>2014-09-13T06:48:58.000Z</time>
      </trkpt>
      <trkpt lat="44.10076" lon="3.09605">
        <ele>365.39999389648</ele>
        <time>2014-09-13T06:49:04.000Z</time>
      </trkpt>
      <trkpt lat="44.1007" lon="3.09623">
        <ele>365.60000610352</ele>
        <time>2014-09-13T06:49:10.000Z</time>
      </trkpt>
      <trkpt lat="44.10066" lon="3.09634">
        <ele>365.60000610352</ele>
        <time>2014-09-13T06:49:14.000Z</time>
      </trkpt>
      <trkpt lat="44.10061" lon="3.09646">
        <ele>365.60000610352</ele>
        <time>2014-09-13T06:49:18.000Z</time>
      </trkpt>
      <trkpt lat="44.10056" lon="3.09657">
        <ele>365.60000610352</ele>
        <time>2014-09-13T06:49:22.000Z</time>
      </trkpt>
      <trkpt lat="44.10051" lon="3.09671">
        <ele>365.79998779297</ele>
        <time>2014-09-13T06:49:27.000Z</time>
      </trkpt>
      <trkpt lat="44.10047" lon="3.0968">
        <ele>365.79998779297</ele>
        <time>2014-09-13T06:49:31.000Z</time>
      </trkpt>
      <trkpt lat="44.10042" lon="3.09692">
        <ele>365.79998779297</ele>
        <time>2014-09-13T06:49:35.000Z</time>
      </trkpt>
      <trkpt lat="44.10036" lon="3.09708">
        <ele>365.60000610352</ele>
        <time>2014-09-13T06:49:41.000Z</time>
      </trkpt>
      <trkpt lat="44.10028" lon="3.09728">
        <ele>365.79998779297</ele>
        <time>2014-09-13T06:49:49.000Z</time>
      </trkpt>
      <trkpt lat="44.10022" lon="3.09745">
        <ele>365.79998779297</ele>
        <time>2014-09-13T06:49:55.000Z</time>
      </trkpt>
      <trkpt lat="44.10021" lon="3.09747">
        <ele>365.60000610352</ele>
        <time>2014-09-13T06:49:56.000Z</time>
      </trkpt>
      <trkpt lat="44.10015" lon="3.09762">
        <ele>365.60000610352</ele>
        <time>2014-09-13T06:50:01.000Z</time>
      </trkpt>
      <trkpt lat="44.10007" lon="3.09783">
        <ele>365.39999389648</ele>
        <time>2014-09-13T06:50:08.000Z</time>
      </trkpt>
      <trkpt lat="44.10004" lon="3.09798">
        <ele>365.39999389648</ele>
        <time>2014-09-13T06:50:13.000Z</time>
      </trkpt>
      <trkpt lat="44.10002" lon="3.09815">
        <ele>365.60000610352</ele>
        <time>2014-09-13T06:50:19.000Z</time>
      </trkpt>
      <trkpt lat="44.09998" lon="3.0984">
        <ele>365.79998779297</ele>
        <time>2014-09-13T06:50:26.000Z</time>
      </trkpt>
      <trkpt lat="44.09995" lon="3.09859">
        <ele>365.79998779297</ele>
        <time>2014-09-13T06:50:32.000Z</time>
      </trkpt>
      <trkpt lat="44.09994" lon="3.09874">
        <ele>365.79998779297</ele>
        <time>2014-09-13T06:50:37.000Z</time>
      </trkpt>
      <trkpt lat="44.09992" lon="3.09886">
        <ele>366</ele>
        <time>2014-09-13T06:50:41.000Z</time>
      </trkpt>
      <trkpt lat="44.0999" lon="3.09902">
        <ele>365.79998779297</ele>
        <time>2014-09-13T06:50:45.000Z</time>
      </trkpt>
      <trkpt lat="44.09988" lon="3.09918">
        <ele>365.79998779297</ele>
        <time>2014-09-13T06:50:50.000Z</time>
      </trkpt>
      <trkpt lat="44.09986" lon="3.09934">
        <ele>365.79998779297</ele>
        <time>2014-09-13T06:50:55.000Z</time>
      </trkpt>
      <trkpt lat="44.09984" lon="3.09949">
        <ele>365.79998779297</ele>
        <time>2014-09-13T06:50:59.000Z</time>
      </trkpt>
      <trkpt lat="44.09983" lon="3.09966">
        <ele>365.79998779297</ele>
        <time>2014-09-13T06:51:04.000Z</time>
      </trkpt>
      <trkpt lat="44.09984" lon="3.09979">
        <ele>365.60000610352</ele>
        <time>2014-09-13T06:51:08.000Z</time>
      </trkpt>
      <trkpt lat="44.09986" lon="3.09998">
        <ele>365.60000610352</ele>
        <time>2014-09-13T06:51:14.000Z</time>
      </trkpt>
      <trkpt lat="44.09985" lon="3.10002">
        <ele>365.39999389648</ele>
        <time>2014-09-13T06:51:15.000Z</time>
      </trkpt>
      <trkpt lat="44.09985" lon="3.10011">
        <ele>365.39999389648</ele>
        <time>2014-09-13T06:51:18.000Z</time>
      </trkpt>
      <trkpt lat="44.09987" lon="3.10029">
        <ele>365.20001220703</ele>
        <time>2014-09-13T06:51:23.000Z</time>
      </trkpt>
      <trkpt lat="44.09986" lon="3.1004">
        <ele>365.20001220703</ele>
        <time>2014-09-13T06:51:27.000Z</time>
      </trkpt>
      <trkpt lat="44.09986" lon="3.10044">
        <ele>365.20001220703</ele>
        <time>2014-09-13T06:51:28.000Z</time>
      </trkpt>
      <trkpt lat="44.09985" lon="3.10059">
        <ele>365</ele>
        <time>2014-09-13T06:51:32.000Z</time>
      </trkpt>
      <trkpt lat="44.09986" lon="3.10061">
        <ele>365.20001220703</ele>
        <time>2014-09-13T06:51:33.000Z</time>
      </trkpt>
      <trkpt lat="44.09986" lon="3.10073">
        <ele>365</ele>
        <time>2014-09-13T06:51:37.000Z</time>
      </trkpt>
      <trkpt lat="44.09989" lon="3.10086">
        <ele>365</ele>
        <time>2014-09-13T06:51:41.000Z</time>
      </trkpt>
      <trkpt lat="44.0999" lon="3.10103">
        <ele>365</ele>
        <time>2014-09-13T06:51:46.000Z</time>
      </trkpt>
      <trkpt lat="44.09992" lon="3.10115">
        <ele>365</ele>
        <time>2014-09-13T06:51:50.000Z</time>
      </trkpt>
      <trkpt lat="44.09995" lon="3.10125">
        <ele>365.20001220703</ele>
        <time>2014-09-13T06:51:53.000Z</time>
      </trkpt>
      <trkpt lat="44.09996" lon="3.10135">
        <ele>365</ele>
        <time>2014-09-13T06:51:56.000Z</time>
      </trkpt>
      <trkpt lat="44.09998" lon="3.10149">
        <ele>365</ele>
        <time>2014-09-13T06:52:00.000Z</time>
      </trkpt>
      <trkpt lat="44.10001" lon="3.10161">
        <ele>365</ele>
        <time>2014-09-13T06:52:04.000Z</time>
      </trkpt>
      <trkpt lat="44.10001" lon="3.10176">
        <ele>365</ele>
        <time>2014-09-13T06:52:08.000Z</time>
      </trkpt>
      <trkpt lat="44.10003" lon="3.10187">
        <ele>365.20001220703</ele>
        <time>2014-09-13T06:52:12.000Z</time>
      </trkpt>
      <trkpt lat="44.10006" lon="3.10204">
        <ele>365.20001220703</ele>
        <time>2014-09-13T06:52:17.000Z</time>
      </trkpt>
      <trkpt lat="44.10008" lon="3.1022">
        <ele>365.20001220703</ele>
        <time>2014-09-13T06:52:22.000Z</time>
      </trkpt>
      <trkpt lat="44.10009" lon="3.10237">
        <ele>365.39999389648</ele>
        <time>2014-09-13T06:52:27.000Z</time>
      </trkpt>
      <trkpt lat="44.10011" lon="3.10248">
        <ele>365.39999389648</ele>
        <time>2014-09-13T06:52:31.000Z</time>
      </trkpt>
      <trkpt lat="44.10014" lon="3.10268">
        <ele>365.39999389648</ele>
        <time>2014-09-13T06:52:37.000Z</time>
      </trkpt>
      <trkpt lat="44.10017" lon="3.10284">
        <ele>365.39999389648</ele>
        <time>2014-09-13T06:52:42.000Z</time>
      </trkpt>
      <trkpt lat="44.10022" lon="3.10299">
        <ele>365.60000610352</ele>
        <time>2014-09-13T06:52:47.000Z</time>
      </trkpt>
      <trkpt lat="44.10028" lon="3.10314">
        <ele>365.60000610352</ele>
        <time>2014-09-13T06:52:52.000Z</time>
      </trkpt>
      <trkpt lat="44.10033" lon="3.10328">
        <ele>366</ele>
        <time>2014-09-13T06:52:57.000Z</time>
      </trkpt>
      <trkpt lat="44.1004" lon="3.10344">
        <ele>366.20001220703</ele>
        <time>2014-09-13T06:53:03.000Z</time>
      </trkpt>
      <trkpt lat="44.10042" lon="3.1035">
        <ele>366.39999389648</ele>
        <time>2014-09-13T06:53:05.000Z</time>
      </trkpt>
      <trkpt lat="44.10045" lon="3.1036">
        <ele>366.79998779297</ele>
        <time>2014-09-13T06:53:08.000Z</time>
      </trkpt>
      <trkpt lat="44.10048" lon="3.10376">
        <ele>366.79998779297</ele>
        <time>2014-09-13T06:53:13.000Z</time>
      </trkpt>
      <trkpt lat="44.10051" lon="3.10393">
        <ele>366.79998779297</ele>
        <time>2014-09-13T06:53:18.000Z</time>
      </trkpt>
      <trkpt lat="44.10055" lon="3.10409">
        <ele>366.79998779297</ele>
        <time>2014-09-13T06:53:23.000Z</time>
      </trkpt>
      <trkpt lat="44.10056" lon="3.10422">
        <ele>367</ele>
        <time>2014-09-13T06:53:27.000Z</time>
      </trkpt>
      <trkpt lat="44.10061" lon="3.10437">
        <ele>367.60000610352</ele>
        <time>2014-09-13T06:53:31.000Z</time>
      </trkpt>
      <trkpt lat="44.10063" lon="3.10446">
        <ele>368.20001220703</ele>
        <time>2014-09-13T06:53:35.000Z</time>
      </trkpt>
      <trkpt lat="44.10065" lon="3.10445">
        <ele>368.39999389648</ele>
        <time>2014-09-13T06:53:38.000Z</time>
      </trkpt>
      <trkpt lat="44.10072" lon="3.10452">
        <ele>368.60000610352</ele>
        <time>2014-09-13T06:53:42.000Z</time>
      </trkpt>
      <trkpt lat="44.10073" lon="3.10453">
        <ele>368.60000610352</ele>
        <time>2014-09-13T06:53:43.000Z</time>
      </trkpt>
      <trkpt lat="44.10076" lon="3.10461">
        <ele>368.79998779297</ele>
        <time>2014-09-13T06:53:46.000Z</time>
      </trkpt>
      <trkpt lat="44.10079" lon="3.10477">
        <ele>369.20001220703</ele>
        <time>2014-09-13T06:53:52.000Z</time>
      </trkpt>
      <trkpt lat="44.10082" lon="3.10487">
        <ele>369.79998779297</ele>
        <time>2014-09-13T06:53:56.000Z</time>
      </trkpt>
      <trkpt lat="44.10083" lon="3.10491">
        <ele>369.79998779297</ele>
        <time>2014-09-13T06:53:57.000Z</time>
      </trkpt>
      <trkpt lat="44.10086" lon="3.10504">
        <ele>370.60000610352</ele>
        <time>2014-09-13T06:54:02.000Z</time>
      </trkpt>
      <trkpt lat="44.10088" lon="3.10512">
        <ele>370.79998779297</ele>
        <time>2014-09-13T06:54:05.000Z</time>
      </trkpt>
      <trkpt lat="44.10089" lon="3.10515">
        <ele>370.79998779297</ele>
        <time>2014-09-13T06:54:06.000Z</time>
      </trkpt>
      <trkpt lat="44.10093" lon="3.10528">
        <ele>371.79998779297</ele>
        <time>2014-09-13T06:54:11.000Z</time>
      </trkpt>
      <trkpt lat="44.10094" lon="3.10534">
        <ele>371.79998779297</ele>
        <time>2014-09-13T06:54:13.000Z</time>
      </trkpt>
      <trkpt lat="44.10095" lon="3.10542">
        <ele>372</ele>
        <time>2014-09-13T06:54:15.000Z</time>
      </trkpt>
      <trkpt lat="44.10095" lon="3.10552">
        <ele>372.39999389648</ele>
        <time>2014-09-13T06:54:19.000Z</time>
      </trkpt>
      <trkpt lat="44.10097" lon="3.10561">
        <ele>372.79998779297</ele>
        <time>2014-09-13T06:54:22.000Z</time>
      </trkpt>
      <trkpt lat="44.10097" lon="3.10567">
        <ele>373.39999389648</ele>
        <time>2014-09-13T06:54:24.000Z</time>
      </trkpt>
      <trkpt lat="44.10098" lon="3.10578">
        <ele>373.79998779297</ele>
        <time>2014-09-13T06:54:28.000Z</time>
      </trkpt>
      <trkpt lat="44.10099" lon="3.10581">
        <ele>374.20001220703</ele>
        <time>2014-09-13T06:54:29.000Z</time>
      </trkpt>
      <trkpt lat="44.10102" lon="3.10592">
        <ele>374.79998779297</ele>
        <time>2014-09-13T06:54:33.000Z</time>
      </trkpt>
      <trkpt lat="44.10102" lon="3.10597">
        <ele>375.20001220703</ele>
        <time>2014-09-13T06:54:35.000Z</time>
      </trkpt>
      <trkpt lat="44.10103" lon="3.10608">
        <ele>376</ele>
        <time>2014-09-13T06:54:39.000Z</time>
      </trkpt>
      <trkpt lat="44.10103" lon="3.10611">
        <ele>376.39999389648</ele>
        <time>2014-09-13T06:54:40.000Z</time>
      </trkpt>
      <trkpt lat="44.10105" lon="3.10623">
        <ele>377.20001220703</ele>
        <time>2014-09-13T06:54:44.000Z</time>
      </trkpt>
      <trkpt lat="44.10105" lon="3.10624">
        <ele>377.39999389648</ele>
        <time>2014-09-13T06:54:45.000Z</time>
      </trkpt>
      <trkpt lat="44.10106" lon="3.10632">
        <ele>378.20001220703</ele>
        <time>2014-09-13T06:54:48.000Z</time>
      </trkpt>
      <trkpt lat="44.10107" lon="3.10638">
        <ele>378.60000610352</ele>
        <time>2014-09-13T06:54:50.000Z</time>
      </trkpt>
      <trkpt lat="44.10107" lon="3.10645">
        <ele>379.20001220703</ele>
        <time>2014-09-13T06:54:53.000Z</time>
      </trkpt>
      <trkpt lat="44.10109" lon="3.10652">
        <ele>379.79998779297</ele>
        <time>2014-09-13T06:54:56.000Z</time>
      </trkpt>
      <trkpt lat="44.10109" lon="3.10658">
        <ele>380.20001220703</ele>
        <time>2014-09-13T06:54:58.000Z</time>
      </trkpt>
      <trkpt lat="44.10111" lon="3.10671">
        <ele>380.39999389648</ele>
        <time>2014-09-13T06:55:03.000Z</time>
      </trkpt>
      <trkpt lat="44.10115" lon="3.10683">
        <ele>380.79998779297</ele>
        <time>2014-09-13T06:55:07.000Z</time>
      </trkpt>
      <trkpt lat="44.10116" lon="3.10686">
        <ele>380.79998779297</ele>
        <time>2014-09-13T06:55:08.000Z</time>
      </trkpt>
      <trkpt lat="44.10122" lon="3.10702">
        <ele>381.79998779297</ele>
        <time>2014-09-13T06:55:14.000Z</time>
      </trkpt>
      <trkpt lat="44.10127" lon="3.10712">
        <ele>382.39999389648</ele>
        <time>2014-09-13T06:55:18.000Z</time>
      </trkpt>
      <trkpt lat="44.10134" lon="3.10725">
        <ele>383</ele>
        <time>2014-09-13T06:55:23.000Z</time>
      </trkpt>
      <trkpt lat="44.10135" lon="3.10726">
        <ele>383</ele>
        <time>2014-09-13T06:55:24.000Z</time>
      </trkpt>
      <trkpt lat="44.10139" lon="3.10736">
        <ele>383.79998779297</ele>
        <time>2014-09-13T06:55:28.000Z</time>
      </trkpt>
      <trkpt lat="44.1014" lon="3.10738">
        <ele>384.20001220703</ele>
        <time>2014-09-13T06:55:29.000Z</time>
      </trkpt>
      <trkpt lat="44.10143" lon="3.10746">
        <ele>385</ele>
        <time>2014-09-13T06:55:33.000Z</time>
      </trkpt>
      <trkpt lat="44.10143" lon="3.10748">
        <ele>385.20001220703</ele>
        <time>2014-09-13T06:55:34.000Z</time>
      </trkpt>
      <trkpt lat="44.10145" lon="3.1076">
        <ele>386.39999389648</ele>
        <time>2014-09-13T06:55:39.000Z</time>
      </trkpt>
      <trkpt lat="44.10144" lon="3.10776">
        <ele>386.39999389648</ele>
        <time>2014-09-13T06:55:44.000Z</time>
      </trkpt>
      <trkpt lat="44.10143" lon="3.10794">
        <ele>386.20001220703</ele>
        <time>2014-09-13T06:55:49.000Z</time>
      </trkpt>
      <trkpt lat="44.10142" lon="3.10807">
        <ele>385.79998779297</ele>
        <time>2014-09-13T06:55:53.000Z</time>
      </trkpt>
      <trkpt lat="44.10141" lon="3.10824">
        <ele>385.60000610352</ele>
        <time>2014-09-13T06:55:58.000Z</time>
      </trkpt>
      <trkpt lat="44.10139" lon="3.10838">
        <ele>385.20001220703</ele>
        <time>2014-09-13T06:56:02.000Z</time>
      </trkpt>
      <trkpt lat="44.10138" lon="3.10847">
        <ele>385.39999389648</ele>
        <time>2014-09-13T06:56:05.000Z</time>
      </trkpt>
      <trkpt lat="44.10133" lon="3.10864">
        <ele>385.39999389648</ele>
        <time>2014-09-13T06:56:11.000Z</time>
      </trkpt>
      <trkpt lat="44.10133" lon="3.10879">
        <ele>385.60000610352</ele>
        <time>2014-09-13T06:56:16.000Z</time>
      </trkpt>
      <trkpt lat="44.10136" lon="3.10895">
        <ele>385.60000610352</ele>
        <time>2014-09-13T06:56:21.000Z</time>
      </trkpt>
      <trkpt lat="44.10138" lon="3.10902">
        <ele>386.39999389648</ele>
        <time>2014-09-13T06:56:24.000Z</time>
      </trkpt>
      <trkpt lat="44.10139" lon="3.10905">
        <ele>386.39999389648</ele>
        <time>2014-09-13T06:56:25.000Z</time>
      </trkpt>
      <trkpt lat="44.10143" lon="3.10918">
        <ele>387</ele>
        <time>2014-09-13T06:56:30.000Z</time>
      </trkpt>
      <trkpt lat="44.10147" lon="3.10927">
        <ele>387.39999389648</ele>
        <time>2014-09-13T06:56:34.000Z</time>
      </trkpt>
      <trkpt lat="44.10151" lon="3.1094">
        <ele>388</ele>
        <time>2014-09-13T06:56:39.000Z</time>
      </trkpt>
      <trkpt lat="44.10153" lon="3.10952">
        <ele>388.39999389648</ele>
        <time>2014-09-13T06:56:43.000Z</time>
      </trkpt>
      <trkpt lat="44.10152" lon="3.10962">
        <ele>388.39999389648</ele>
        <time>2014-09-13T06:56:46.000Z</time>
      </trkpt>
      <trkpt lat="44.1015" lon="3.10968">
        <ele>388.79998779297</ele>
        <time>2014-09-13T06:56:48.000Z</time>
      </trkpt>
      <trkpt lat="44.10146" lon="3.10977">
        <ele>388.79998779297</ele>
        <time>2014-09-13T06:56:51.000Z</time>
      </trkpt>
      <trkpt lat="44.10143" lon="3.10986">
        <ele>389.20001220703</ele>
        <time>2014-09-13T06:56:54.000Z</time>
      </trkpt>
      <trkpt lat="44.1014" lon="3.10999">
        <ele>389.60000610352</ele>
        <time>2014-09-13T06:56:59.000Z</time>
      </trkpt>
      <trkpt lat="44.10135" lon="3.11016">
        <ele>390.60000610352</ele>
        <time>2014-09-13T06:57:05.000Z</time>
      </trkpt>
      <trkpt lat="44.10133" lon="3.1103">
        <ele>390</ele>
        <time>2014-09-13T06:57:10.000Z</time>
      </trkpt>
      <trkpt lat="44.10132" lon="3.11042">
        <ele>389.79998779297</ele>
        <time>2014-09-13T06:57:14.000Z</time>
      </trkpt>
      <trkpt lat="44.10127" lon="3.11053">
        <ele>390</ele>
        <time>2014-09-13T06:57:18.000Z</time>
      </trkpt>
      <trkpt lat="44.10121" lon="3.11064">
        <ele>390.20001220703</ele>
        <time>2014-09-13T06:57:22.000Z</time>
      </trkpt>
      <trkpt lat="44.10115" lon="3.11077">
        <ele>390.39999389648</ele>
        <time>2014-09-13T06:57:27.000Z</time>
      </trkpt>
      <trkpt lat="44.10112" lon="3.11091">
        <ele>391.20001220703</ele>
        <time>2014-09-13T06:57:32.000Z</time>
      </trkpt>
      <trkpt lat="44.10111" lon="3.11096">
        <ele>391.60000610352</ele>
        <time>2014-09-13T06:57:34.000Z</time>
      </trkpt>
      <trkpt lat="44.1011" lon="3.11104">
        <ele>392.39999389648</ele>
        <time>2014-09-13T06:57:37.000Z</time>
      </trkpt>
      <trkpt lat="44.1011" lon="3.11106">
        <ele>392.79998779297</ele>
        <time>2014-09-13T06:57:38.000Z</time>
      </trkpt>
      <trkpt lat="44.1011" lon="3.1112">
        <ele>393.79998779297</ele>
        <time>2014-09-13T06:57:43.000Z</time>
      </trkpt>
      <trkpt lat="44.10111" lon="3.11123">
        <ele>393.79998779297</ele>
        <time>2014-09-13T06:57:44.000Z</time>
      </trkpt>
      <trkpt lat="44.10112" lon="3.11132">
        <ele>394.60000610352</ele>
        <time>2014-09-13T06:57:47.000Z</time>
      </trkpt>
      <trkpt lat="44.10112" lon="3.11134">
        <ele>394.79998779297</ele>
        <time>2014-09-13T06:57:48.000Z</time>
      </trkpt>
      <trkpt lat="44.10113" lon="3.11138">
        <ele>395</ele>
        <time>2014-09-13T06:57:49.000Z</time>
      </trkpt>
      <trkpt lat="44.10115" lon="3.11148">
        <ele>396</ele>
        <time>2014-09-13T06:57:53.000Z</time>
      </trkpt>
      <trkpt lat="44.10116" lon="3.11157">
        <ele>397.20001220703</ele>
        <time>2014-09-13T06:57:57.000Z</time>
      </trkpt>
      <trkpt lat="44.10117" lon="3.11159">
        <ele>397.39999389648</ele>
        <time>2014-09-13T06:57:58.000Z</time>
      </trkpt>
      <trkpt lat="44.10117" lon="3.11166">
        <ele>398.39999389648</ele>
        <time>2014-09-13T06:58:01.000Z</time>
      </trkpt>
      <trkpt lat="44.10118" lon="3.11171">
        <ele>399</ele>
        <time>2014-09-13T06:58:03.000Z</time>
      </trkpt>
      <trkpt lat="44.10119" lon="3.11176">
        <ele>399.39999389648</ele>
        <time>2014-09-13T06:58:05.000Z</time>
      </trkpt>
      <trkpt lat="44.1012" lon="3.11181">
        <ele>400.20001220703</ele>
        <time>2014-09-13T06:58:07.000Z</time>
      </trkpt>
      <trkpt lat="44.10121" lon="3.11186">
        <ele>400.60000610352</ele>
        <time>2014-09-13T06:58:09.000Z</time>
      </trkpt>
      <trkpt lat="44.10124" lon="3.11194">
        <ele>401.20001220703</ele>
        <time>2014-09-13T06:58:12.000Z</time>
      </trkpt>
      <trkpt lat="44.10127" lon="3.11201">
        <ele>401.79998779297</ele>
        <time>2014-09-13T06:58:15.000Z</time>
      </trkpt>
      <trkpt lat="44.10128" lon="3.11206">
        <ele>402.20001220703</ele>
        <time>2014-09-13T06:58:17.000Z</time>
      </trkpt>
      <trkpt lat="44.10128" lon="3.11219">
        <ele>403</ele>
        <time>2014-09-13T06:58:22.000Z</time>
      </trkpt>
      <trkpt lat="44.10126" lon="3.11234">
        <ele>403.60000610352</ele>
        <time>2014-09-13T06:58:27.000Z</time>
      </trkpt>
      <trkpt lat="44.10126" lon="3.11237">
        <ele>403.60000610352</ele>
        <time>2014-09-13T06:58:28.000Z</time>
      </trkpt>
      <trkpt lat="44.10128" lon="3.11242">
        <ele>404</ele>
        <time>2014-09-13T06:58:30.000Z</time>
      </trkpt>
      <trkpt lat="44.10129" lon="3.11245">
        <ele>404.20001220703</ele>
        <time>2014-09-13T06:58:31.000Z</time>
      </trkpt>
      <trkpt lat="44.10134" lon="3.11252">
        <ele>405</ele>
        <time>2014-09-13T06:58:35.000Z</time>
      </trkpt>
      <trkpt lat="44.1014" lon="3.1126">
        <ele>406.20001220703</ele>
        <time>2014-09-13T06:58:39.000Z</time>
      </trkpt>
      <trkpt lat="44.10142" lon="3.11264">
        <ele>407</ele>
        <time>2014-09-13T06:58:41.000Z</time>
      </trkpt>
      <trkpt lat="44.10143" lon="3.11269">
        <ele>407.39999389648</ele>
        <time>2014-09-13T06:58:43.000Z</time>
      </trkpt>
      <trkpt lat="44.10143" lon="3.11273">
        <ele>408.60000610352</ele>
        <time>2014-09-13T06:58:45.000Z</time>
      </trkpt>
      <trkpt lat="44.10144" lon="3.11275">
        <ele>409</ele>
        <time>2014-09-13T06:58:46.000Z</time>
      </trkpt>
      <trkpt lat="44.10144" lon="3.11279">
        <ele>409.79998779297</ele>
        <time>2014-09-13T06:58:48.000Z</time>
      </trkpt>
      <trkpt lat="44.10145" lon="3.11282">
        <ele>410.20001220703</ele>
        <time>2014-09-13T06:58:50.000Z</time>
      </trkpt>
      <trkpt lat="44.10146" lon="3.11285">
        <ele>410.60000610352</ele>
        <time>2014-09-13T06:58:52.000Z</time>
      </trkpt>
      <trkpt lat="44.10147" lon="3.11287">
        <ele>410.79998779297</ele>
        <time>2014-09-13T06:58:53.000Z</time>
      </trkpt>
      <trkpt lat="44.10149" lon="3.11294">
        <ele>411.60000610352</ele>
        <time>2014-09-13T06:58:56.000Z</time>
      </trkpt>
      <trkpt lat="44.10149" lon="3.11296">
        <ele>412</ele>
        <time>2014-09-13T06:58:57.000Z</time>
      </trkpt>
      <trkpt lat="44.10149" lon="3.11306">
        <ele>413.20001220703</ele>
        <time>2014-09-13T06:59:01.000Z</time>
      </trkpt>
      <trkpt lat="44.10149" lon="3.11317">
        <ele>413.79998779297</ele>
        <time>2014-09-13T06:59:05.000Z</time>
      </trkpt>
      <trkpt lat="44.10148" lon="3.11322">
        <ele>414.39999389648</ele>
        <time>2014-09-13T06:59:07.000Z</time>
      </trkpt>
      <trkpt lat="44.10149" lon="3.1133">
        <ele>414.60000610352</ele>
        <time>2014-09-13T06:59:10.000Z</time>
      </trkpt>
      <trkpt lat="44.10151" lon="3.11344">
        <ele>415</ele>
        <time>2014-09-13T06:59:15.000Z</time>
      </trkpt>
      <trkpt lat="44.10152" lon="3.11348">
        <ele>415.39999389648</ele>
        <time>2014-09-13T06:59:17.000Z</time>
      </trkpt>
      <trkpt lat="44.10155" lon="3.11356">
        <ele>415.79998779297</ele>
        <time>2014-09-13T06:59:21.000Z</time>
      </trkpt>
      <trkpt lat="44.10161" lon="3.11365">
        <ele>416.20001220703</ele>
        <time>2014-09-13T06:59:25.000Z</time>
      </trkpt>
      <trkpt lat="44.10163" lon="3.1137">
        <ele>416.39999389648</ele>
        <time>2014-09-13T06:59:27.000Z</time>
      </trkpt>
      <trkpt lat="44.10167" lon="3.11375">
        <ele>416.79998779297</ele>
        <time>2014-09-13T06:59:30.000Z</time>
      </trkpt>
      <trkpt lat="44.10173" lon="3.11387">
        <ele>417</ele>
        <time>2014-09-13T06:59:35.000Z</time>
      </trkpt>
      <trkpt lat="44.10178" lon="3.11402">
        <ele>415.79998779297</ele>
        <time>2014-09-13T06:59:40.000Z</time>
      </trkpt>
      <trkpt lat="44.10183" lon="3.11415">
        <ele>415.39999389648</ele>
        <time>2014-09-13T06:59:45.000Z</time>
      </trkpt>
      <trkpt lat="44.10185" lon="3.11417">
        <ele>415.20001220703</ele>
        <time>2014-09-13T06:59:46.000Z</time>
      </trkpt>
      <trkpt lat="44.10192" lon="3.11423">
        <ele>415.20001220703</ele>
        <time>2014-09-13T06:59:49.000Z</time>
      </trkpt>
      <trkpt lat="44.102" lon="3.11432">
        <ele>415.79998779297</ele>
        <time>2014-09-13T06:59:54.000Z</time>
      </trkpt>
      <trkpt lat="44.10206" lon="3.11444">
        <ele>415.79998779297</ele>
        <time>2014-09-13T06:59:59.000Z</time>
      </trkpt>
      <trkpt lat="44.10211" lon="3.11457">
        <ele>415.60000610352</ele>
        <time>2014-09-13T07:00:04.000Z</time>
      </trkpt>
      <trkpt lat="44.10215" lon="3.11472">
        <ele>415.60000610352</ele>
        <time>2014-09-13T07:00:09.000Z</time>
      </trkpt>
      <trkpt lat="44.10222" lon="3.11485">
        <ele>416</ele>
        <time>2014-09-13T07:00:14.000Z</time>
      </trkpt>
      <trkpt lat="44.10229" lon="3.115">
        <ele>415.60000610352</ele>
        <time>2014-09-13T07:00:19.000Z</time>
      </trkpt>
      <trkpt lat="44.10233" lon="3.11516">
        <ele>415.39999389648</ele>
        <time>2014-09-13T07:00:24.000Z</time>
      </trkpt>
      <trkpt lat="44.1024" lon="3.11534">
        <ele>415.39999389648</ele>
        <time>2014-09-13T07:00:30.000Z</time>
      </trkpt>
      <trkpt lat="44.10245" lon="3.11549">
        <ele>415.79998779297</ele>
        <time>2014-09-13T07:00:35.000Z</time>
      </trkpt>
      <trkpt lat="44.10247" lon="3.11563">
        <ele>416.20001220703</ele>
        <time>2014-09-13T07:00:39.000Z</time>
      </trkpt>
      <trkpt lat="44.10251" lon="3.11576">
        <ele>416.39999389648</ele>
        <time>2014-09-13T07:00:43.000Z</time>
      </trkpt>
      <trkpt lat="44.10255" lon="3.11588">
        <ele>417</ele>
        <time>2014-09-13T07:00:47.000Z</time>
      </trkpt>
      <trkpt lat="44.10258" lon="3.11596">
        <ele>417.39999389648</ele>
        <time>2014-09-13T07:00:50.000Z</time>
      </trkpt>
      <trkpt lat="44.10259" lon="3.11598">
        <ele>417.60000610352</ele>
        <time>2014-09-13T07:00:51.000Z</time>
      </trkpt>
      <trkpt lat="44.10263" lon="3.11609">
        <ele>418.39999389648</ele>
        <time>2014-09-13T07:00:55.000Z</time>
      </trkpt>
      <trkpt lat="44.10264" lon="3.11611">
        <ele>418.60000610352</ele>
        <time>2014-09-13T07:00:56.000Z</time>
      </trkpt>
      <trkpt lat="44.10267" lon="3.11622">
        <ele>419.60000610352</ele>
        <time>2014-09-13T07:01:00.000Z</time>
      </trkpt>
      <trkpt lat="44.10269" lon="3.11624">
        <ele>419.79998779297</ele>
        <time>2014-09-13T07:01:01.000Z</time>
      </trkpt>
      <trkpt lat="44.10273" lon="3.11631">
        <ele>420.39999389648</ele>
        <time>2014-09-13T07:01:04.000Z</time>
      </trkpt>
      <trkpt lat="44.10274" lon="3.11633">
        <ele>420.79998779297</ele>
        <time>2014-09-13T07:01:05.000Z</time>
      </trkpt>
      <trkpt lat="44.1028" lon="3.11639">
        <ele>422</ele>
        <time>2014-09-13T07:01:09.000Z</time>
      </trkpt>
      <trkpt lat="44.10283" lon="3.11644">
        <ele>423</ele>
        <time>2014-09-13T07:01:12.000Z</time>
      </trkpt>
      <trkpt lat="44.10286" lon="3.11648">
        <ele>423.39999389648</ele>
        <time>2014-09-13T07:01:14.000Z</time>
      </trkpt>
      <trkpt lat="44.10291" lon="3.11655">
        <ele>424.20001220703</ele>
        <time>2014-09-13T07:01:17.000Z</time>
      </trkpt>
      <trkpt lat="44.10292" lon="3.11659">
        <ele>424.79998779297</ele>
        <time>2014-09-13T07:01:19.000Z</time>
      </trkpt>
      <trkpt lat="44.10294" lon="3.11662">
        <ele>425.39999389648</ele>
        <time>2014-09-13T07:01:21.000Z</time>
      </trkpt>
      <trkpt lat="44.10297" lon="3.11668">
        <ele>426.39999389648</ele>
        <time>2014-09-13T07:01:24.000Z</time>
      </trkpt>
      <trkpt lat="44.10297" lon="3.11669">
        <ele>426.60000610352</ele>
        <time>2014-09-13T07:01:25.000Z</time>
      </trkpt>
      <trkpt lat="44.10301" lon="3.11677">
        <ele>427.39999389648</ele>
        <time>2014-09-13T07:01:28.000Z</time>
      </trkpt>
      <trkpt lat="44.10304" lon="3.11685">
        <ele>427.79998779297</ele>
        <time>2014-09-13T07:01:31.000Z</time>
      </trkpt>
      <trkpt lat="44.10309" lon="3.11697">
        <ele>428.60000610352</ele>
        <time>2014-09-13T07:01:36.000Z</time>
      </trkpt>
      <trkpt lat="44.10318" lon="3.11713">
        <ele>429.20001220703</ele>
        <time>2014-09-13T07:01:43.000Z</time>
      </trkpt>
      <trkpt lat="44.1032" lon="3.11716">
        <ele>429.79998779297</ele>
        <time>2014-09-13T07:01:45.000Z</time>
      </trkpt>
      <trkpt lat="44.10324" lon="3.11723">
        <ele>430.60000610352</ele>
        <time>2014-09-13T07:01:48.000Z</time>
      </trkpt>
      <trkpt lat="44.10325" lon="3.11725">
        <ele>430.79998779297</ele>
        <time>2014-09-13T07:01:49.000Z</time>
      </trkpt>
      <trkpt lat="44.10328" lon="3.11735">
        <ele>431.60000610352</ele>
        <time>2014-09-13T07:01:53.000Z</time>
      </trkpt>
      <trkpt lat="44.10329" lon="3.11737">
        <ele>431.79998779297</ele>
        <time>2014-09-13T07:01:54.000Z</time>
      </trkpt>
      <trkpt lat="44.1033" lon="3.11747">
        <ele>432.79998779297</ele>
        <time>2014-09-13T07:01:58.000Z</time>
      </trkpt>
      <trkpt lat="44.10331" lon="3.11749">
        <ele>433</ele>
        <time>2014-09-13T07:01:59.000Z</time>
      </trkpt>
      <trkpt lat="44.10334" lon="3.11759">
        <ele>434.20001220703</ele>
        <time>2014-09-13T07:02:03.000Z</time>
      </trkpt>
      <trkpt lat="44.10336" lon="3.11776">
        <ele>434.60000610352</ele>
        <time>2014-09-13T07:02:09.000Z</time>
      </trkpt>
      <trkpt lat="44.10339" lon="3.11791">
        <ele>434.60000610352</ele>
        <time>2014-09-13T07:02:14.000Z</time>
      </trkpt>
      <trkpt lat="44.10343" lon="3.11804">
        <ele>435</ele>
        <time>2014-09-13T07:02:19.000Z</time>
      </trkpt>
      <trkpt lat="44.10346" lon="3.11812">
        <ele>435.39999389648</ele>
        <time>2014-09-13T07:02:22.000Z</time>
      </trkpt>
      <trkpt lat="44.10348" lon="3.11816">
        <ele>436.39999389648</ele>
        <time>2014-09-13T07:02:24.000Z</time>
      </trkpt>
      <trkpt lat="44.10355" lon="3.11821">
        <ele>436.79998779297</ele>
        <time>2014-09-13T07:02:29.000Z</time>
      </trkpt>
      <trkpt lat="44.10363" lon="3.11825">
        <ele>437.60000610352</ele>
        <time>2014-09-13T07:02:33.000Z</time>
      </trkpt>
      <trkpt lat="44.10369" lon="3.11829">
        <ele>438.20001220703</ele>
        <time>2014-09-13T07:02:37.000Z</time>
      </trkpt>
      <trkpt lat="44.10373" lon="3.1183">
        <ele>438.60000610352</ele>
        <time>2014-09-13T07:02:39.000Z</time>
      </trkpt>
      <trkpt lat="44.10377" lon="3.11832">
        <ele>438.79998779297</ele>
        <time>2014-09-13T07:02:41.000Z</time>
      </trkpt>
      <trkpt lat="44.10383" lon="3.11842">
        <ele>439</ele>
        <time>2014-09-13T07:02:45.000Z</time>
      </trkpt>
      <trkpt lat="44.10388" lon="3.11855">
        <ele>438.60000610352</ele>
        <time>2014-09-13T07:02:49.000Z</time>
      </trkpt>
      <trkpt lat="44.10391" lon="3.11868">
        <ele>438</ele>
        <time>2014-09-13T07:02:53.000Z</time>
      </trkpt>
      <trkpt lat="44.10391" lon="3.11871">
        <ele>437.79998779297</ele>
        <time>2014-09-13T07:02:54.000Z</time>
      </trkpt>
      <trkpt lat="44.10393" lon="3.1188">
        <ele>437.39999389648</ele>
        <time>2014-09-13T07:02:57.000Z</time>
      </trkpt>
      <trkpt lat="44.10394" lon="3.11885">
        <ele>437</ele>
        <time>2014-09-13T07:02:59.000Z</time>
      </trkpt>
      <trkpt lat="44.10394" lon="3.11891">
        <ele>436</ele>
        <time>2014-09-13T07:03:01.000Z</time>
      </trkpt>
      <trkpt lat="44.10395" lon="3.119">
        <ele>434.79998779297</ele>
        <time>2014-09-13T07:03:04.000Z</time>
      </trkpt>
      <trkpt lat="44.10395" lon="3.11909">
        <ele>433.60000610352</ele>
        <time>2014-09-13T07:03:07.000Z</time>
      </trkpt>
      <trkpt lat="44.10394" lon="3.11912">
        <ele>433</ele>
        <time>2014-09-13T07:03:08.000Z</time>
      </trkpt>
      <trkpt lat="44.10393" lon="3.11916">
        <ele>432.60000610352</ele>
        <time>2014-09-13T07:03:09.000Z</time>
      </trkpt>
      <trkpt lat="44.10391" lon="3.11926">
        <ele>430.79998779297</ele>
        <time>2014-09-13T07:03:12.000Z</time>
      </trkpt>
      <trkpt lat="44.10391" lon="3.1193">
        <ele>430.60000610352</ele>
        <time>2014-09-13T07:03:13.000Z</time>
      </trkpt>
      <trkpt lat="44.10393" lon="3.11937">
        <ele>429.79998779297</ele>
        <time>2014-09-13T07:03:15.000Z</time>
      </trkpt>
      <trkpt lat="44.10394" lon="3.11944">
        <ele>429.60000610352</ele>
        <time>2014-09-13T07:03:18.000Z</time>
      </trkpt>
      <trkpt lat="44.10397" lon="3.11955">
        <ele>429.20001220703</ele>
        <time>2014-09-13T07:03:23.000Z</time>
      </trkpt>
      <trkpt lat="44.10396" lon="3.11961">
        <ele>428.39999389648</ele>
        <time>2014-09-13T07:03:25.000Z</time>
      </trkpt>
      <trkpt lat="44.10394" lon="3.1197">
        <ele>427.79998779297</ele>
        <time>2014-09-13T07:03:28.000Z</time>
      </trkpt>
      <trkpt lat="44.10393" lon="3.11973">
        <ele>427.39999389648</ele>
        <time>2014-09-13T07:03:29.000Z</time>
      </trkpt>
      <trkpt lat="44.10391" lon="3.11986">
        <ele>426.20001220703</ele>
        <time>2014-09-13T07:03:33.000Z</time>
      </trkpt>
      <trkpt lat="44.10391" lon="3.11989">
        <ele>426</ele>
        <time>2014-09-13T07:03:34.000Z</time>
      </trkpt>
      <trkpt lat="44.10394" lon="3.12005">
        <ele>425.20001220703</ele>
        <time>2014-09-13T07:03:39.000Z</time>
      </trkpt>
      <trkpt lat="44.10396" lon="3.12022">
        <ele>424.39999389648</ele>
        <time>2014-09-13T07:03:44.000Z</time>
      </trkpt>
      <trkpt lat="44.10396" lon="3.12025">
        <ele>424.20001220703</ele>
        <time>2014-09-13T07:03:45.000Z</time>
      </trkpt>
      <trkpt lat="44.10396" lon="3.12038">
        <ele>422.79998779297</ele>
        <time>2014-09-13T07:03:49.000Z</time>
      </trkpt>
      <trkpt lat="44.10396" lon="3.1204">
        <ele>422.39999389648</ele>
        <time>2014-09-13T07:03:50.000Z</time>
      </trkpt>
      <trkpt lat="44.10394" lon="3.12047">
        <ele>421.20001220703</ele>
        <time>2014-09-13T07:03:52.000Z</time>
      </trkpt>
      <trkpt lat="44.10392" lon="3.12057">
        <ele>420.20001220703</ele>
        <time>2014-09-13T07:03:54.000Z</time>
      </trkpt>
      <trkpt lat="44.10392" lon="3.12062">
        <ele>419.79998779297</ele>
        <time>2014-09-13T07:03:55.000Z</time>
      </trkpt>
      <trkpt lat="44.10391" lon="3.12071">
        <ele>418.79998779297</ele>
        <time>2014-09-13T07:03:57.000Z</time>
      </trkpt>
      <trkpt lat="44.10392" lon="3.12078">
        <ele>418.60000610352</ele>
        <time>2014-09-13T07:03:59.000Z</time>
      </trkpt>
      <trkpt lat="44.10395" lon="3.12091">
        <ele>418.60000610352</ele>
        <time>2014-09-13T07:04:03.000Z</time>
      </trkpt>
      <trkpt lat="44.10394" lon="3.12105">
        <ele>417.60000610352</ele>
        <time>2014-09-13T07:04:07.000Z</time>
      </trkpt>
      <trkpt lat="44.10393" lon="3.12114">
        <ele>416.39999389648</ele>
        <time>2014-09-13T07:04:10.000Z</time>
      </trkpt>
      <trkpt lat="44.10392" lon="3.12117">
        <ele>416.20001220703</ele>
        <time>2014-09-13T07:04:11.000Z</time>
      </trkpt>
      <trkpt lat="44.10391" lon="3.12129">
        <ele>415.39999389648</ele>
        <time>2014-09-13T07:04:15.000Z</time>
      </trkpt>
      <trkpt lat="44.10391" lon="3.12133">
        <ele>415</ele>
        <time>2014-09-13T07:04:16.000Z</time>
      </trkpt>
      <trkpt lat="44.10394" lon="3.12145">
        <ele>414.20001220703</ele>
        <time>2014-09-13T07:04:19.000Z</time>
      </trkpt>
      <trkpt lat="44.10395" lon="3.12151">
        <ele>414.39999389648</ele>
        <time>2014-09-13T07:04:21.000Z</time>
      </trkpt>
      <trkpt lat="44.10395" lon="3.12164">
        <ele>412.79998779297</ele>
        <time>2014-09-13T07:04:25.000Z</time>
      </trkpt>
      <trkpt lat="44.10393" lon="3.12171">
        <ele>411.60000610352</ele>
        <time>2014-09-13T07:04:27.000Z</time>
      </trkpt>
      <trkpt lat="44.10392" lon="3.12183">
        <ele>410.20001220703</ele>
        <time>2014-09-13T07:04:30.000Z</time>
      </trkpt>
      <trkpt lat="44.10392" lon="3.12194">
        <ele>409</ele>
        <time>2014-09-13T07:04:33.000Z</time>
      </trkpt>
      <trkpt lat="44.10394" lon="3.122">
        <ele>408</ele>
        <time>2014-09-13T07:04:35.000Z</time>
      </trkpt>
      <trkpt lat="44.10395" lon="3.12207">
        <ele>406.79998779297</ele>
        <time>2014-09-13T07:04:37.000Z</time>
      </trkpt>
      <trkpt lat="44.10397" lon="3.12223">
        <ele>405.79998779297</ele>
        <time>2014-09-13T07:04:41.000Z</time>
      </trkpt>
      <trkpt lat="44.10397" lon="3.12245">
        <ele>405.39999389648</ele>
        <time>2014-09-13T07:04:47.000Z</time>
      </trkpt>
      <trkpt lat="44.104" lon="3.12257">
        <ele>405.60000610352</ele>
        <time>2014-09-13T07:04:51.000Z</time>
      </trkpt>
      <trkpt lat="44.10406" lon="3.12269">
        <ele>406.20001220703</ele>
        <time>2014-09-13T07:04:56.000Z</time>
      </trkpt>
      <trkpt lat="44.10407" lon="3.12272">
        <ele>406.39999389648</ele>
        <time>2014-09-13T07:04:57.000Z</time>
      </trkpt>
      <trkpt lat="44.10411" lon="3.12277">
        <ele>406.79998779297</ele>
        <time>2014-09-13T07:04:59.000Z</time>
      </trkpt>
      <trkpt lat="44.10411" lon="3.12281">
        <ele>407</ele>
        <time>2014-09-13T07:05:00.000Z</time>
      </trkpt>
      <trkpt lat="44.10412" lon="3.12294">
        <ele>407</ele>
        <time>2014-09-13T07:05:04.000Z</time>
      </trkpt>
      <trkpt lat="44.10409" lon="3.12307">
        <ele>407</ele>
        <time>2014-09-13T07:05:08.000Z</time>
      </trkpt>
      <trkpt lat="44.10406" lon="3.12323">
        <ele>406.60000610352</ele>
        <time>2014-09-13T07:05:13.000Z</time>
      </trkpt>
      <trkpt lat="44.10401" lon="3.12339">
        <ele>405.79998779297</ele>
        <time>2014-09-13T07:05:18.000Z</time>
      </trkpt>
      <trkpt lat="44.10399" lon="3.12345">
        <ele>405.20001220703</ele>
        <time>2014-09-13T07:05:20.000Z</time>
      </trkpt>
      <trkpt lat="44.10394" lon="3.12356">
        <ele>404.60000610352</ele>
        <time>2014-09-13T07:05:24.000Z</time>
      </trkpt>
      <trkpt lat="44.10392" lon="3.12363">
        <ele>404.20001220703</ele>
        <time>2014-09-13T07:05:26.000Z</time>
      </trkpt>
      <trkpt lat="44.1039" lon="3.1238">
        <ele>403.79998779297</ele>
        <time>2014-09-13T07:05:31.000Z</time>
      </trkpt>
      <trkpt lat="44.1039" lon="3.12386">
        <ele>403.60000610352</ele>
        <time>2014-09-13T07:05:33.000Z</time>
      </trkpt>
      <trkpt lat="44.1039" lon="3.124">
        <ele>402.60000610352</ele>
        <time>2014-09-13T07:05:37.000Z</time>
      </trkpt>
      <trkpt lat="44.10389" lon="3.12413">
        <ele>402.39999389648</ele>
        <time>2014-09-13T07:05:41.000Z</time>
      </trkpt>
      <trkpt lat="44.10389" lon="3.12416">
        <ele>402.20001220703</ele>
        <time>2014-09-13T07:05:42.000Z</time>
      </trkpt>
      <trkpt lat="44.10385" lon="3.1243">
        <ele>401.39999389648</ele>
        <time>2014-09-13T07:05:46.000Z</time>
      </trkpt>
      <trkpt lat="44.10384" lon="3.12434">
        <ele>401.20001220703</ele>
        <time>2014-09-13T07:05:47.000Z</time>
      </trkpt>
      <trkpt lat="44.10381" lon="3.12447">
        <ele>400.39999389648</ele>
        <time>2014-09-13T07:05:51.000Z</time>
      </trkpt>
      <trkpt lat="44.10376" lon="3.12456">
        <ele>400.39999389648</ele>
        <time>2014-09-13T07:05:54.000Z</time>
      </trkpt>
      <trkpt lat="44.10374" lon="3.12462">
        <ele>400</ele>
        <time>2014-09-13T07:05:56.000Z</time>
      </trkpt>
      <trkpt lat="44.10371" lon="3.12475">
        <ele>399</ele>
        <time>2014-09-13T07:06:00.000Z</time>
      </trkpt>
      <trkpt lat="44.1037" lon="3.12482">
        <ele>399</ele>
        <time>2014-09-13T07:06:02.000Z</time>
      </trkpt>
      <trkpt lat="44.10369" lon="3.12495">
        <ele>399</ele>
        <time>2014-09-13T07:06:06.000Z</time>
      </trkpt>
      <trkpt lat="44.10371" lon="3.12507">
        <ele>399</ele>
        <time>2014-09-13T07:06:10.000Z</time>
      </trkpt>
      <trkpt lat="44.1037" lon="3.12523">
        <ele>399.79998779297</ele>
        <time>2014-09-13T07:06:15.000Z</time>
      </trkpt>
      <trkpt lat="44.1037" lon="3.12526">
        <ele>400</ele>
        <time>2014-09-13T07:06:16.000Z</time>
      </trkpt>
      <trkpt lat="44.10369" lon="3.12538">
        <ele>400.39999389648</ele>
        <time>2014-09-13T07:06:20.000Z</time>
      </trkpt>
      <trkpt lat="44.10369" lon="3.12553">
        <ele>401.20001220703</ele>
        <time>2014-09-13T07:06:25.000Z</time>
      </trkpt>
      <trkpt lat="44.10368" lon="3.12557">
        <ele>401.20001220703</ele>
        <time>2014-09-13T07:06:26.000Z</time>
      </trkpt>
      <trkpt lat="44.10369" lon="3.12569">
        <ele>402.20001220703</ele>
        <time>2014-09-13T07:06:30.000Z</time>
      </trkpt>
      <trkpt lat="44.10368" lon="3.12575">
        <ele>402.60000610352</ele>
        <time>2014-09-13T07:06:32.000Z</time>
      </trkpt>
      <trkpt lat="44.10366" lon="3.12585">
        <ele>403.20001220703</ele>
        <time>2014-09-13T07:06:36.000Z</time>
      </trkpt>
      <trkpt lat="44.10364" lon="3.12589">
        <ele>403.39999389648</ele>
        <time>2014-09-13T07:06:38.000Z</time>
      </trkpt>
      <trkpt lat="44.10362" lon="3.12597">
        <ele>403.79998779297</ele>
        <time>2014-09-13T07:06:41.000Z</time>
      </trkpt>
      <trkpt lat="44.10356" lon="3.12612">
        <ele>404.39999389648</ele>
        <time>2014-09-13T07:06:47.000Z</time>
      </trkpt>
      <trkpt lat="44.1035" lon="3.12626">
        <ele>405.60000610352</ele>
        <time>2014-09-13T07:06:52.000Z</time>
      </trkpt>
      <trkpt lat="44.10349" lon="3.12628">
        <ele>405.60000610352</ele>
        <time>2014-09-13T07:06:53.000Z</time>
      </trkpt>
      <trkpt lat="44.10344" lon="3.1264">
        <ele>406.60000610352</ele>
        <time>2014-09-13T07:06:58.000Z</time>
      </trkpt>
      <trkpt lat="44.10339" lon="3.12655">
        <ele>407.20001220703</ele>
        <time>2014-09-13T07:07:03.000Z</time>
      </trkpt>
      <trkpt lat="44.10335" lon="3.12665">
        <ele>407.60000610352</ele>
        <time>2014-09-13T07:07:07.000Z</time>
      </trkpt>
      <trkpt lat="44.10332" lon="3.12672">
        <ele>407</ele>
        <time>2014-09-13T07:07:10.000Z</time>
      </trkpt>
      <trkpt lat="44.10331" lon="3.12676">
        <ele>406.60000610352</ele>
        <time>2014-09-13T07:07:12.000Z</time>
      </trkpt>
      <trkpt lat="44.10329" lon="3.12678">
        <ele>406.39999389648</ele>
        <time>2014-09-13T07:07:15.000Z</time>
      </trkpt>
      <trkpt lat="44.10329" lon="3.12678">
        <ele>406.60000610352</ele>
        <time>2014-09-13T07:07:20.000Z</time>
      </trkpt>
      <trkpt lat="44.1033" lon="3.12678">
        <ele>406.60000610352</ele>
        <time>2014-09-13T07:07:21.000Z</time>
      </trkpt>
      <trkpt lat="44.10331" lon="3.12677">
        <ele>407</ele>
        <time>2014-09-13T07:07:24.000Z</time>
      </trkpt>
      <trkpt lat="44.10333" lon="3.12673">
        <ele>407.60000610352</ele>
        <time>2014-09-13T07:07:26.000Z</time>
      </trkpt>
      <trkpt lat="44.10335" lon="3.12671">
        <ele>408</ele>
        <time>2014-09-13T07:07:27.000Z</time>
      </trkpt>
      <trkpt lat="44.10338" lon="3.12664">
        <ele>409</ele>
        <time>2014-09-13T07:07:31.000Z</time>
      </trkpt>
      <trkpt lat="44.1034" lon="3.12661">
        <ele>409.79998779297</ele>
        <time>2014-09-13T07:07:33.000Z</time>
      </trkpt>
      <trkpt lat="44.10342" lon="3.12659">
        <ele>410.39999389648</ele>
        <time>2014-09-13T07:07:35.000Z</time>
      </trkpt>
      <trkpt lat="44.10344" lon="3.1266">
        <ele>411</ele>
        <time>2014-09-13T07:07:36.000Z</time>
      </trkpt>
      <trkpt lat="44.10347" lon="3.12663">
        <ele>411.60000610352</ele>
        <time>2014-09-13T07:07:38.000Z</time>
      </trkpt>
      <trkpt lat="44.10348" lon="3.12669">
        <ele>412.39999389648</ele>
        <time>2014-09-13T07:07:41.000Z</time>
      </trkpt>
      <trkpt lat="44.10348" lon="3.12671">
        <ele>412.79998779297</ele>
        <time>2014-09-13T07:07:42.000Z</time>
      </trkpt>
      <trkpt lat="44.1035" lon="3.1268">
        <ele>413.60000610352</ele>
        <time>2014-09-13T07:07:46.000Z</time>
      </trkpt>
      <trkpt lat="44.1035" lon="3.12682">
        <ele>413.79998779297</ele>
        <time>2014-09-13T07:07:47.000Z</time>
      </trkpt>
      <trkpt lat="44.10354" lon="3.12679">
        <ele>414.60000610352</ele>
        <time>2014-09-13T07:07:50.000Z</time>
      </trkpt>
      <trkpt lat="44.10355" lon="3.12675">
        <ele>415</ele>
        <time>2014-09-13T07:07:52.000Z</time>
      </trkpt>
      <trkpt lat="44.10356" lon="3.12669">
        <ele>415.60000610352</ele>
        <time>2014-09-13T07:07:54.000Z</time>
      </trkpt>
      <trkpt lat="44.10356" lon="3.12665">
        <ele>416.20001220703</ele>
        <time>2014-09-13T07:07:56.000Z</time>
      </trkpt>
      <trkpt lat="44.10358" lon="3.12657">
        <ele>416.60000610352</ele>
        <time>2014-09-13T07:07:59.000Z</time>
      </trkpt>
      <trkpt lat="44.1036" lon="3.12652">
        <ele>417.39999389648</ele>
        <time>2014-09-13T07:08:01.000Z</time>
      </trkpt>
      <trkpt lat="44.10362" lon="3.1265">
        <ele>417.79998779297</ele>
        <time>2014-09-13T07:08:03.000Z</time>
      </trkpt>
      <trkpt lat="44.10365" lon="3.12646">
        <ele>418.39999389648</ele>
        <time>2014-09-13T07:08:06.000Z</time>
      </trkpt>
      <trkpt lat="44.10367" lon="3.12642">
        <ele>419</ele>
        <time>2014-09-13T07:08:08.000Z</time>
      </trkpt>
      <trkpt lat="44.10368" lon="3.1264">
        <ele>419.60000610352</ele>
        <time>2014-09-13T07:08:10.000Z</time>
      </trkpt>
      <trkpt lat="44.10369" lon="3.12638">
        <ele>420.20001220703</ele>
        <time>2014-09-13T07:08:13.000Z</time>
      </trkpt>
      <trkpt lat="44.1037" lon="3.12628">
        <ele>420.20001220703</ele>
        <time>2014-09-13T07:08:19.000Z</time>
      </trkpt>
      <trkpt lat="44.10375" lon="3.12617">
        <ele>420</ele>
        <time>2014-09-13T07:08:23.000Z</time>
      </trkpt>
      <trkpt lat="44.10377" lon="3.12613">
        <ele>420.79998779297</ele>
        <time>2014-09-13T07:08:25.000Z</time>
      </trkpt>
      <trkpt lat="44.10381" lon="3.12606">
        <ele>421.39999389648</ele>
        <time>2014-09-13T07:08:28.000Z</time>
      </trkpt>
      <trkpt lat="44.10387" lon="3.12596">
        <ele>421.79998779297</ele>
        <time>2014-09-13T07:08:33.000Z</time>
      </trkpt>
      <trkpt lat="44.10387" lon="3.12593">
        <ele>422</ele>
        <time>2014-09-13T07:08:34.000Z</time>
      </trkpt>
      <trkpt lat="44.10391" lon="3.12581">
        <ele>422.79998779297</ele>
        <time>2014-09-13T07:08:39.000Z</time>
      </trkpt>
      <trkpt lat="44.10393" lon="3.12574">
        <ele>423.60000610352</ele>
        <time>2014-09-13T07:08:42.000Z</time>
      </trkpt>
      <trkpt lat="44.10394" lon="3.12573">
        <ele>423.79998779297</ele>
        <time>2014-09-13T07:08:43.000Z</time>
      </trkpt>
      <trkpt lat="44.10395" lon="3.12571">
        <ele>424.20001220703</ele>
        <time>2014-09-13T07:08:44.000Z</time>
      </trkpt>
      <trkpt lat="44.10397" lon="3.12565">
        <ele>424.79998779297</ele>
        <time>2014-09-13T07:08:47.000Z</time>
      </trkpt>
      <trkpt lat="44.10398" lon="3.12563">
        <ele>425.20001220703</ele>
        <time>2014-09-13T07:08:48.000Z</time>
      </trkpt>
      <trkpt lat="44.10402" lon="3.12551">
        <ele>426.20001220703</ele>
        <time>2014-09-13T07:08:53.000Z</time>
      </trkpt>
      <trkpt lat="44.10403" lon="3.12548">
        <ele>426.60000610352</ele>
        <time>2014-09-13T07:08:54.000Z</time>
      </trkpt>
      <trkpt lat="44.10405" lon="3.12539">
        <ele>427.39999389648</ele>
        <time>2014-09-13T07:08:58.000Z</time>
      </trkpt>
      <trkpt lat="44.10407" lon="3.12533">
        <ele>428.39999389648</ele>
        <time>2014-09-13T07:09:01.000Z</time>
      </trkpt>
      <trkpt lat="44.10408" lon="3.12528">
        <ele>428.39999389648</ele>
        <time>2014-09-13T07:09:03.000Z</time>
      </trkpt>
      <trkpt lat="44.10411" lon="3.12523">
        <ele>429.20001220703</ele>
        <time>2014-09-13T07:09:06.000Z</time>
      </trkpt>
      <trkpt lat="44.10412" lon="3.12519">
        <ele>429.79998779297</ele>
        <time>2014-09-13T07:09:08.000Z</time>
      </trkpt>
      <trkpt lat="44.10414" lon="3.12511">
        <ele>431</ele>
        <time>2014-09-13T07:09:12.000Z</time>
      </trkpt>
      <trkpt lat="44.10417" lon="3.12505">
        <ele>432</ele>
        <time>2014-09-13T07:09:16.000Z</time>
      </trkpt>
      <trkpt lat="44.10417" lon="3.12504">
        <ele>432.20001220703</ele>
        <time>2014-09-13T07:09:17.000Z</time>
      </trkpt>
      <trkpt lat="44.10419" lon="3.12501">
        <ele>433</ele>
        <time>2014-09-13T07:09:19.000Z</time>
      </trkpt>
      <trkpt lat="44.1042" lon="3.12494">
        <ele>433.79998779297</ele>
        <time>2014-09-13T07:09:22.000Z</time>
      </trkpt>
      <trkpt lat="44.10421" lon="3.12492">
        <ele>434</ele>
        <time>2014-09-13T07:09:23.000Z</time>
      </trkpt>
      <trkpt lat="44.10424" lon="3.1248">
        <ele>435.20001220703</ele>
        <time>2014-09-13T07:09:28.000Z</time>
      </trkpt>
      <trkpt lat="44.10427" lon="3.12471">
        <ele>436</ele>
        <time>2014-09-13T07:09:33.000Z</time>
      </trkpt>
      <trkpt lat="44.10427" lon="3.12469">
        <ele>436.20001220703</ele>
        <time>2014-09-13T07:09:34.000Z</time>
      </trkpt>
      <trkpt lat="44.10428" lon="3.12462">
        <ele>437.60000610352</ele>
        <time>2014-09-13T07:09:38.000Z</time>
      </trkpt>
      <trkpt lat="44.10429" lon="3.12456">
        <ele>438.20001220703</ele>
        <time>2014-09-13T07:09:41.000Z</time>
      </trkpt>
      <trkpt lat="44.1043" lon="3.12455">
        <ele>438.60000610352</ele>
        <time>2014-09-13T07:09:42.000Z</time>
      </trkpt>
      <trkpt lat="44.1043" lon="3.12453">
        <ele>438.79998779297</ele>
        <time>2014-09-13T07:09:43.000Z</time>
      </trkpt>
      <trkpt lat="44.10433" lon="3.12447">
        <ele>439.60000610352</ele>
        <time>2014-09-13T07:09:46.000Z</time>
      </trkpt>
      <trkpt lat="44.10433" lon="3.12443">
        <ele>440.20001220703</ele>
        <time>2014-09-13T07:09:48.000Z</time>
      </trkpt>
      <trkpt lat="44.10433" lon="3.12441">
        <ele>441</ele>
        <time>2014-09-13T07:09:50.000Z</time>
      </trkpt>
      <trkpt lat="44.10436" lon="3.12435">
        <ele>441.79998779297</ele>
        <time>2014-09-13T07:09:53.000Z</time>
      </trkpt>
      <trkpt lat="44.10435" lon="3.12435">
        <ele>442</ele>
        <time>2014-09-13T07:09:54.000Z</time>
      </trkpt>
      <trkpt lat="44.10438" lon="3.12429">
        <ele>443.20001220703</ele>
        <time>2014-09-13T07:09:57.000Z</time>
      </trkpt>
      <trkpt lat="44.10439" lon="3.12427">
        <ele>443.60000610352</ele>
        <time>2014-09-13T07:09:58.000Z</time>
      </trkpt>
      <trkpt lat="44.1044" lon="3.12424">
        <ele>444.60000610352</ele>
        <time>2014-09-13T07:10:00.000Z</time>
      </trkpt>
      <trkpt lat="44.10442" lon="3.12419">
        <ele>445.39999389648</ele>
        <time>2014-09-13T07:10:03.000Z</time>
      </trkpt>
      <trkpt lat="44.10442" lon="3.12417">
        <ele>445.79998779297</ele>
        <time>2014-09-13T07:10:04.000Z</time>
      </trkpt>
      <trkpt lat="44.10443" lon="3.12416">
        <ele>446</ele>
        <time>2014-09-13T07:10:05.000Z</time>
      </trkpt>
      <trkpt lat="44.10445" lon="3.12409">
        <ele>446.79998779297</ele>
        <time>2014-09-13T07:10:08.000Z</time>
      </trkpt>
      <trkpt lat="44.10447" lon="3.12401">
        <ele>447.79998779297</ele>
        <time>2014-09-13T07:10:12.000Z</time>
      </trkpt>
      <trkpt lat="44.10448" lon="3.12399">
        <ele>448.20001220703</ele>
        <time>2014-09-13T07:10:13.000Z</time>
      </trkpt>
      <trkpt lat="44.10451" lon="3.12392">
        <ele>449.20001220703</ele>
        <time>2014-09-13T07:10:17.000Z</time>
      </trkpt>
      <trkpt lat="44.10451" lon="3.12391">
        <ele>449.39999389648</ele>
        <time>2014-09-13T07:10:18.000Z</time>
      </trkpt>
      <trkpt lat="44.10454" lon="3.12382">
        <ele>450.39999389648</ele>
        <time>2014-09-13T07:10:23.000Z</time>
      </trkpt>
      <trkpt lat="44.10456" lon="3.12375">
        <ele>451.39999389648</ele>
        <time>2014-09-13T07:10:27.000Z</time>
      </trkpt>
      <trkpt lat="44.10456" lon="3.12374">
        <ele>451.60000610352</ele>
        <time>2014-09-13T07:10:28.000Z</time>
      </trkpt>
      <trkpt lat="44.10458" lon="3.12367">
        <ele>452.39999389648</ele>
        <time>2014-09-13T07:10:32.000Z</time>
      </trkpt>
      <trkpt lat="44.10459" lon="3.12364">
        <ele>453</ele>
        <time>2014-09-13T07:10:34.000Z</time>
      </trkpt>
      <trkpt lat="44.10459" lon="3.12358">
        <ele>453.79998779297</ele>
        <time>2014-09-13T07:10:37.000Z</time>
      </trkpt>
      <trkpt lat="44.10459" lon="3.12356">
        <ele>454.20001220703</ele>
        <time>2014-09-13T07:10:38.000Z</time>
      </trkpt>
      <trkpt lat="44.1046" lon="3.12352">
        <ele>454.79998779297</ele>
        <time>2014-09-13T07:10:40.000Z</time>
      </trkpt>
      <trkpt lat="44.10461" lon="3.12347">
        <ele>455.79998779297</ele>
        <time>2014-09-13T07:10:43.000Z</time>
      </trkpt>
      <trkpt lat="44.10462" lon="3.12345">
        <ele>456.20001220703</ele>
        <time>2014-09-13T07:10:44.000Z</time>
      </trkpt>
      <trkpt lat="44.10463" lon="3.12339">
        <ele>457.39999389648</ele>
        <time>2014-09-13T07:10:48.000Z</time>
      </trkpt>
      <trkpt lat="44.10464" lon="3.12325">
        <ele>458.60000610352</ele>
        <time>2014-09-13T07:10:54.000Z</time>
      </trkpt>
      <trkpt lat="44.10467" lon="3.12313">
        <ele>459.39999389648</ele>
        <time>2014-09-13T07:11:00.000Z</time>
      </trkpt>
      <trkpt lat="44.10468" lon="3.1231">
        <ele>459.79998779297</ele>
        <time>2014-09-13T07:11:02.000Z</time>
      </trkpt>
      <trkpt lat="44.10471" lon="3.12301">
        <ele>460.79998779297</ele>
        <time>2014-09-13T07:11:06.000Z</time>
      </trkpt>
      <trkpt lat="44.10472" lon="3.12299">
        <ele>461</ele>
        <time>2014-09-13T07:11:07.000Z</time>
      </trkpt>
      <trkpt lat="44.10476" lon="3.12288">
        <ele>462.20001220703</ele>
        <time>2014-09-13T07:11:12.000Z</time>
      </trkpt>
      <trkpt lat="44.1048" lon="3.12278">
        <ele>463.20001220703</ele>
        <time>2014-09-13T07:11:17.000Z</time>
      </trkpt>
      <trkpt lat="44.10484" lon="3.12269">
        <ele>464</ele>
        <time>2014-09-13T07:11:22.000Z</time>
      </trkpt>
      <trkpt lat="44.10486" lon="3.12265">
        <ele>464.39999389648</ele>
        <time>2014-09-13T07:11:24.000Z</time>
      </trkpt>
      <trkpt lat="44.1049" lon="3.12256">
        <ele>465.20001220703</ele>
        <time>2014-09-13T07:11:28.000Z</time>
      </trkpt>
      <trkpt lat="44.1049" lon="3.12253">
        <ele>465.60000610352</ele>
        <time>2014-09-13T07:11:30.000Z</time>
      </trkpt>
      <trkpt lat="44.10491" lon="3.12247">
        <ele>466.39999389648</ele>
        <time>2014-09-13T07:11:33.000Z</time>
      </trkpt>
      <trkpt lat="44.10492" lon="3.12244">
        <ele>466.60000610352</ele>
        <time>2014-09-13T07:11:34.000Z</time>
      </trkpt>
      <trkpt lat="44.10492" lon="3.12241">
        <ele>466.79998779297</ele>
        <time>2014-09-13T07:11:35.000Z</time>
      </trkpt>
      <trkpt lat="44.10492" lon="3.12231">
        <ele>467</ele>
        <time>2014-09-13T07:11:39.000Z</time>
      </trkpt>
      <trkpt lat="44.10494" lon="3.12219">
        <ele>468</ele>
        <time>2014-09-13T07:11:44.000Z</time>
      </trkpt>
      <trkpt lat="44.10494" lon="3.12217">
        <ele>468.20001220703</ele>
        <time>2014-09-13T07:11:45.000Z</time>
      </trkpt>
      <trkpt lat="44.10494" lon="3.1221">
        <ele>469</ele>
        <time>2014-09-13T07:11:48.000Z</time>
      </trkpt>
      <trkpt lat="44.10494" lon="3.12208">
        <ele>469.39999389648</ele>
        <time>2014-09-13T07:11:49.000Z</time>
      </trkpt>
      <trkpt lat="44.10493" lon="3.12199">
        <ele>470</ele>
        <time>2014-09-13T07:11:53.000Z</time>
      </trkpt>
      <trkpt lat="44.10493" lon="3.12197">
        <ele>470.20001220703</ele>
        <time>2014-09-13T07:11:54.000Z</time>
      </trkpt>
      <trkpt lat="44.10494" lon="3.12188">
        <ele>471.20001220703</ele>
        <time>2014-09-13T07:11:58.000Z</time>
      </trkpt>
      <trkpt lat="44.10494" lon="3.12185">
        <ele>471.39999389648</ele>
        <time>2014-09-13T07:11:59.000Z</time>
      </trkpt>
      <trkpt lat="44.10494" lon="3.12176">
        <ele>472.20001220703</ele>
        <time>2014-09-13T07:12:03.000Z</time>
      </trkpt>
      <trkpt lat="44.10494" lon="3.1217">
        <ele>472.39999389648</ele>
        <time>2014-09-13T07:12:05.000Z</time>
      </trkpt>
      <trkpt lat="44.10495" lon="3.12163">
        <ele>472.79998779297</ele>
        <time>2014-09-13T07:12:08.000Z</time>
      </trkpt>
      <trkpt lat="44.10496" lon="3.12148">
        <ele>473.39999389648</ele>
        <time>2014-09-13T07:12:13.000Z</time>
      </trkpt>
      <trkpt lat="44.10496" lon="3.12146">
        <ele>473.39999389648</ele>
        <time>2014-09-13T07:12:14.000Z</time>
      </trkpt>
      <trkpt lat="44.10497" lon="3.1213">
        <ele>473.39999389648</ele>
        <time>2014-09-13T07:12:20.000Z</time>
      </trkpt>
      <trkpt lat="44.10499" lon="3.12117">
        <ele>474.60000610352</ele>
        <time>2014-09-13T07:12:26.000Z</time>
      </trkpt>
      <trkpt lat="44.105" lon="3.12108">
        <ele>476</ele>
        <time>2014-09-13T07:12:30.000Z</time>
      </trkpt>
      <trkpt lat="44.105" lon="3.12107">
        <ele>476.20001220703</ele>
        <time>2014-09-13T07:12:31.000Z</time>
      </trkpt>
      <trkpt lat="44.105" lon="3.12106">
        <ele>477.20001220703</ele>
        <time>2014-09-13T07:12:35.000Z</time>
      </trkpt>
      <trkpt lat="44.105" lon="3.12105">
        <ele>478</ele>
        <time>2014-09-13T07:12:37.000Z</time>
      </trkpt>
      <trkpt lat="44.10502" lon="3.12102">
        <ele>478.39999389648</ele>
        <time>2014-09-13T07:12:38.000Z</time>
      </trkpt>
      <trkpt lat="44.10503" lon="3.121">
        <ele>479.39999389648</ele>
        <time>2014-09-13T07:12:42.000Z</time>
      </trkpt>
      <trkpt lat="44.10507" lon="3.12097">
        <ele>480.60000610352</ele>
        <time>2014-09-13T07:12:46.000Z</time>
      </trkpt>
      <trkpt lat="44.10507" lon="3.12097">
        <ele>480.79998779297</ele>
        <time>2014-09-13T07:12:47.000Z</time>
      </trkpt>
      <trkpt lat="44.10508" lon="3.12092">
        <ele>481.79998779297</ele>
        <time>2014-09-13T07:12:50.000Z</time>
      </trkpt>
      <trkpt lat="44.10508" lon="3.1209">
        <ele>482</ele>
        <time>2014-09-13T07:12:51.000Z</time>
      </trkpt>
      <trkpt lat="44.10508" lon="3.12089">
        <ele>482.79998779297</ele>
        <time>2014-09-13T07:12:55.000Z</time>
      </trkpt>
      <trkpt lat="44.10508" lon="3.12081">
        <ele>483.79998779297</ele>
        <time>2014-09-13T07:12:58.000Z</time>
      </trkpt>
      <trkpt lat="44.10508" lon="3.12082">
        <ele>484</ele>
        <time>2014-09-13T07:12:59.000Z</time>
      </trkpt>
      <trkpt lat="44.10507" lon="3.12074">
        <ele>485</ele>
        <time>2014-09-13T07:13:03.000Z</time>
      </trkpt>
      <trkpt lat="44.10507" lon="3.12072">
        <ele>485</ele>
        <time>2014-09-13T07:13:04.000Z</time>
      </trkpt>
      <trkpt lat="44.10507" lon="3.12064">
        <ele>486</ele>
        <time>2014-09-13T07:13:09.000Z</time>
      </trkpt>
      <trkpt lat="44.10506" lon="3.12058">
        <ele>487.20001220703</ele>
        <time>2014-09-13T07:13:13.000Z</time>
      </trkpt>
      <trkpt lat="44.10506" lon="3.12058">
        <ele>487.60000610352</ele>
        <time>2014-09-13T07:13:14.000Z</time>
      </trkpt>
      <trkpt lat="44.10506" lon="3.12048">
        <ele>488.20001220703</ele>
        <time>2014-09-13T07:13:18.000Z</time>
      </trkpt>
      <trkpt lat="44.10506" lon="3.12046">
        <ele>488.60000610352</ele>
        <time>2014-09-13T07:13:19.000Z</time>
      </trkpt>
      <trkpt lat="44.10505" lon="3.12037">
        <ele>489.39999389648</ele>
        <time>2014-09-13T07:13:23.000Z</time>
      </trkpt>
      <trkpt lat="44.10505" lon="3.12035">
        <ele>489.60000610352</ele>
        <time>2014-09-13T07:13:24.000Z</time>
      </trkpt>
      <trkpt lat="44.10504" lon="3.12028">
        <ele>490</ele>
        <time>2014-09-13T07:13:28.000Z</time>
      </trkpt>
      <trkpt lat="44.10505" lon="3.12022">
        <ele>490.79998779297</ele>
        <time>2014-09-13T07:13:31.000Z</time>
      </trkpt>
      <trkpt lat="44.10506" lon="3.1202">
        <ele>491</ele>
        <time>2014-09-13T07:13:32.000Z</time>
      </trkpt>
      <trkpt lat="44.10508" lon="3.1201">
        <ele>491.79998779297</ele>
        <time>2014-09-13T07:13:37.000Z</time>
      </trkpt>
      <trkpt lat="44.10509" lon="3.12008">
        <ele>492</ele>
        <time>2014-09-13T07:13:38.000Z</time>
      </trkpt>
      <trkpt lat="44.10513" lon="3.12003">
        <ele>493</ele>
        <time>2014-09-13T07:13:43.000Z</time>
      </trkpt>
      <trkpt lat="44.10514" lon="3.12002">
        <ele>493.20001220703</ele>
        <time>2014-09-13T07:13:44.000Z</time>
      </trkpt>
      <trkpt lat="44.10517" lon="3.12001">
        <ele>494</ele>
        <time>2014-09-13T07:13:46.000Z</time>
      </trkpt>
      <trkpt lat="44.10518" lon="3.12">
        <ele>495.20001220703</ele>
        <time>2014-09-13T07:13:50.000Z</time>
      </trkpt>
      <trkpt lat="44.10518" lon="3.11999">
        <ele>495.39999389648</ele>
        <time>2014-09-13T07:13:51.000Z</time>
      </trkpt>
      <trkpt lat="44.10518" lon="3.11996">
        <ele>495.60000610352</ele>
        <time>2014-09-13T07:13:52.000Z</time>
      </trkpt>
      <trkpt lat="44.10518" lon="3.11995">
        <ele>496.20001220703</ele>
        <time>2014-09-13T07:13:54.000Z</time>
      </trkpt>
      <trkpt lat="44.10519" lon="3.11994">
        <ele>496.39999389648</ele>
        <time>2014-09-13T07:13:55.000Z</time>
      </trkpt>
      <trkpt lat="44.1052" lon="3.11987">
        <ele>497.20001220703</ele>
        <time>2014-09-13T07:13:59.000Z</time>
      </trkpt>
      <trkpt lat="44.1052" lon="3.11986">
        <ele>497.60000610352</ele>
        <time>2014-09-13T07:14:00.000Z</time>
      </trkpt>
      <trkpt lat="44.10518" lon="3.11982">
        <ele>498.39999389648</ele>
        <time>2014-09-13T07:14:03.000Z</time>
      </trkpt>
      <trkpt lat="44.10517" lon="3.11981">
        <ele>498.60000610352</ele>
        <time>2014-09-13T07:14:04.000Z</time>
      </trkpt>
      <trkpt lat="44.10516" lon="3.11978">
        <ele>499.39999389648</ele>
        <time>2014-09-13T07:14:07.000Z</time>
      </trkpt>
      <trkpt lat="44.10515" lon="3.11974">
        <ele>500.79998779297</ele>
        <time>2014-09-13T07:14:11.000Z</time>
      </trkpt>
      <trkpt lat="44.10514" lon="3.11973">
        <ele>501.20001220703</ele>
        <time>2014-09-13T07:14:13.000Z</time>
      </trkpt>
      <trkpt lat="44.10512" lon="3.11966">
        <ele>501.79998779297</ele>
        <time>2014-09-13T07:14:16.000Z</time>
      </trkpt>
      <trkpt lat="44.10513" lon="3.11967">
        <ele>502.20001220703</ele>
        <time>2014-09-13T07:14:17.000Z</time>
      </trkpt>
      <trkpt lat="44.10511" lon="3.11964">
        <ele>503</ele>
        <time>2014-09-13T07:14:20.000Z</time>
      </trkpt>
      <trkpt lat="44.10511" lon="3.11962">
        <ele>503.20001220703</ele>
        <time>2014-09-13T07:14:21.000Z</time>
      </trkpt>
      <trkpt lat="44.10511" lon="3.11963">
        <ele>503.39999389648</ele>
        <time>2014-09-13T07:14:22.000Z</time>
      </trkpt>
      <trkpt lat="44.1051" lon="3.11962">
        <ele>504.39999389648</ele>
        <time>2014-09-13T07:14:25.000Z</time>
      </trkpt>
      <trkpt lat="44.10512" lon="3.11961">
        <ele>504.60000610352</ele>
        <time>2014-09-13T07:14:27.000Z</time>
      </trkpt>
      <trkpt lat="44.10511" lon="3.11959">
        <ele>505.60000610352</ele>
        <time>2014-09-13T07:14:30.000Z</time>
      </trkpt>
      <trkpt lat="44.1051" lon="3.11957">
        <ele>505.79998779297</ele>
        <time>2014-09-13T07:14:31.000Z</time>
      </trkpt>
      <trkpt lat="44.1051" lon="3.11957">
        <ele>506.60000610352</ele>
        <time>2014-09-13T07:14:34.000Z</time>
      </trkpt>
      <trkpt lat="44.1051" lon="3.11957">
        <ele>506.79998779297</ele>
        <time>2014-09-13T07:14:35.000Z</time>
      </trkpt>
      <trkpt lat="44.10512" lon="3.11955">
        <ele>508</ele>
        <time>2014-09-13T07:14:38.000Z</time>
      </trkpt>
      <trkpt lat="44.10513" lon="3.11954">
        <ele>508.39999389648</ele>
        <time>2014-09-13T07:14:39.000Z</time>
      </trkpt>
      <trkpt lat="44.10513" lon="3.11953">
        <ele>508.20001220703</ele>
        <time>2014-09-13T07:14:40.000Z</time>
      </trkpt>
      <trkpt lat="44.10512" lon="3.11951">
        <ele>509.20001220703</ele>
        <time>2014-09-13T07:14:43.000Z</time>
      </trkpt>
      <trkpt lat="44.10512" lon="3.11946">
        <ele>510.39999389648</ele>
        <time>2014-09-13T07:14:46.000Z</time>
      </trkpt>
      <trkpt lat="44.10512" lon="3.11947">
        <ele>510.60000610352</ele>
        <time>2014-09-13T07:14:47.000Z</time>
      </trkpt>
      <trkpt lat="44.10512" lon="3.11945">
        <ele>511.60000610352</ele>
        <time>2014-09-13T07:14:50.000Z</time>
      </trkpt>
      <trkpt lat="44.10512" lon="3.11943">
        <ele>512</ele>
        <time>2014-09-13T07:14:51.000Z</time>
      </trkpt>
      <trkpt lat="44.10512" lon="3.1194">
        <ele>512.59997558594</ele>
        <time>2014-09-13T07:14:55.000Z</time>
      </trkpt>
      <trkpt lat="44.10512" lon="3.11939">
        <ele>513</ele>
        <time>2014-09-13T07:14:56.000Z</time>
      </trkpt>
      <trkpt lat="44.10512" lon="3.11939">
        <ele>513.79998779297</ele>
        <time>2014-09-13T07:14:58.000Z</time>
      </trkpt>
      <trkpt lat="44.10512" lon="3.11937">
        <ele>514</ele>
        <time>2014-09-13T07:15:00.000Z</time>
      </trkpt>
      <trkpt lat="44.10512" lon="3.11934">
        <ele>514.79998779297</ele>
        <time>2014-09-13T07:15:03.000Z</time>
      </trkpt>
      <trkpt lat="44.10512" lon="3.11934">
        <ele>515</ele>
        <time>2014-09-13T07:15:04.000Z</time>
      </trkpt>
      <trkpt lat="44.10512" lon="3.11931">
        <ele>516</ele>
        <time>2014-09-13T07:15:07.000Z</time>
      </trkpt>
      <trkpt lat="44.10512" lon="3.1193">
        <ele>516.79998779297</ele>
        <time>2014-09-13T07:15:09.000Z</time>
      </trkpt>
      <trkpt lat="44.10513" lon="3.1193">
        <ele>517.20001220703</ele>
        <time>2014-09-13T07:15:10.000Z</time>
      </trkpt>
      <trkpt lat="44.10515" lon="3.11927">
        <ele>518.40002441406</ele>
        <time>2014-09-13T07:15:14.000Z</time>
      </trkpt>
      <trkpt lat="44.10515" lon="3.11926">
        <ele>519</ele>
        <time>2014-09-13T07:15:16.000Z</time>
      </trkpt>
      <trkpt lat="44.10514" lon="3.11923">
        <ele>519.40002441406</ele>
        <time>2014-09-13T07:15:18.000Z</time>
      </trkpt>
      <trkpt lat="44.10514" lon="3.11924">
        <ele>519.59997558594</ele>
        <time>2014-09-13T07:15:19.000Z</time>
      </trkpt>
      <trkpt lat="44.10515" lon="3.11919">
        <ele>520.40002441406</ele>
        <time>2014-09-13T07:15:22.000Z</time>
      </trkpt>
      <trkpt lat="44.10516" lon="3.11916">
        <ele>521</ele>
        <time>2014-09-13T07:15:25.000Z</time>
      </trkpt>
      <trkpt lat="44.10516" lon="3.11916">
        <ele>522</ele>
        <time>2014-09-13T07:15:27.000Z</time>
      </trkpt>
      <trkpt lat="44.10516" lon="3.11912">
        <ele>522.20001220703</ele>
        <time>2014-09-13T07:15:29.000Z</time>
      </trkpt>
      <trkpt lat="44.10516" lon="3.11912">
        <ele>523</ele>
        <time>2014-09-13T07:15:32.000Z</time>
      </trkpt>
      <trkpt lat="44.10516" lon="3.11907">
        <ele>523.59997558594</ele>
        <time>2014-09-13T07:15:34.000Z</time>
      </trkpt>
      <trkpt lat="44.10515" lon="3.11907">
        <ele>524</ele>
        <time>2014-09-13T07:15:36.000Z</time>
      </trkpt>
      <trkpt lat="44.10515" lon="3.11907">
        <ele>524.20001220703</ele>
        <time>2014-09-13T07:15:37.000Z</time>
      </trkpt>
      <trkpt lat="44.10516" lon="3.11904">
        <ele>525</ele>
        <time>2014-09-13T07:15:40.000Z</time>
      </trkpt>
      <trkpt lat="44.10516" lon="3.11901">
        <ele>526</ele>
        <time>2014-09-13T07:15:42.000Z</time>
      </trkpt>
      <trkpt lat="44.10516" lon="3.11899">
        <ele>526.20001220703</ele>
        <time>2014-09-13T07:15:43.000Z</time>
      </trkpt>
      <trkpt lat="44.10516" lon="3.11896">
        <ele>526.79998779297</ele>
        <time>2014-09-13T07:15:46.000Z</time>
      </trkpt>
      <trkpt lat="44.10515" lon="3.11891">
        <ele>527.40002441406</ele>
        <time>2014-09-13T07:15:49.000Z</time>
      </trkpt>
      <trkpt lat="44.10515" lon="3.11892">
        <ele>527.59997558594</ele>
        <time>2014-09-13T07:15:50.000Z</time>
      </trkpt>
      <trkpt lat="44.10515" lon="3.11888">
        <ele>528.40002441406</ele>
        <time>2014-09-13T07:15:53.000Z</time>
      </trkpt>
      <trkpt lat="44.10515" lon="3.11887">
        <ele>529</ele>
        <time>2014-09-13T07:15:55.000Z</time>
      </trkpt>
      <trkpt lat="44.10515" lon="3.1188">
        <ele>529.59997558594</ele>
        <time>2014-09-13T07:15:58.000Z</time>
      </trkpt>
      <trkpt lat="44.10515" lon="3.11882">
        <ele>529.79998779297</ele>
        <time>2014-09-13T07:15:59.000Z</time>
      </trkpt>
      <trkpt lat="44.10516" lon="3.11877">
        <ele>530.20001220703</ele>
        <time>2014-09-13T07:16:02.000Z</time>
      </trkpt>
      <trkpt lat="44.10516" lon="3.11876">
        <ele>530.79998779297</ele>
        <time>2014-09-13T07:16:04.000Z</time>
      </trkpt>
      <trkpt lat="44.10517" lon="3.1187">
        <ele>531.59997558594</ele>
        <time>2014-09-13T07:16:07.000Z</time>
      </trkpt>
      <trkpt lat="44.10518" lon="3.11869">
        <ele>531.40002441406</ele>
        <time>2014-09-13T07:16:08.000Z</time>
      </trkpt>
      <trkpt lat="44.10518" lon="3.11864">
        <ele>531.59997558594</ele>
        <time>2014-09-13T07:16:12.000Z</time>
      </trkpt>
      <trkpt lat="44.10518" lon="3.11861">
        <ele>531.59997558594</ele>
        <time>2014-09-13T07:16:13.000Z</time>
      </trkpt>
      <trkpt lat="44.10519" lon="3.11858">
        <ele>532.20001220703</ele>
        <time>2014-09-13T07:16:16.000Z</time>
      </trkpt>
      <trkpt lat="44.10519" lon="3.11854">
        <ele>532.59997558594</ele>
        <time>2014-09-13T07:16:18.000Z</time>
      </trkpt>
      <trkpt lat="44.10517" lon="3.11844">
        <ele>533</ele>
        <time>2014-09-13T07:16:23.000Z</time>
      </trkpt>
      <trkpt lat="44.10518" lon="3.11842">
        <ele>533.20001220703</ele>
        <time>2014-09-13T07:16:25.000Z</time>
      </trkpt>
      <trkpt lat="44.10515" lon="3.11835">
        <ele>533.79998779297</ele>
        <time>2014-09-13T07:16:28.000Z</time>
      </trkpt>
      <trkpt lat="44.10514" lon="3.11832">
        <ele>534.20001220703</ele>
        <time>2014-09-13T07:16:31.000Z</time>
      </trkpt>
      <trkpt lat="44.10514" lon="3.11829">
        <ele>534.40002441406</ele>
        <time>2014-09-13T07:16:33.000Z</time>
      </trkpt>
      <trkpt lat="44.10515" lon="3.11828">
        <ele>534.59997558594</ele>
        <time>2014-09-13T07:16:34.000Z</time>
      </trkpt>
      <trkpt lat="44.10519" lon="3.11823">
        <ele>535.20001220703</ele>
        <time>2014-09-13T07:16:38.000Z</time>
      </trkpt>
      <trkpt lat="44.10523" lon="3.11814">
        <ele>535</ele>
        <time>2014-09-13T07:16:43.000Z</time>
      </trkpt>
      <trkpt lat="44.10524" lon="3.11813">
        <ele>535.20001220703</ele>
        <time>2014-09-13T07:16:44.000Z</time>
      </trkpt>
      <trkpt lat="44.10525" lon="3.11808">
        <ele>535.59997558594</ele>
        <time>2014-09-13T07:16:48.000Z</time>
      </trkpt>
      <trkpt lat="44.10525" lon="3.11806">
        <ele>535.59997558594</ele>
        <time>2014-09-13T07:16:49.000Z</time>
      </trkpt>
      <trkpt lat="44.10522" lon="3.11796">
        <ele>536.20001220703</ele>
        <time>2014-09-13T07:16:54.000Z</time>
      </trkpt>
      <trkpt lat="44.1052" lon="3.11791">
        <ele>536.40002441406</ele>
        <time>2014-09-13T07:16:56.000Z</time>
      </trkpt>
      <trkpt lat="44.10519" lon="3.11787">
        <ele>537</ele>
        <time>2014-09-13T07:16:59.000Z</time>
      </trkpt>
      <trkpt lat="44.10518" lon="3.11785">
        <ele>537.40002441406</ele>
        <time>2014-09-13T07:17:00.000Z</time>
      </trkpt>
      <trkpt lat="44.10517" lon="3.11782">
        <ele>538.20001220703</ele>
        <time>2014-09-13T07:17:03.000Z</time>
      </trkpt>
      <trkpt lat="44.10516" lon="3.11771">
        <ele>538.40002441406</ele>
        <time>2014-09-13T07:17:06.000Z</time>
      </trkpt>
      <trkpt lat="44.10514" lon="3.11768">
        <ele>538.59997558594</ele>
        <time>2014-09-13T07:17:08.000Z</time>
      </trkpt>
      <trkpt lat="44.1051" lon="3.11765">
        <ele>538.59997558594</ele>
        <time>2014-09-13T07:17:10.000Z</time>
      </trkpt>
      <trkpt lat="44.1051" lon="3.11761">
        <ele>539.59997558594</ele>
        <time>2014-09-13T07:17:14.000Z</time>
      </trkpt>
      <trkpt lat="44.10509" lon="3.1176">
        <ele>540</ele>
        <time>2014-09-13T07:17:17.000Z</time>
      </trkpt>
      <trkpt lat="44.1051" lon="3.11752">
        <ele>540.59997558594</ele>
        <time>2014-09-13T07:17:23.000Z</time>
      </trkpt>
      <trkpt lat="44.10511" lon="3.1175">
        <ele>540.40002441406</ele>
        <time>2014-09-13T07:17:26.000Z</time>
      </trkpt>
      <trkpt lat="44.10513" lon="3.11744">
        <ele>540</ele>
        <time>2014-09-13T07:17:28.000Z</time>
      </trkpt>
      <trkpt lat="44.10514" lon="3.11741">
        <ele>539.59997558594</ele>
        <time>2014-09-13T07:17:30.000Z</time>
      </trkpt>
      <trkpt lat="44.10515" lon="3.11737">
        <ele>539</ele>
        <time>2014-09-13T07:17:32.000Z</time>
      </trkpt>
      <trkpt lat="44.10516" lon="3.1173">
        <ele>539</ele>
        <time>2014-09-13T07:17:36.000Z</time>
      </trkpt>
      <trkpt lat="44.10518" lon="3.11724">
        <ele>540.20001220703</ele>
        <time>2014-09-13T07:17:41.000Z</time>
      </trkpt>
      <trkpt lat="44.10514" lon="3.11719">
        <ele>540.20001220703</ele>
        <time>2014-09-13T07:17:44.000Z</time>
      </trkpt>
      <trkpt lat="44.1051" lon="3.11711">
        <ele>541</ele>
        <time>2014-09-13T07:17:48.000Z</time>
      </trkpt>
      <trkpt lat="44.10509" lon="3.1171">
        <ele>541.20001220703</ele>
        <time>2014-09-13T07:17:49.000Z</time>
      </trkpt>
      <trkpt lat="44.10507" lon="3.11704">
        <ele>542</ele>
        <time>2014-09-13T07:17:52.000Z</time>
      </trkpt>
      <trkpt lat="44.10505" lon="3.11702">
        <ele>542.40002441406</ele>
        <time>2014-09-13T07:17:53.000Z</time>
      </trkpt>
      <trkpt lat="44.10504" lon="3.11699">
        <ele>543.20001220703</ele>
        <time>2014-09-13T07:17:56.000Z</time>
      </trkpt>
      <trkpt lat="44.10503" lon="3.11698">
        <ele>543.40002441406</ele>
        <time>2014-09-13T07:17:57.000Z</time>
      </trkpt>
      <trkpt lat="44.10495" lon="3.1169">
        <ele>543.59997558594</ele>
        <time>2014-09-13T07:18:01.000Z</time>
      </trkpt>
      <trkpt lat="44.10492" lon="3.11686">
        <ele>544.20001220703</ele>
        <time>2014-09-13T07:18:04.000Z</time>
      </trkpt>
      <trkpt lat="44.10491" lon="3.11682">
        <ele>544.59997558594</ele>
        <time>2014-09-13T07:18:06.000Z</time>
      </trkpt>
      <trkpt lat="44.1049" lon="3.11676">
        <ele>545.40002441406</ele>
        <time>2014-09-13T07:18:08.000Z</time>
      </trkpt>
      <trkpt lat="44.1049" lon="3.11674">
        <ele>545.59997558594</ele>
        <time>2014-09-13T07:18:09.000Z</time>
      </trkpt>
      <trkpt lat="44.10494" lon="3.11671">
        <ele>546.20001220703</ele>
        <time>2014-09-13T07:18:11.000Z</time>
      </trkpt>
      <trkpt lat="44.10494" lon="3.1167">
        <ele>546.40002441406</ele>
        <time>2014-09-13T07:18:12.000Z</time>
      </trkpt>
      <trkpt lat="44.10496" lon="3.11665">
        <ele>546.59997558594</ele>
        <time>2014-09-13T07:18:16.000Z</time>
      </trkpt>
      <trkpt lat="44.10495" lon="3.11649">
        <ele>545.20001220703</ele>
        <time>2014-09-13T07:18:23.000Z</time>
      </trkpt>
      <trkpt lat="44.10494" lon="3.11643">
        <ele>545.20001220703</ele>
        <time>2014-09-13T07:18:26.000Z</time>
      </trkpt>
      <trkpt lat="44.10493" lon="3.1164">
        <ele>545.40002441406</ele>
        <time>2014-09-13T07:18:27.000Z</time>
      </trkpt>
      <trkpt lat="44.10492" lon="3.11632">
        <ele>546.20001220703</ele>
        <time>2014-09-13T07:18:31.000Z</time>
      </trkpt>
      <trkpt lat="44.10492" lon="3.11628">
        <ele>546.59997558594</ele>
        <time>2014-09-13T07:18:32.000Z</time>
      </trkpt>
      <trkpt lat="44.10491" lon="3.11617">
        <ele>547.20001220703</ele>
        <time>2014-09-13T07:18:37.000Z</time>
      </trkpt>
      <trkpt lat="44.10491" lon="3.11616">
        <ele>547.40002441406</ele>
        <time>2014-09-13T07:18:38.000Z</time>
      </trkpt>
      <trkpt lat="44.10488" lon="3.11606">
        <ele>548</ele>
        <time>2014-09-13T07:18:42.000Z</time>
      </trkpt>
      <trkpt lat="44.10488" lon="3.11603">
        <ele>548.40002441406</ele>
        <time>2014-09-13T07:18:44.000Z</time>
      </trkpt>
      <trkpt lat="44.10486" lon="3.11596">
        <ele>548.59997558594</ele>
        <time>2014-09-13T07:18:47.000Z</time>
      </trkpt>
      <trkpt lat="44.10486" lon="3.1159">
        <ele>549.79998779297</ele>
        <time>2014-09-13T07:18:50.000Z</time>
      </trkpt>
      <trkpt lat="44.10486" lon="3.11584">
        <ele>550.40002441406</ele>
        <time>2014-09-13T07:18:53.000Z</time>
      </trkpt>
      <trkpt lat="44.10485" lon="3.11584">
        <ele>551</ele>
        <time>2014-09-13T07:18:54.000Z</time>
      </trkpt>
      <trkpt lat="44.10484" lon="3.11581">
        <ele>551.79998779297</ele>
        <time>2014-09-13T07:18:56.000Z</time>
      </trkpt>
      <trkpt lat="44.10484" lon="3.1158">
        <ele>552</ele>
        <time>2014-09-13T07:18:57.000Z</time>
      </trkpt>
      <trkpt lat="44.10484" lon="3.11578">
        <ele>552.20001220703</ele>
        <time>2014-09-13T07:18:58.000Z</time>
      </trkpt>
      <trkpt lat="44.10484" lon="3.11567">
        <ele>552.79998779297</ele>
        <time>2014-09-13T07:19:03.000Z</time>
      </trkpt>
      <trkpt lat="44.10484" lon="3.11565">
        <ele>553.40002441406</ele>
        <time>2014-09-13T07:19:05.000Z</time>
      </trkpt>
      <trkpt lat="44.10485" lon="3.11557">
        <ele>554.20001220703</ele>
        <time>2014-09-13T07:19:08.000Z</time>
      </trkpt>
      <trkpt lat="44.10485" lon="3.11555">
        <ele>554.59997558594</ele>
        <time>2014-09-13T07:19:09.000Z</time>
      </trkpt>
      <trkpt lat="44.10485" lon="3.11544">
        <ele>554.79998779297</ele>
        <time>2014-09-13T07:19:13.000Z</time>
      </trkpt>
      <trkpt lat="44.10487" lon="3.11538">
        <ele>555.59997558594</ele>
        <time>2014-09-13T07:19:16.000Z</time>
      </trkpt>
      <trkpt lat="44.10487" lon="3.11539">
        <ele>555.79998779297</ele>
        <time>2014-09-13T07:19:17.000Z</time>
      </trkpt>
      <trkpt lat="44.10488" lon="3.11537">
        <ele>556.59997558594</ele>
        <time>2014-09-13T07:19:20.000Z</time>
      </trkpt>
      <trkpt lat="44.1049" lon="3.11534">
        <ele>557.40002441406</ele>
        <time>2014-09-13T07:19:23.000Z</time>
      </trkpt>
      <trkpt lat="44.1049" lon="3.11532">
        <ele>557.79998779297</ele>
        <time>2014-09-13T07:19:24.000Z</time>
      </trkpt>
      <trkpt lat="44.10492" lon="3.11527">
        <ele>558.79998779297</ele>
        <time>2014-09-13T07:19:28.000Z</time>
      </trkpt>
      <trkpt lat="44.10492" lon="3.11524">
        <ele>559.20001220703</ele>
        <time>2014-09-13T07:19:29.000Z</time>
      </trkpt>
      <trkpt lat="44.10493" lon="3.11523">
        <ele>559.79998779297</ele>
        <time>2014-09-13T07:19:32.000Z</time>
      </trkpt>
      <trkpt lat="44.10494" lon="3.11521">
        <ele>560.40002441406</ele>
        <time>2014-09-13T07:19:34.000Z</time>
      </trkpt>
      <trkpt lat="44.10494" lon="3.11519">
        <ele>560.79998779297</ele>
        <time>2014-09-13T07:19:36.000Z</time>
      </trkpt>
      <trkpt lat="44.10495" lon="3.11517">
        <ele>562</ele>
        <time>2014-09-13T07:19:39.000Z</time>
      </trkpt>
      <trkpt lat="44.10496" lon="3.11515">
        <ele>562.59997558594</ele>
        <time>2014-09-13T07:19:41.000Z</time>
      </trkpt>
      <trkpt lat="44.10497" lon="3.11514">
        <ele>563</ele>
        <time>2014-09-13T07:19:42.000Z</time>
      </trkpt>
      <trkpt lat="44.10499" lon="3.11513">
        <ele>564.20001220703</ele>
        <time>2014-09-13T07:19:46.000Z</time>
      </trkpt>
      <trkpt lat="44.105" lon="3.11511">
        <ele>565.40002441406</ele>
        <time>2014-09-13T07:19:50.000Z</time>
      </trkpt>
      <trkpt lat="44.10501" lon="3.11506">
        <ele>565.79998779297</ele>
        <time>2014-09-13T07:19:52.000Z</time>
      </trkpt>
      <trkpt lat="44.10502" lon="3.11506">
        <ele>566.40002441406</ele>
        <time>2014-09-13T07:19:54.000Z</time>
      </trkpt>
      <trkpt lat="44.10502" lon="3.11499">
        <ele>567</ele>
        <time>2014-09-13T07:19:57.000Z</time>
      </trkpt>
      <trkpt lat="44.10502" lon="3.11492">
        <ele>567.40002441406</ele>
        <time>2014-09-13T07:20:00.000Z</time>
      </trkpt>
      <trkpt lat="44.10502" lon="3.11493">
        <ele>567.59997558594</ele>
        <time>2014-09-13T07:20:01.000Z</time>
      </trkpt>
      <trkpt lat="44.10503" lon="3.11489">
        <ele>568.59997558594</ele>
        <time>2014-09-13T07:20:03.000Z</time>
      </trkpt>
      <trkpt lat="44.10504" lon="3.11486">
        <ele>569.40002441406</ele>
        <time>2014-09-13T07:20:07.000Z</time>
      </trkpt>
      <trkpt lat="44.10504" lon="3.11485">
        <ele>569.59997558594</ele>
        <time>2014-09-13T07:20:08.000Z</time>
      </trkpt>
      <trkpt lat="44.10505" lon="3.11481">
        <ele>570.59997558594</ele>
        <time>2014-09-13T07:20:12.000Z</time>
      </trkpt>
      <trkpt lat="44.10506" lon="3.1148">
        <ele>571</ele>
        <time>2014-09-13T07:20:13.000Z</time>
      </trkpt>
      <trkpt lat="44.10506" lon="3.11478">
        <ele>571.79998779297</ele>
        <time>2014-09-13T07:20:16.000Z</time>
      </trkpt>
      <trkpt lat="44.10506" lon="3.11478">
        <ele>572.40002441406</ele>
        <time>2014-09-13T07:20:18.000Z</time>
      </trkpt>
      <trkpt lat="44.10507" lon="3.11477">
        <ele>572.79998779297</ele>
        <time>2014-09-13T07:20:24.000Z</time>
      </trkpt>
      <trkpt lat="44.10508" lon="3.11477">
        <ele>572.79998779297</ele>
        <time>2014-09-13T07:20:30.000Z</time>
      </trkpt>
      <trkpt lat="44.10508" lon="3.11477">
        <ele>572.40002441406</ele>
        <time>2014-09-13T07:20:35.000Z</time>
      </trkpt>
      <trkpt lat="44.10509" lon="3.11482">
        <ele>572.59997558594</ele>
        <time>2014-09-13T07:20:38.000Z</time>
      </trkpt>
      <trkpt lat="44.10509" lon="3.11485">
        <ele>573.20001220703</ele>
        <time>2014-09-13T07:20:41.000Z</time>
      </trkpt>
      <trkpt lat="44.10509" lon="3.11487">
        <ele>574</ele>
        <time>2014-09-13T07:20:44.000Z</time>
      </trkpt>
      <trkpt lat="44.10511" lon="3.11489">
        <ele>574.20001220703</ele>
        <time>2014-09-13T07:20:45.000Z</time>
      </trkpt>
      <trkpt lat="44.10511" lon="3.11489">
        <ele>575</ele>
        <time>2014-09-13T07:20:47.000Z</time>
      </trkpt>
      <trkpt lat="44.10512" lon="3.1149">
        <ele>576.20001220703</ele>
        <time>2014-09-13T07:20:50.000Z</time>
      </trkpt>
      <trkpt lat="44.10514" lon="3.11495">
        <ele>576.79998779297</ele>
        <time>2014-09-13T07:20:55.000Z</time>
      </trkpt>
      <trkpt lat="44.10514" lon="3.11497">
        <ele>576.59997558594</ele>
        <time>2014-09-13T07:21:02.000Z</time>
      </trkpt>
      <trkpt lat="44.10516" lon="3.11501">
        <ele>577.79998779297</ele>
        <time>2014-09-13T07:21:05.000Z</time>
      </trkpt>
      <trkpt lat="44.10517" lon="3.11502">
        <ele>578.59997558594</ele>
        <time>2014-09-13T07:21:07.000Z</time>
      </trkpt>
      <trkpt lat="44.10518" lon="3.11503">
        <ele>578.79998779297</ele>
        <time>2014-09-13T07:21:09.000Z</time>
      </trkpt>
      <trkpt lat="44.10518" lon="3.11505">
        <ele>579.79998779297</ele>
        <time>2014-09-13T07:21:12.000Z</time>
      </trkpt>
      <trkpt lat="44.10519" lon="3.11508">
        <ele>580.20001220703</ele>
        <time>2014-09-13T07:21:13.000Z</time>
      </trkpt>
      <trkpt lat="44.10521" lon="3.1151">
        <ele>580.79998779297</ele>
        <time>2014-09-13T07:21:17.000Z</time>
      </trkpt>
      <trkpt lat="44.10522" lon="3.11511">
        <ele>581</ele>
        <time>2014-09-13T07:21:18.000Z</time>
      </trkpt>
      <trkpt lat="44.10524" lon="3.11513">
        <ele>582.20001220703</ele>
        <time>2014-09-13T07:21:21.000Z</time>
      </trkpt>
      <trkpt lat="44.10524" lon="3.11514">
        <ele>582.79998779297</ele>
        <time>2014-09-13T07:21:23.000Z</time>
      </trkpt>
      <trkpt lat="44.10524" lon="3.11517">
        <ele>583.20001220703</ele>
        <time>2014-09-13T07:21:25.000Z</time>
      </trkpt>
      <trkpt lat="44.10525" lon="3.11519">
        <ele>583.40002441406</ele>
        <time>2014-09-13T07:21:26.000Z</time>
      </trkpt>
      <trkpt lat="44.10524" lon="3.11518">
        <ele>583.79998779297</ele>
        <time>2014-09-13T07:21:27.000Z</time>
      </trkpt>
      <trkpt lat="44.10525" lon="3.11522">
        <ele>584.79998779297</ele>
        <time>2014-09-13T07:21:31.000Z</time>
      </trkpt>
      <trkpt lat="44.10527" lon="3.11526">
        <ele>585.59997558594</ele>
        <time>2014-09-13T07:21:35.000Z</time>
      </trkpt>
      <trkpt lat="44.10527" lon="3.11527">
        <ele>586</ele>
        <time>2014-09-13T07:21:36.000Z</time>
      </trkpt>
      <trkpt lat="44.10528" lon="3.11529">
        <ele>587.20001220703</ele>
        <time>2014-09-13T07:21:39.000Z</time>
      </trkpt>
      <trkpt lat="44.10529" lon="3.11531">
        <ele>587.20001220703</ele>
        <time>2014-09-13T07:21:40.000Z</time>
      </trkpt>
      <trkpt lat="44.10529" lon="3.11531">
        <ele>588.20001220703</ele>
        <time>2014-09-13T07:21:43.000Z</time>
      </trkpt>
      <trkpt lat="44.10529" lon="3.11531">
        <ele>588.59997558594</ele>
        <time>2014-09-13T07:21:44.000Z</time>
      </trkpt>
      <trkpt lat="44.10529" lon="3.11531">
        <ele>589.20001220703</ele>
        <time>2014-09-13T07:21:46.000Z</time>
      </trkpt>
      <trkpt lat="44.1053" lon="3.11535">
        <ele>590.40002441406</ele>
        <time>2014-09-13T07:21:50.000Z</time>
      </trkpt>
      <trkpt lat="44.10531" lon="3.11538">
        <ele>591.59997558594</ele>
        <time>2014-09-13T07:21:55.000Z</time>
      </trkpt>
      <trkpt lat="44.10531" lon="3.11539">
        <ele>592.20001220703</ele>
        <time>2014-09-13T07:21:57.000Z</time>
      </trkpt>
      <trkpt lat="44.10532" lon="3.11539">
        <ele>592.59997558594</ele>
        <time>2014-09-13T07:21:59.000Z</time>
      </trkpt>
      <trkpt lat="44.10533" lon="3.11543">
        <ele>593.40002441406</ele>
        <time>2014-09-13T07:22:02.000Z</time>
      </trkpt>
      <trkpt lat="44.10533" lon="3.11547">
        <ele>593.79998779297</ele>
        <time>2014-09-13T07:22:05.000Z</time>
      </trkpt>
      <trkpt lat="44.10533" lon="3.11548">
        <ele>593.79998779297</ele>
        <time>2014-09-13T07:22:08.000Z</time>
      </trkpt>
      <trkpt lat="44.10535" lon="3.11551">
        <ele>594.79998779297</ele>
        <time>2014-09-13T07:22:14.000Z</time>
      </trkpt>
      <trkpt lat="44.10536" lon="3.11552">
        <ele>596</ele>
        <time>2014-09-13T07:22:19.000Z</time>
      </trkpt>
      <trkpt lat="44.10536" lon="3.11552">
        <ele>596.20001220703</ele>
        <time>2014-09-13T07:22:20.000Z</time>
      </trkpt>
      <trkpt lat="44.10537" lon="3.11554">
        <ele>597.20001220703</ele>
        <time>2014-09-13T07:22:23.000Z</time>
      </trkpt>
      <trkpt lat="44.10537" lon="3.11554">
        <ele>597.59997558594</ele>
        <time>2014-09-13T07:22:25.000Z</time>
      </trkpt>
      <trkpt lat="44.10537" lon="3.11553">
        <ele>598.20001220703</ele>
        <time>2014-09-13T07:22:26.000Z</time>
      </trkpt>
      <trkpt lat="44.10537" lon="3.11553">
        <ele>598.79998779297</ele>
        <time>2014-09-13T07:22:28.000Z</time>
      </trkpt>
      <trkpt lat="44.10538" lon="3.11553">
        <ele>599.40002441406</ele>
        <time>2014-09-13T07:22:30.000Z</time>
      </trkpt>
      <trkpt lat="44.10538" lon="3.11555">
        <ele>600.20001220703</ele>
        <time>2014-09-13T07:22:33.000Z</time>
      </trkpt>
      <trkpt lat="44.10539" lon="3.11555">
        <ele>600.59997558594</ele>
        <time>2014-09-13T07:22:35.000Z</time>
      </trkpt>
      <trkpt lat="44.1054" lon="3.11556">
        <ele>601.59997558594</ele>
        <time>2014-09-13T07:22:38.000Z</time>
      </trkpt>
      <trkpt lat="44.10542" lon="3.11557">
        <ele>602</ele>
        <time>2014-09-13T07:22:39.000Z</time>
      </trkpt>
      <trkpt lat="44.10542" lon="3.11558">
        <ele>603.20001220703</ele>
        <time>2014-09-13T07:22:43.000Z</time>
      </trkpt>
      <trkpt lat="44.10544" lon="3.11559">
        <ele>604.20001220703</ele>
        <time>2014-09-13T07:22:49.000Z</time>
      </trkpt>
      <trkpt lat="44.10544" lon="3.11559">
        <ele>604.20001220703</ele>
        <time>2014-09-13T07:23:02.000Z</time>
      </trkpt>
      <trkpt lat="44.10544" lon="3.11559">
        <ele>604.40002441406</ele>
        <time>2014-09-13T07:23:08.000Z</time>
      </trkpt>
      <trkpt lat="44.10544" lon="3.11559">
        <ele>604.20001220703</ele>
        <time>2014-09-13T07:23:14.000Z</time>
      </trkpt>
      <trkpt lat="44.10544" lon="3.11559">
        <ele>604.20001220703</ele>
        <time>2014-09-13T07:23:22.000Z</time>
      </trkpt>
      <trkpt lat="44.10546" lon="3.11559">
        <ele>604.20001220703</ele>
        <time>2014-09-13T07:23:26.000Z</time>
      </trkpt>
      <trkpt lat="44.10547" lon="3.11558">
        <ele>605.20001220703</ele>
        <time>2014-09-13T07:23:29.000Z</time>
      </trkpt>
      <trkpt lat="44.10548" lon="3.11557">
        <ele>605.79998779297</ele>
        <time>2014-09-13T07:23:32.000Z</time>
      </trkpt>
      <trkpt lat="44.10549" lon="3.11557">
        <ele>606.59997558594</ele>
        <time>2014-09-13T07:23:34.000Z</time>
      </trkpt>
      <trkpt lat="44.1055" lon="3.11557">
        <ele>607.20001220703</ele>
        <time>2014-09-13T07:23:36.000Z</time>
      </trkpt>
      <trkpt lat="44.10552" lon="3.11556">
        <ele>608.20001220703</ele>
        <time>2014-09-13T07:23:38.000Z</time>
      </trkpt>
      <trkpt lat="44.10552" lon="3.11556">
        <ele>609</ele>
        <time>2014-09-13T07:23:40.000Z</time>
      </trkpt>
      <trkpt lat="44.10553" lon="3.11555">
        <ele>609.40002441406</ele>
        <time>2014-09-13T07:23:41.000Z</time>
      </trkpt>
      <trkpt lat="44.10554" lon="3.11554">
        <ele>610.20001220703</ele>
        <time>2014-09-13T07:23:44.000Z</time>
      </trkpt>
      <trkpt lat="44.10554" lon="3.11554">
        <ele>610.40002441406</ele>
        <time>2014-09-13T07:23:45.000Z</time>
      </trkpt>
      <trkpt lat="44.10555" lon="3.11554">
        <ele>611.40002441406</ele>
        <time>2014-09-13T07:23:49.000Z</time>
      </trkpt>
      <trkpt lat="44.10557" lon="3.11551">
        <ele>611.59997558594</ele>
        <time>2014-09-13T07:23:50.000Z</time>
      </trkpt>
      <trkpt lat="44.10557" lon="3.1155">
        <ele>612.59997558594</ele>
        <time>2014-09-13T07:23:53.000Z</time>
      </trkpt>
      <trkpt lat="44.10557" lon="3.1155">
        <ele>612.79998779297</ele>
        <time>2014-09-13T07:23:54.000Z</time>
      </trkpt>
      <trkpt lat="44.10559" lon="3.11549">
        <ele>614</ele>
        <time>2014-09-13T07:23:58.000Z</time>
      </trkpt>
      <trkpt lat="44.1056" lon="3.11548">
        <ele>614.20001220703</ele>
        <time>2014-09-13T07:23:59.000Z</time>
      </trkpt>
      <trkpt lat="44.1056" lon="3.11548">
        <ele>615.40002441406</ele>
        <time>2014-09-13T07:24:02.000Z</time>
      </trkpt>
      <trkpt lat="44.1056" lon="3.11548">
        <ele>616.59997558594</ele>
        <time>2014-09-13T07:24:05.000Z</time>
      </trkpt>
      <trkpt lat="44.10562" lon="3.11549">
        <ele>616.79998779297</ele>
        <time>2014-09-13T07:24:06.000Z</time>
      </trkpt>
      <trkpt lat="44.10564" lon="3.1155">
        <ele>617.40002441406</ele>
        <time>2014-09-13T07:24:09.000Z</time>
      </trkpt>
      <trkpt lat="44.10564" lon="3.1155">
        <ele>617.59997558594</ele>
        <time>2014-09-13T07:24:10.000Z</time>
      </trkpt>
      <trkpt lat="44.10565" lon="3.1155">
        <ele>618.59997558594</ele>
        <time>2014-09-13T07:24:14.000Z</time>
      </trkpt>
      <trkpt lat="44.10566" lon="3.1155">
        <ele>618.79998779297</ele>
        <time>2014-09-13T07:24:15.000Z</time>
      </trkpt>
      <trkpt lat="44.10566" lon="3.11548">
        <ele>620.40002441406</ele>
        <time>2014-09-13T07:24:20.000Z</time>
      </trkpt>
      <trkpt lat="44.10566" lon="3.11548">
        <ele>621.59997558594</ele>
        <time>2014-09-13T07:24:24.000Z</time>
      </trkpt>
      <trkpt lat="44.10566" lon="3.11548">
        <ele>621.79998779297</ele>
        <time>2014-09-13T07:24:25.000Z</time>
      </trkpt>
      <trkpt lat="44.10567" lon="3.11548">
        <ele>622.59997558594</ele>
        <time>2014-09-13T07:24:28.000Z</time>
      </trkpt>
      <trkpt lat="44.10569" lon="3.11546">
        <ele>623.40002441406</ele>
        <time>2014-09-13T07:24:31.000Z</time>
      </trkpt>
      <trkpt lat="44.10569" lon="3.11544">
        <ele>623.79998779297</ele>
        <time>2014-09-13T07:24:33.000Z</time>
      </trkpt>
      <trkpt lat="44.1057" lon="3.11541">
        <ele>624.59997558594</ele>
        <time>2014-09-13T07:24:36.000Z</time>
      </trkpt>
      <trkpt lat="44.1057" lon="3.11541">
        <ele>624.79998779297</ele>
        <time>2014-09-13T07:24:37.000Z</time>
      </trkpt>
      <trkpt lat="44.10571" lon="3.11539">
        <ele>625</ele>
        <time>2014-09-13T07:24:41.000Z</time>
      </trkpt>
      <trkpt lat="44.10573" lon="3.11533">
        <ele>625</ele>
        <time>2014-09-13T07:24:47.000Z</time>
      </trkpt>
      <trkpt lat="44.10573" lon="3.11527">
        <ele>625.40002441406</ele>
        <time>2014-09-13T07:24:52.000Z</time>
      </trkpt>
      <trkpt lat="44.10573" lon="3.11524">
        <ele>625.20001220703</ele>
        <time>2014-09-13T07:24:53.000Z</time>
      </trkpt>
      <trkpt lat="44.10574" lon="3.1152">
        <ele>625.79998779297</ele>
        <time>2014-09-13T07:24:58.000Z</time>
      </trkpt>
      <trkpt lat="44.10575" lon="3.11518">
        <ele>625.79998779297</ele>
        <time>2014-09-13T07:24:59.000Z</time>
      </trkpt>
      <trkpt lat="44.10576" lon="3.11515">
        <ele>626</ele>
        <time>2014-09-13T07:25:02.000Z</time>
      </trkpt>
      <trkpt lat="44.10577" lon="3.11513">
        <ele>626</ele>
        <time>2014-09-13T07:25:03.000Z</time>
      </trkpt>
      <trkpt lat="44.10582" lon="3.11509">
        <ele>627</ele>
        <time>2014-09-13T07:25:09.000Z</time>
      </trkpt>
      <trkpt lat="44.10582" lon="3.11509">
        <ele>628.20001220703</ele>
        <time>2014-09-13T07:25:13.000Z</time>
      </trkpt>
      <trkpt lat="44.10583" lon="3.11508">
        <ele>627.59997558594</ele>
        <time>2014-09-13T07:25:16.000Z</time>
      </trkpt>
      <trkpt lat="44.10584" lon="3.11505">
        <ele>626.79998779297</ele>
        <time>2014-09-13T07:25:22.000Z</time>
      </trkpt>
      <trkpt lat="44.10585" lon="3.11503">
        <ele>626.59997558594</ele>
        <time>2014-09-13T07:25:24.000Z</time>
      </trkpt>
      <trkpt lat="44.10587" lon="3.11502">
        <ele>627.79998779297</ele>
        <time>2014-09-13T07:25:29.000Z</time>
      </trkpt>
      <trkpt lat="44.10587" lon="3.11502">
        <ele>628.20001220703</ele>
        <time>2014-09-13T07:25:31.000Z</time>
      </trkpt>
      <trkpt lat="44.10588" lon="3.11501">
        <ele>628.79998779297</ele>
        <time>2014-09-13T07:25:35.000Z</time>
      </trkpt>
      <trkpt lat="44.10588" lon="3.11501">
        <ele>629.79998779297</ele>
        <time>2014-09-13T07:25:39.000Z</time>
      </trkpt>
      <trkpt lat="44.1059" lon="3.115">
        <ele>631.20001220703</ele>
        <time>2014-09-13T07:25:45.000Z</time>
      </trkpt>
      <trkpt lat="44.1059" lon="3.115">
        <ele>631.40002441406</ele>
        <time>2014-09-13T07:25:46.000Z</time>
      </trkpt>
      <trkpt lat="44.1059" lon="3.11499">
        <ele>631.59997558594</ele>
        <time>2014-09-13T07:25:48.000Z</time>
      </trkpt>
      <trkpt lat="44.10593" lon="3.11502">
        <ele>631.40002441406</ele>
        <time>2014-09-13T07:25:51.000Z</time>
      </trkpt>
      <trkpt lat="44.10594" lon="3.11502">
        <ele>632.59997558594</ele>
        <time>2014-09-13T07:25:56.000Z</time>
      </trkpt>
      <trkpt lat="44.10595" lon="3.11503">
        <ele>632.79998779297</ele>
        <time>2014-09-13T07:25:57.000Z</time>
      </trkpt>
      <trkpt lat="44.10596" lon="3.11505">
        <ele>633.59997558594</ele>
        <time>2014-09-13T07:26:01.000Z</time>
      </trkpt>
      <trkpt lat="44.10596" lon="3.11504">
        <ele>633.79998779297</ele>
        <time>2014-09-13T07:26:02.000Z</time>
      </trkpt>
      <trkpt lat="44.10597" lon="3.11506">
        <ele>634.79998779297</ele>
        <time>2014-09-13T07:26:05.000Z</time>
      </trkpt>
      <trkpt lat="44.10597" lon="3.11506">
        <ele>635.40002441406</ele>
        <time>2014-09-13T07:26:07.000Z</time>
      </trkpt>
      <trkpt lat="44.10598" lon="3.11509">
        <ele>636</ele>
        <time>2014-09-13T07:26:09.000Z</time>
      </trkpt>
      <trkpt lat="44.10599" lon="3.1151">
        <ele>636.59997558594</ele>
        <time>2014-09-13T07:26:12.000Z</time>
      </trkpt>
      <trkpt lat="44.10599" lon="3.1151">
        <ele>637.20001220703</ele>
        <time>2014-09-13T07:26:15.000Z</time>
      </trkpt>
      <trkpt lat="44.106" lon="3.11511">
        <ele>637.59997558594</ele>
        <time>2014-09-13T07:26:17.000Z</time>
      </trkpt>
      <trkpt lat="44.106" lon="3.11511">
        <ele>638.40002441406</ele>
        <time>2014-09-13T07:26:20.000Z</time>
      </trkpt>
      <trkpt lat="44.106" lon="3.11511">
        <ele>639</ele>
        <time>2014-09-13T07:26:23.000Z</time>
      </trkpt>
      <trkpt lat="44.106" lon="3.11512">
        <ele>639.59997558594</ele>
        <time>2014-09-13T07:26:27.000Z</time>
      </trkpt>
      <trkpt lat="44.10602" lon="3.11511">
        <ele>639.79998779297</ele>
        <time>2014-09-13T07:26:28.000Z</time>
      </trkpt>
      <trkpt lat="44.10604" lon="3.11513">
        <ele>640.79998779297</ele>
        <time>2014-09-13T07:26:33.000Z</time>
      </trkpt>
      <trkpt lat="44.10604" lon="3.11515">
        <ele>641</ele>
        <time>2014-09-13T07:26:35.000Z</time>
      </trkpt>
      <trkpt lat="44.10604" lon="3.11517">
        <ele>642</ele>
        <time>2014-09-13T07:26:42.000Z</time>
      </trkpt>
      <trkpt lat="44.10604" lon="3.11517">
        <ele>642</ele>
        <time>2014-09-13T07:26:43.000Z</time>
      </trkpt>
      <trkpt lat="44.10605" lon="3.11518">
        <ele>643</ele>
        <time>2014-09-13T07:26:47.000Z</time>
      </trkpt>
      <trkpt lat="44.10606" lon="3.11519">
        <ele>643.59997558594</ele>
        <time>2014-09-13T07:26:51.000Z</time>
      </trkpt>
      <trkpt lat="44.10606" lon="3.11519">
        <ele>644.20001220703</ele>
        <time>2014-09-13T07:26:53.000Z</time>
      </trkpt>
      <trkpt lat="44.10606" lon="3.11519">
        <ele>645</ele>
        <time>2014-09-13T07:26:56.000Z</time>
      </trkpt>
      <trkpt lat="44.10607" lon="3.1152">
        <ele>645.20001220703</ele>
        <time>2014-09-13T07:26:57.000Z</time>
      </trkpt>
      <trkpt lat="44.10607" lon="3.11521">
        <ele>645.59997558594</ele>
        <time>2014-09-13T07:27:01.000Z</time>
      </trkpt>
      <trkpt lat="44.10609" lon="3.11523">
        <ele>646.20001220703</ele>
        <time>2014-09-13T07:27:05.000Z</time>
      </trkpt>
      <trkpt lat="44.1061" lon="3.11524">
        <ele>646.79998779297</ele>
        <time>2014-09-13T07:27:07.000Z</time>
      </trkpt>
      <trkpt lat="44.1061" lon="3.11524">
        <ele>647.40002441406</ele>
        <time>2014-09-13T07:27:09.000Z</time>
      </trkpt>
      <trkpt lat="44.1061" lon="3.11524">
        <ele>648.40002441406</ele>
        <time>2014-09-13T07:27:15.000Z</time>
      </trkpt>
      <trkpt lat="44.1061" lon="3.11524">
        <ele>648.79998779297</ele>
        <time>2014-09-13T07:27:16.000Z</time>
      </trkpt>
      <trkpt lat="44.10611" lon="3.11524">
        <ele>649.59997558594</ele>
        <time>2014-09-13T07:27:20.000Z</time>
      </trkpt>
      <trkpt lat="44.10611" lon="3.11524">
        <ele>649.79998779297</ele>
        <time>2014-09-13T07:27:23.000Z</time>
      </trkpt>
      <trkpt lat="44.10612" lon="3.11525">
        <ele>650.79998779297</ele>
        <time>2014-09-13T07:27:29.000Z</time>
      </trkpt>
      <trkpt lat="44.10613" lon="3.11525">
        <ele>651</ele>
        <time>2014-09-13T07:27:30.000Z</time>
      </trkpt>
      <trkpt lat="44.10614" lon="3.11526">
        <ele>652</ele>
        <time>2014-09-13T07:27:33.000Z</time>
      </trkpt>
      <trkpt lat="44.10614" lon="3.11529">
        <ele>652.59997558594</ele>
        <time>2014-09-13T07:27:39.000Z</time>
      </trkpt>
      <trkpt lat="44.10614" lon="3.11529">
        <ele>653.40002441406</ele>
        <time>2014-09-13T07:27:41.000Z</time>
      </trkpt>
      <trkpt lat="44.10616" lon="3.1153">
        <ele>654.40002441406</ele>
        <time>2014-09-13T07:27:44.000Z</time>
      </trkpt>
      <trkpt lat="44.10617" lon="3.11531">
        <ele>655.40002441406</ele>
        <time>2014-09-13T07:27:50.000Z</time>
      </trkpt>
      <trkpt lat="44.10617" lon="3.11531">
        <ele>655.40002441406</ele>
        <time>2014-09-13T07:27:51.000Z</time>
      </trkpt>
      <trkpt lat="44.10617" lon="3.11531">
        <ele>656.59997558594</ele>
        <time>2014-09-13T07:27:57.000Z</time>
      </trkpt>
      <trkpt lat="44.10617" lon="3.11531">
        <ele>656.59997558594</ele>
        <time>2014-09-13T07:27:58.000Z</time>
      </trkpt>
      <trkpt lat="44.10618" lon="3.11531">
        <ele>658.20001220703</ele>
        <time>2014-09-13T07:28:03.000Z</time>
      </trkpt>
      <trkpt lat="44.10618" lon="3.11531">
        <ele>658.20001220703</ele>
        <time>2014-09-13T07:28:05.000Z</time>
      </trkpt>
      <trkpt lat="44.10618" lon="3.11531">
        <ele>659.20001220703</ele>
        <time>2014-09-13T07:28:09.000Z</time>
      </trkpt>
      <trkpt lat="44.10617" lon="3.11533">
        <ele>659.79998779297</ele>
        <time>2014-09-13T07:28:13.000Z</time>
      </trkpt>
      <trkpt lat="44.10617" lon="3.11533">
        <ele>660.40002441406</ele>
        <time>2014-09-13T07:28:16.000Z</time>
      </trkpt>
      <trkpt lat="44.10617" lon="3.11533">
        <ele>661</ele>
        <time>2014-09-13T07:28:21.000Z</time>
      </trkpt>
      <trkpt lat="44.10617" lon="3.11533">
        <ele>661.40002441406</ele>
        <time>2014-09-13T07:28:23.000Z</time>
      </trkpt>
      <trkpt lat="44.10617" lon="3.11532">
        <ele>662.40002441406</ele>
        <time>2014-09-13T07:28:26.000Z</time>
      </trkpt>
      <trkpt lat="44.10616" lon="3.11531">
        <ele>663</ele>
        <time>2014-09-13T07:28:28.000Z</time>
      </trkpt>
      <trkpt lat="44.10615" lon="3.11531">
        <ele>663.59997558594</ele>
        <time>2014-09-13T07:28:30.000Z</time>
      </trkpt>
      <trkpt lat="44.10613" lon="3.11533">
        <ele>664.40002441406</ele>
        <time>2014-09-13T07:28:34.000Z</time>
      </trkpt>
      <trkpt lat="44.10612" lon="3.11534">
        <ele>664.59997558594</ele>
        <time>2014-09-13T07:28:35.000Z</time>
      </trkpt>
      <trkpt lat="44.1061" lon="3.11537">
        <ele>665.79998779297</ele>
        <time>2014-09-13T07:28:39.000Z</time>
      </trkpt>
      <trkpt lat="44.1061" lon="3.11536">
        <ele>665.79998779297</ele>
        <time>2014-09-13T07:28:40.000Z</time>
      </trkpt>
      <trkpt lat="44.10609" lon="3.11538">
        <ele>666.79998779297</ele>
        <time>2014-09-13T07:28:43.000Z</time>
      </trkpt>
      <trkpt lat="44.1061" lon="3.1154">
        <ele>667.79998779297</ele>
        <time>2014-09-13T07:28:46.000Z</time>
      </trkpt>
      <trkpt lat="44.1061" lon="3.1154">
        <ele>668.20001220703</ele>
        <time>2014-09-13T07:28:47.000Z</time>
      </trkpt>
      <trkpt lat="44.10611" lon="3.11543">
        <ele>669.59997558594</ele>
        <time>2014-09-13T07:28:51.000Z</time>
      </trkpt>
      <trkpt lat="44.10612" lon="3.11544">
        <ele>669.59997558594</ele>
        <time>2014-09-13T07:28:52.000Z</time>
      </trkpt>
      <trkpt lat="44.10612" lon="3.11545">
        <ele>670</ele>
        <time>2014-09-13T07:28:57.000Z</time>
      </trkpt>
      <trkpt lat="44.10612" lon="3.11545">
        <ele>670.20001220703</ele>
        <time>2014-09-13T07:29:09.000Z</time>
      </trkpt>
      <trkpt lat="44.10611" lon="3.11545">
        <ele>669.79998779297</ele>
        <time>2014-09-13T07:29:20.000Z</time>
      </trkpt>
      <trkpt lat="44.10611" lon="3.11545">
        <ele>670</ele>
        <time>2014-09-13T07:29:31.000Z</time>
      </trkpt>
      <trkpt lat="44.10611" lon="3.11545">
        <ele>670.20001220703</ele>
        <time>2014-09-13T07:29:42.000Z</time>
      </trkpt>
      <trkpt lat="44.10612" lon="3.11545">
        <ele>669.79998779297</ele>
        <time>2014-09-13T07:29:50.000Z</time>
      </trkpt>
      <trkpt lat="44.10611" lon="3.11545">
        <ele>670</ele>
        <time>2014-09-13T07:30:04.000Z</time>
      </trkpt>
      <trkpt lat="44.10611" lon="3.11545">
        <ele>669.40002441406</ele>
        <time>2014-09-13T07:30:14.000Z</time>
      </trkpt>
      <trkpt lat="44.10611" lon="3.11545">
        <ele>669.59997558594</ele>
        <time>2014-09-13T07:30:28.000Z</time>
      </trkpt>
      <trkpt lat="44.1061" lon="3.11545">
        <ele>669.79998779297</ele>
        <time>2014-09-13T07:30:36.000Z</time>
      </trkpt>
      <trkpt lat="44.10611" lon="3.11545">
        <ele>669.59997558594</ele>
        <time>2014-09-13T07:30:46.000Z</time>
      </trkpt>
      <trkpt lat="44.10611" lon="3.11545">
        <ele>670.20001220703</ele>
        <time>2014-09-13T07:30:56.000Z</time>
      </trkpt>
      <trkpt lat="44.1061" lon="3.11545">
        <ele>669.79998779297</ele>
        <time>2014-09-13T07:31:04.000Z</time>
      </trkpt>
      <trkpt lat="44.10604" lon="3.11549">
        <ele>669.59997558594</ele>
        <time>2014-09-13T07:31:10.000Z</time>
      </trkpt>
      <trkpt lat="44.10601" lon="3.11554">
        <ele>669.20001220703</ele>
        <time>2014-09-13T07:31:13.000Z</time>
      </trkpt>
      <trkpt lat="44.106" lon="3.11561">
        <ele>670.40002441406</ele>
        <time>2014-09-13T07:31:17.000Z</time>
      </trkpt>
      <trkpt lat="44.106" lon="3.1156">
        <ele>670.59997558594</ele>
        <time>2014-09-13T07:31:18.000Z</time>
      </trkpt>
      <trkpt lat="44.10599" lon="3.11568">
        <ele>671.59997558594</ele>
        <time>2014-09-13T07:31:22.000Z</time>
      </trkpt>
      <trkpt lat="44.10599" lon="3.11566">
        <ele>672</ele>
        <time>2014-09-13T07:31:23.000Z</time>
      </trkpt>
      <trkpt lat="44.106" lon="3.11568">
        <ele>672.79998779297</ele>
        <time>2014-09-13T07:31:26.000Z</time>
      </trkpt>
      <trkpt lat="44.106" lon="3.11569">
        <ele>673.59997558594</ele>
        <time>2014-09-13T07:31:30.000Z</time>
      </trkpt>
      <trkpt lat="44.106" lon="3.11569">
        <ele>674</ele>
        <time>2014-09-13T07:31:31.000Z</time>
      </trkpt>
      <trkpt lat="44.10598" lon="3.11573">
        <ele>674.59997558594</ele>
        <time>2014-09-13T07:31:33.000Z</time>
      </trkpt>
      <trkpt lat="44.10597" lon="3.11574">
        <ele>674.79998779297</ele>
        <time>2014-09-13T07:31:34.000Z</time>
      </trkpt>
      <trkpt lat="44.10591" lon="3.11583">
        <ele>674.59997558594</ele>
        <time>2014-09-13T07:31:39.000Z</time>
      </trkpt>
      <trkpt lat="44.10588" lon="3.11588">
        <ele>674.40002441406</ele>
        <time>2014-09-13T07:31:42.000Z</time>
      </trkpt>
      <trkpt lat="44.10588" lon="3.11587">
        <ele>674.59997558594</ele>
        <time>2014-09-13T07:31:43.000Z</time>
      </trkpt>
      <trkpt lat="44.10589" lon="3.11588">
        <ele>675.20001220703</ele>
        <time>2014-09-13T07:31:45.000Z</time>
      </trkpt>
      <trkpt lat="44.10591" lon="3.11593">
        <ele>675.59997558594</ele>
        <time>2014-09-13T07:31:48.000Z</time>
      </trkpt>
      <trkpt lat="44.10592" lon="3.11593">
        <ele>676.20001220703</ele>
        <time>2014-09-13T07:31:51.000Z</time>
      </trkpt>
      <trkpt lat="44.10595" lon="3.11595">
        <ele>677.40002441406</ele>
        <time>2014-09-13T07:31:55.000Z</time>
      </trkpt>
      <trkpt lat="44.10597" lon="3.11597">
        <ele>678.20001220703</ele>
        <time>2014-09-13T07:32:00.000Z</time>
      </trkpt>
      <trkpt lat="44.10601" lon="3.11597">
        <ele>678.59997558594</ele>
        <time>2014-09-13T07:32:03.000Z</time>
      </trkpt>
      <trkpt lat="44.10601" lon="3.11597">
        <ele>679.20001220703</ele>
        <time>2014-09-13T07:32:05.000Z</time>
      </trkpt>
      <trkpt lat="44.10602" lon="3.11597">
        <ele>680</ele>
        <time>2014-09-13T07:32:08.000Z</time>
      </trkpt>
      <trkpt lat="44.10603" lon="3.11596">
        <ele>680.79998779297</ele>
        <time>2014-09-13T07:32:11.000Z</time>
      </trkpt>
      <trkpt lat="44.10604" lon="3.11596">
        <ele>681</ele>
        <time>2014-09-13T07:32:12.000Z</time>
      </trkpt>
      <trkpt lat="44.10608" lon="3.11596">
        <ele>681.40002441406</ele>
        <time>2014-09-13T07:32:14.000Z</time>
      </trkpt>
      <trkpt lat="44.1061" lon="3.11595">
        <ele>681.40002441406</ele>
        <time>2014-09-13T07:32:16.000Z</time>
      </trkpt>
      <trkpt lat="44.10611" lon="3.11595">
        <ele>682.20001220703</ele>
        <time>2014-09-13T07:32:19.000Z</time>
      </trkpt>
      <trkpt lat="44.10614" lon="3.11596">
        <ele>682.59997558594</ele>
        <time>2014-09-13T07:32:21.000Z</time>
      </trkpt>
      <trkpt lat="44.10616" lon="3.11596">
        <ele>683.20001220703</ele>
        <time>2014-09-13T07:32:24.000Z</time>
      </trkpt>
      <trkpt lat="44.10619" lon="3.11593">
        <ele>684.59997558594</ele>
        <time>2014-09-13T07:32:28.000Z</time>
      </trkpt>
      <trkpt lat="44.10622" lon="3.1159">
        <ele>685.20001220703</ele>
        <time>2014-09-13T07:32:32.000Z</time>
      </trkpt>
      <trkpt lat="44.10622" lon="3.1159">
        <ele>685.79998779297</ele>
        <time>2014-09-13T07:32:34.000Z</time>
      </trkpt>
      <trkpt lat="44.10625" lon="3.11589">
        <ele>686.20001220703</ele>
        <time>2014-09-13T07:32:36.000Z</time>
      </trkpt>
      <trkpt lat="44.10626" lon="3.11587">
        <ele>687</ele>
        <time>2014-09-13T07:32:39.000Z</time>
      </trkpt>
      <trkpt lat="44.10631" lon="3.11585">
        <ele>688</ele>
        <time>2014-09-13T07:32:44.000Z</time>
      </trkpt>
      <trkpt lat="44.10631" lon="3.11585">
        <ele>688.20001220703</ele>
        <time>2014-09-13T07:32:45.000Z</time>
      </trkpt>
      <trkpt lat="44.10632" lon="3.11585">
        <ele>689.20001220703</ele>
        <time>2014-09-13T07:32:48.000Z</time>
      </trkpt>
      <trkpt lat="44.10635" lon="3.11587">
        <ele>690</ele>
        <time>2014-09-13T07:32:51.000Z</time>
      </trkpt>
      <trkpt lat="44.10636" lon="3.11588">
        <ele>690.40002441406</ele>
        <time>2014-09-13T07:32:53.000Z</time>
      </trkpt>
      <trkpt lat="44.10639" lon="3.11588">
        <ele>691.59997558594</ele>
        <time>2014-09-13T07:32:57.000Z</time>
      </trkpt>
      <trkpt lat="44.10642" lon="3.11587">
        <ele>691.79998779297</ele>
        <time>2014-09-13T07:32:59.000Z</time>
      </trkpt>
      <trkpt lat="44.10645" lon="3.11588">
        <ele>692.59997558594</ele>
        <time>2014-09-13T07:33:02.000Z</time>
      </trkpt>
      <trkpt lat="44.10645" lon="3.11588">
        <ele>693.59997558594</ele>
        <time>2014-09-13T07:33:04.000Z</time>
      </trkpt>
      <trkpt lat="44.10646" lon="3.11588">
        <ele>693.79998779297</ele>
        <time>2014-09-13T07:33:05.000Z</time>
      </trkpt>
      <trkpt lat="44.10648" lon="3.11589">
        <ele>694.79998779297</ele>
        <time>2014-09-13T07:33:10.000Z</time>
      </trkpt>
      <trkpt lat="44.1065" lon="3.11587">
        <ele>696</ele>
        <time>2014-09-13T07:33:14.000Z</time>
      </trkpt>
      <trkpt lat="44.10652" lon="3.11585">
        <ele>696.40002441406</ele>
        <time>2014-09-13T07:33:17.000Z</time>
      </trkpt>
      <trkpt lat="44.10654" lon="3.11584">
        <ele>697.20001220703</ele>
        <time>2014-09-13T07:33:20.000Z</time>
      </trkpt>
      <trkpt lat="44.10655" lon="3.11585">
        <ele>697.59997558594</ele>
        <time>2014-09-13T07:33:22.000Z</time>
      </trkpt>
      <trkpt lat="44.10659" lon="3.11587">
        <ele>698.40002441406</ele>
        <time>2014-09-13T07:33:25.000Z</time>
      </trkpt>
      <trkpt lat="44.1066" lon="3.11587">
        <ele>699.20001220703</ele>
        <time>2014-09-13T07:33:29.000Z</time>
      </trkpt>
      <trkpt lat="44.1066" lon="3.11587">
        <ele>699.59997558594</ele>
        <time>2014-09-13T07:33:30.000Z</time>
      </trkpt>
      <trkpt lat="44.10662" lon="3.11587">
        <ele>700.59997558594</ele>
        <time>2014-09-13T07:33:34.000Z</time>
      </trkpt>
      <trkpt lat="44.10662" lon="3.11587">
        <ele>700.79998779297</ele>
        <time>2014-09-13T07:33:35.000Z</time>
      </trkpt>
      <trkpt lat="44.10664" lon="3.11586">
        <ele>701.79998779297</ele>
        <time>2014-09-13T07:33:40.000Z</time>
      </trkpt>
      <trkpt lat="44.10665" lon="3.11585">
        <ele>702</ele>
        <time>2014-09-13T07:33:41.000Z</time>
      </trkpt>
      <trkpt lat="44.10667" lon="3.11583">
        <ele>703</ele>
        <time>2014-09-13T07:33:45.000Z</time>
      </trkpt>
      <trkpt lat="44.10668" lon="3.11584">
        <ele>703.40002441406</ele>
        <time>2014-09-13T07:33:46.000Z</time>
      </trkpt>
      <trkpt lat="44.1067" lon="3.11585">
        <ele>704.20001220703</ele>
        <time>2014-09-13T07:33:49.000Z</time>
      </trkpt>
      <trkpt lat="44.1067" lon="3.11585">
        <ele>705</ele>
        <time>2014-09-13T07:33:54.000Z</time>
      </trkpt>
      <trkpt lat="44.1067" lon="3.11585">
        <ele>705.20001220703</ele>
        <time>2014-09-13T07:33:56.000Z</time>
      </trkpt>
      <trkpt lat="44.10672" lon="3.11589">
        <ele>705.40002441406</ele>
        <time>2014-09-13T07:33:59.000Z</time>
      </trkpt>
      <trkpt lat="44.10673" lon="3.11589">
        <ele>705.59997558594</ele>
        <time>2014-09-13T07:34:00.000Z</time>
      </trkpt>
      <trkpt lat="44.10674" lon="3.11589">
        <ele>706.40002441406</ele>
        <time>2014-09-13T07:34:02.000Z</time>
      </trkpt>
      <trkpt lat="44.10675" lon="3.11592">
        <ele>707.40002441406</ele>
        <time>2014-09-13T07:34:05.000Z</time>
      </trkpt>
      <trkpt lat="44.10677" lon="3.11595">
        <ele>708.20001220703</ele>
        <time>2014-09-13T07:34:08.000Z</time>
      </trkpt>
      <trkpt lat="44.10678" lon="3.11595">
        <ele>708.40002441406</ele>
        <time>2014-09-13T07:34:11.000Z</time>
      </trkpt>
      <trkpt lat="44.10678" lon="3.11595">
        <ele>708.79998779297</ele>
        <time>2014-09-13T07:34:12.000Z</time>
      </trkpt>
      <trkpt lat="44.1068" lon="3.11594">
        <ele>710</ele>
        <time>2014-09-13T07:34:16.000Z</time>
      </trkpt>
      <trkpt lat="44.10681" lon="3.11594">
        <ele>710.20001220703</ele>
        <time>2014-09-13T07:34:17.000Z</time>
      </trkpt>
      <trkpt lat="44.10682" lon="3.11594">
        <ele>711.20001220703</ele>
        <time>2014-09-13T07:34:20.000Z</time>
      </trkpt>
      <trkpt lat="44.10683" lon="3.11592">
        <ele>711.79998779297</ele>
        <time>2014-09-13T07:34:23.000Z</time>
      </trkpt>
      <trkpt lat="44.10684" lon="3.11591">
        <ele>712.20001220703</ele>
        <time>2014-09-13T07:34:25.000Z</time>
      </trkpt>
      <trkpt lat="44.10684" lon="3.11591">
        <ele>713.40002441406</ele>
        <time>2014-09-13T07:34:27.000Z</time>
      </trkpt>
      <trkpt lat="44.10686" lon="3.11594">
        <ele>714</ele>
        <time>2014-09-13T07:34:29.000Z</time>
      </trkpt>
      <trkpt lat="44.10687" lon="3.11594">
        <ele>714.59997558594</ele>
        <time>2014-09-13T07:34:31.000Z</time>
      </trkpt>
      <trkpt lat="44.10688" lon="3.11598">
        <ele>715</ele>
        <time>2014-09-13T07:34:34.000Z</time>
      </trkpt>
      <trkpt lat="44.10689" lon="3.11597">
        <ele>715.59997558594</ele>
        <time>2014-09-13T07:34:38.000Z</time>
      </trkpt>
      <trkpt lat="44.10691" lon="3.11597">
        <ele>716.79998779297</ele>
        <time>2014-09-13T07:34:42.000Z</time>
      </trkpt>
      <trkpt lat="44.10692" lon="3.11598">
        <ele>717.20001220703</ele>
        <time>2014-09-13T07:34:43.000Z</time>
      </trkpt>
      <trkpt lat="44.10694" lon="3.11598">
        <ele>717.40002441406</ele>
        <time>2014-09-13T07:34:44.000Z</time>
      </trkpt>
      <trkpt lat="44.10694" lon="3.11599">
        <ele>718</ele>
        <time>2014-09-13T07:34:46.000Z</time>
      </trkpt>
      <trkpt lat="44.10695" lon="3.116">
        <ele>718.40002441406</ele>
        <time>2014-09-13T07:34:48.000Z</time>
      </trkpt>
      <trkpt lat="44.10699" lon="3.11602">
        <ele>719</ele>
        <time>2014-09-13T07:34:50.000Z</time>
      </trkpt>
      <trkpt lat="44.10699" lon="3.11602">
        <ele>719.79998779297</ele>
        <time>2014-09-13T07:34:52.000Z</time>
      </trkpt>
      <trkpt lat="44.10701" lon="3.11601">
        <ele>720.20001220703</ele>
        <time>2014-09-13T07:34:53.000Z</time>
      </trkpt>
      <trkpt lat="44.107" lon="3.11601">
        <ele>721</ele>
        <time>2014-09-13T07:34:56.000Z</time>
      </trkpt>
      <trkpt lat="44.10701" lon="3.11601">
        <ele>721.20001220703</ele>
        <time>2014-09-13T07:34:57.000Z</time>
      </trkpt>
      <trkpt lat="44.10703" lon="3.116">
        <ele>722.40002441406</ele>
        <time>2014-09-13T07:35:00.000Z</time>
      </trkpt>
      <trkpt lat="44.10702" lon="3.11601">
        <ele>722.59997558594</ele>
        <time>2014-09-13T07:35:01.000Z</time>
      </trkpt>
      <trkpt lat="44.10704" lon="3.116">
        <ele>723.59997558594</ele>
        <time>2014-09-13T07:35:04.000Z</time>
      </trkpt>
      <trkpt lat="44.10707" lon="3.11599">
        <ele>724</ele>
        <time>2014-09-13T07:35:06.000Z</time>
      </trkpt>
      <trkpt lat="44.10708" lon="3.11598">
        <ele>724.20001220703</ele>
        <time>2014-09-13T07:35:07.000Z</time>
      </trkpt>
      <trkpt lat="44.10707" lon="3.11598">
        <ele>724.59997558594</ele>
        <time>2014-09-13T07:35:09.000Z</time>
      </trkpt>
      <trkpt lat="44.10709" lon="3.11598">
        <ele>725.20001220703</ele>
        <time>2014-09-13T07:35:12.000Z</time>
      </trkpt>
      <trkpt lat="44.10711" lon="3.11598">
        <ele>726.20001220703</ele>
        <time>2014-09-13T07:35:15.000Z</time>
      </trkpt>
      <trkpt lat="44.10713" lon="3.11598">
        <ele>727</ele>
        <time>2014-09-13T07:35:18.000Z</time>
      </trkpt>
      <trkpt lat="44.10715" lon="3.11598">
        <ele>727.40002441406</ele>
        <time>2014-09-13T07:35:19.000Z</time>
      </trkpt>
      <trkpt lat="44.10717" lon="3.11596">
        <ele>728.20001220703</ele>
        <time>2014-09-13T07:35:24.000Z</time>
      </trkpt>
      <trkpt lat="44.10717" lon="3.11596">
        <ele>728.40002441406</ele>
        <time>2014-09-13T07:35:26.000Z</time>
      </trkpt>
      <trkpt lat="44.10719" lon="3.11595">
        <ele>728.59997558594</ele>
        <time>2014-09-13T07:35:28.000Z</time>
      </trkpt>
      <trkpt lat="44.1072" lon="3.11597">
        <ele>729.40002441406</ele>
        <time>2014-09-13T07:35:30.000Z</time>
      </trkpt>
      <trkpt lat="44.10719" lon="3.116">
        <ele>729.79998779297</ele>
        <time>2014-09-13T07:35:31.000Z</time>
      </trkpt>
      <trkpt lat="44.10719" lon="3.11599">
        <ele>730.20001220703</ele>
        <time>2014-09-13T07:35:33.000Z</time>
      </trkpt>
      <trkpt lat="44.10715" lon="3.11609">
        <ele>729.79998779297</ele>
        <time>2014-09-13T07:35:39.000Z</time>
      </trkpt>
      <trkpt lat="44.10716" lon="3.1161">
        <ele>729.79998779297</ele>
        <time>2014-09-13T07:35:40.000Z</time>
      </trkpt>
      <trkpt lat="44.10716" lon="3.11612">
        <ele>730.40002441406</ele>
        <time>2014-09-13T07:35:46.000Z</time>
      </trkpt>
      <trkpt lat="44.10716" lon="3.11612">
        <ele>730.40002441406</ele>
        <time>2014-09-13T07:35:47.000Z</time>
      </trkpt>
      <trkpt lat="44.10716" lon="3.11612">
        <ele>730.79998779297</ele>
        <time>2014-09-13T07:35:55.000Z</time>
      </trkpt>
      <trkpt lat="44.10716" lon="3.11611">
        <ele>730.79998779297</ele>
        <time>2014-09-13T07:36:03.000Z</time>
      </trkpt>
      <trkpt lat="44.10718" lon="3.11613">
        <ele>731.40002441406</ele>
        <time>2014-09-13T07:36:08.000Z</time>
      </trkpt>
      <trkpt lat="44.10719" lon="3.11614">
        <ele>731.59997558594</ele>
        <time>2014-09-13T07:36:09.000Z</time>
      </trkpt>
      <trkpt lat="44.1072" lon="3.11616">
        <ele>731.79998779297</ele>
        <time>2014-09-13T07:36:10.000Z</time>
      </trkpt>
      <trkpt lat="44.10722" lon="3.11619">
        <ele>732.79998779297</ele>
        <time>2014-09-13T07:36:14.000Z</time>
      </trkpt>
      <trkpt lat="44.10724" lon="3.11621">
        <ele>733.79998779297</ele>
        <time>2014-09-13T07:36:18.000Z</time>
      </trkpt>
      <trkpt lat="44.10725" lon="3.11621">
        <ele>734.59997558594</ele>
        <time>2014-09-13T07:36:20.000Z</time>
      </trkpt>
      <trkpt lat="44.10725" lon="3.11621">
        <ele>734.79998779297</ele>
        <time>2014-09-13T07:36:21.000Z</time>
      </trkpt>
      <trkpt lat="44.10726" lon="3.11621">
        <ele>736.20001220703</ele>
        <time>2014-09-13T07:36:27.000Z</time>
      </trkpt>
      <trkpt lat="44.10727" lon="3.11622">
        <ele>737.40002441406</ele>
        <time>2014-09-13T07:36:30.000Z</time>
      </trkpt>
      <trkpt lat="44.10728" lon="3.11621">
        <ele>738.20001220703</ele>
        <time>2014-09-13T07:36:34.000Z</time>
      </trkpt>
      <trkpt lat="44.1073" lon="3.11622">
        <ele>738.40002441406</ele>
        <time>2014-09-13T07:36:35.000Z</time>
      </trkpt>
      <trkpt lat="44.10732" lon="3.11622">
        <ele>739.59997558594</ele>
        <time>2014-09-13T07:36:39.000Z</time>
      </trkpt>
      <trkpt lat="44.10732" lon="3.11621">
        <ele>739.79998779297</ele>
        <time>2014-09-13T07:36:40.000Z</time>
      </trkpt>
      <trkpt lat="44.10734" lon="3.11619">
        <ele>740.59997558594</ele>
        <time>2014-09-13T07:36:44.000Z</time>
      </trkpt>
      <trkpt lat="44.10737" lon="3.11618">
        <ele>741</ele>
        <time>2014-09-13T07:36:46.000Z</time>
      </trkpt>
      <trkpt lat="44.10738" lon="3.11619">
        <ele>741.79998779297</ele>
        <time>2014-09-13T07:36:49.000Z</time>
      </trkpt>
      <trkpt lat="44.10739" lon="3.11621">
        <ele>742.40002441406</ele>
        <time>2014-09-13T07:36:51.000Z</time>
      </trkpt>
      <trkpt lat="44.10742" lon="3.11622">
        <ele>743.20001220703</ele>
        <time>2014-09-13T07:36:53.000Z</time>
      </trkpt>
      <trkpt lat="44.10742" lon="3.11623">
        <ele>743.59997558594</ele>
        <time>2014-09-13T07:36:55.000Z</time>
      </trkpt>
      <trkpt lat="44.10743" lon="3.11624">
        <ele>743.79998779297</ele>
        <time>2014-09-13T07:36:56.000Z</time>
      </trkpt>
      <trkpt lat="44.10744" lon="3.11625">
        <ele>744.40002441406</ele>
        <time>2014-09-13T07:36:59.000Z</time>
      </trkpt>
      <trkpt lat="44.10746" lon="3.11626">
        <ele>744.79998779297</ele>
        <time>2014-09-13T07:37:01.000Z</time>
      </trkpt>
      <trkpt lat="44.10746" lon="3.11626">
        <ele>745.59997558594</ele>
        <time>2014-09-13T07:37:03.000Z</time>
      </trkpt>
      <trkpt lat="44.10748" lon="3.11627">
        <ele>746.20001220703</ele>
        <time>2014-09-13T07:37:05.000Z</time>
      </trkpt>
      <trkpt lat="44.1075" lon="3.11627">
        <ele>746.59997558594</ele>
        <time>2014-09-13T07:37:07.000Z</time>
      </trkpt>
      <trkpt lat="44.10751" lon="3.11628">
        <ele>746.59997558594</ele>
        <time>2014-09-13T07:37:08.000Z</time>
      </trkpt>
      <trkpt lat="44.10752" lon="3.11629">
        <ele>747</ele>
        <time>2014-09-13T07:37:09.000Z</time>
      </trkpt>
      <trkpt lat="44.10756" lon="3.11632">
        <ele>747.79998779297</ele>
        <time>2014-09-13T07:37:13.000Z</time>
      </trkpt>
      <trkpt lat="44.10758" lon="3.11635">
        <ele>749</ele>
        <time>2014-09-13T07:37:17.000Z</time>
      </trkpt>
      <trkpt lat="44.10762" lon="3.11636">
        <ele>749.40002441406</ele>
        <time>2014-09-13T07:37:19.000Z</time>
      </trkpt>
      <trkpt lat="44.10765" lon="3.11637">
        <ele>750</ele>
        <time>2014-09-13T07:37:23.000Z</time>
      </trkpt>
      <trkpt lat="44.10767" lon="3.11636">
        <ele>750.40002441406</ele>
        <time>2014-09-13T07:37:24.000Z</time>
      </trkpt>
      <trkpt lat="44.1077" lon="3.11636">
        <ele>751</ele>
        <time>2014-09-13T07:37:28.000Z</time>
      </trkpt>
      <trkpt lat="44.10771" lon="3.11636">
        <ele>751</ele>
        <time>2014-09-13T07:37:29.000Z</time>
      </trkpt>
      <trkpt lat="44.10776" lon="3.11634">
        <ele>752</ele>
        <time>2014-09-13T07:37:34.000Z</time>
      </trkpt>
      <trkpt lat="44.10778" lon="3.11634">
        <ele>752.20001220703</ele>
        <time>2014-09-13T07:37:35.000Z</time>
      </trkpt>
      <trkpt lat="44.10779" lon="3.11634">
        <ele>753</ele>
        <time>2014-09-13T07:37:38.000Z</time>
      </trkpt>
      <trkpt lat="44.10781" lon="3.11634">
        <ele>753.40002441406</ele>
        <time>2014-09-13T07:37:39.000Z</time>
      </trkpt>
      <trkpt lat="44.10786" lon="3.11634">
        <ele>754.40002441406</ele>
        <time>2014-09-13T07:37:45.000Z</time>
      </trkpt>
      <trkpt lat="44.10788" lon="3.11635">
        <ele>754.59997558594</ele>
        <time>2014-09-13T07:37:46.000Z</time>
      </trkpt>
      <trkpt lat="44.10791" lon="3.11636">
        <ele>755.20001220703</ele>
        <time>2014-09-13T07:37:49.000Z</time>
      </trkpt>
      <trkpt lat="44.10793" lon="3.11636">
        <ele>755.59997558594</ele>
        <time>2014-09-13T07:37:51.000Z</time>
      </trkpt>
      <trkpt lat="44.10796" lon="3.11638">
        <ele>756</ele>
        <time>2014-09-13T07:37:53.000Z</time>
      </trkpt>
      <trkpt lat="44.108" lon="3.11641">
        <ele>756.79998779297</ele>
        <time>2014-09-13T07:37:57.000Z</time>
      </trkpt>
      <trkpt lat="44.10801" lon="3.11641">
        <ele>756.79998779297</ele>
        <time>2014-09-13T07:37:58.000Z</time>
      </trkpt>
      <trkpt lat="44.10804" lon="3.11642">
        <ele>757.79998779297</ele>
        <time>2014-09-13T07:38:02.000Z</time>
      </trkpt>
      <trkpt lat="44.10808" lon="3.11643">
        <ele>758.79998779297</ele>
        <time>2014-09-13T07:38:06.000Z</time>
      </trkpt>
      <trkpt lat="44.10808" lon="3.11643">
        <ele>759</ele>
        <time>2014-09-13T07:38:07.000Z</time>
      </trkpt>
      <trkpt lat="44.10813" lon="3.11644">
        <ele>760.20001220703</ele>
        <time>2014-09-13T07:38:11.000Z</time>
      </trkpt>
      <trkpt lat="44.10816" lon="3.11646">
        <ele>760.79998779297</ele>
        <time>2014-09-13T07:38:14.000Z</time>
      </trkpt>
      <trkpt lat="44.10818" lon="3.11647">
        <ele>761.20001220703</ele>
        <time>2014-09-13T07:38:16.000Z</time>
      </trkpt>
      <trkpt lat="44.10819" lon="3.11647">
        <ele>761.40002441406</ele>
        <time>2014-09-13T07:38:17.000Z</time>
      </trkpt>
      <trkpt lat="44.10822" lon="3.11648">
        <ele>762</ele>
        <time>2014-09-13T07:38:20.000Z</time>
      </trkpt>
      <trkpt lat="44.10825" lon="3.11649">
        <ele>762.59997558594</ele>
        <time>2014-09-13T07:38:23.000Z</time>
      </trkpt>
      <trkpt lat="44.10827" lon="3.1165">
        <ele>762.79998779297</ele>
        <time>2014-09-13T07:38:25.000Z</time>
      </trkpt>
      <trkpt lat="44.10829" lon="3.11651">
        <ele>763.59997558594</ele>
        <time>2014-09-13T07:38:27.000Z</time>
      </trkpt>
      <trkpt lat="44.10831" lon="3.11652">
        <ele>764.20001220703</ele>
        <time>2014-09-13T07:38:30.000Z</time>
      </trkpt>
      <trkpt lat="44.10834" lon="3.11653">
        <ele>764.79998779297</ele>
        <time>2014-09-13T07:38:33.000Z</time>
      </trkpt>
      <trkpt lat="44.10834" lon="3.11653">
        <ele>765</ele>
        <time>2014-09-13T07:38:34.000Z</time>
      </trkpt>
      <trkpt lat="44.10841" lon="3.11653">
        <ele>765.79998779297</ele>
        <time>2014-09-13T07:38:39.000Z</time>
      </trkpt>
      <trkpt lat="44.10845" lon="3.11652">
        <ele>766.59997558594</ele>
        <time>2014-09-13T07:38:43.000Z</time>
      </trkpt>
      <trkpt lat="44.10848" lon="3.11651">
        <ele>767</ele>
        <time>2014-09-13T07:38:45.000Z</time>
      </trkpt>
      <trkpt lat="44.1085" lon="3.11651">
        <ele>767.79998779297</ele>
        <time>2014-09-13T07:38:49.000Z</time>
      </trkpt>
      <trkpt lat="44.10851" lon="3.1165">
        <ele>768</ele>
        <time>2014-09-13T07:38:50.000Z</time>
      </trkpt>
      <trkpt lat="44.10854" lon="3.11648">
        <ele>768.59997558594</ele>
        <time>2014-09-13T07:38:53.000Z</time>
      </trkpt>
      <trkpt lat="44.10854" lon="3.11648">
        <ele>768.59997558594</ele>
        <time>2014-09-13T07:38:54.000Z</time>
      </trkpt>
      <trkpt lat="44.10857" lon="3.11647">
        <ele>769.20001220703</ele>
        <time>2014-09-13T07:38:56.000Z</time>
      </trkpt>
      <trkpt lat="44.10859" lon="3.11647">
        <ele>769.79998779297</ele>
        <time>2014-09-13T07:38:57.000Z</time>
      </trkpt>
      <trkpt lat="44.10864" lon="3.11648">
        <ele>770.20001220703</ele>
        <time>2014-09-13T07:39:01.000Z</time>
      </trkpt>
      <trkpt lat="44.10865" lon="3.11649">
        <ele>770.40002441406</ele>
        <time>2014-09-13T07:39:02.000Z</time>
      </trkpt>
      <trkpt lat="44.10869" lon="3.1165">
        <ele>771.20001220703</ele>
        <time>2014-09-13T07:39:06.000Z</time>
      </trkpt>
      <trkpt lat="44.1087" lon="3.11651">
        <ele>771.40002441406</ele>
        <time>2014-09-13T07:39:07.000Z</time>
      </trkpt>
      <trkpt lat="44.10877" lon="3.11652">
        <ele>772.20001220703</ele>
        <time>2014-09-13T07:39:11.000Z</time>
      </trkpt>
      <trkpt lat="44.10881" lon="3.11653">
        <ele>772.59997558594</ele>
        <time>2014-09-13T07:39:14.000Z</time>
      </trkpt>
      <trkpt lat="44.10881" lon="3.11654">
        <ele>773.20001220703</ele>
        <time>2014-09-13T07:39:16.000Z</time>
      </trkpt>
      <trkpt lat="44.10885" lon="3.11653">
        <ele>773.79998779297</ele>
        <time>2014-09-13T07:39:18.000Z</time>
      </trkpt>
      <trkpt lat="44.10887" lon="3.11653">
        <ele>774.20001220703</ele>
        <time>2014-09-13T07:39:20.000Z</time>
      </trkpt>
      <trkpt lat="44.10888" lon="3.11653">
        <ele>774.40002441406</ele>
        <time>2014-09-13T07:39:23.000Z</time>
      </trkpt>
      <trkpt lat="44.10892" lon="3.11651">
        <ele>774.79998779297</ele>
        <time>2014-09-13T07:39:25.000Z</time>
      </trkpt>
      <trkpt lat="44.10895" lon="3.1165">
        <ele>775.40002441406</ele>
        <time>2014-09-13T07:39:27.000Z</time>
      </trkpt>
      <trkpt lat="44.10898" lon="3.11649">
        <ele>775.79998779297</ele>
        <time>2014-09-13T07:39:30.000Z</time>
      </trkpt>
      <trkpt lat="44.109" lon="3.11649">
        <ele>776.20001220703</ele>
        <time>2014-09-13T07:39:32.000Z</time>
      </trkpt>
      <trkpt lat="44.10902" lon="3.11649">
        <ele>776.40002441406</ele>
        <time>2014-09-13T07:39:33.000Z</time>
      </trkpt>
      <trkpt lat="44.10906" lon="3.11649">
        <ele>777</ele>
        <time>2014-09-13T07:39:37.000Z</time>
      </trkpt>
      <trkpt lat="44.10907" lon="3.11649">
        <ele>777.59997558594</ele>
        <time>2014-09-13T07:39:39.000Z</time>
      </trkpt>
      <trkpt lat="44.1091" lon="3.1165">
        <ele>778</ele>
        <time>2014-09-13T07:39:41.000Z</time>
      </trkpt>
      <trkpt lat="44.10912" lon="3.11651">
        <ele>778.20001220703</ele>
        <time>2014-09-13T07:39:42.000Z</time>
      </trkpt>
      <trkpt lat="44.10914" lon="3.11651">
        <ele>779</ele>
        <time>2014-09-13T07:39:45.000Z</time>
      </trkpt>
      <trkpt lat="44.1092" lon="3.11652">
        <ele>779.40002441406</ele>
        <time>2014-09-13T07:39:48.000Z</time>
      </trkpt>
      <trkpt lat="44.10924" lon="3.11653">
        <ele>779.79998779297</ele>
        <time>2014-09-13T07:39:50.000Z</time>
      </trkpt>
      <trkpt lat="44.10925" lon="3.11653">
        <ele>780.59997558594</ele>
        <time>2014-09-13T07:39:54.000Z</time>
      </trkpt>
      <trkpt lat="44.10931" lon="3.11652">
        <ele>781.59997558594</ele>
        <time>2014-09-13T07:39:58.000Z</time>
      </trkpt>
      <trkpt lat="44.1093" lon="3.11652">
        <ele>781.79998779297</ele>
        <time>2014-09-13T07:39:59.000Z</time>
      </trkpt>
      <trkpt lat="44.10931" lon="3.11653">
        <ele>782.59997558594</ele>
        <time>2014-09-13T07:40:02.000Z</time>
      </trkpt>
      <trkpt lat="44.10933" lon="3.11652">
        <ele>783</ele>
        <time>2014-09-13T07:40:03.000Z</time>
      </trkpt>
      <trkpt lat="44.10938" lon="3.11651">
        <ele>783.79998779297</ele>
        <time>2014-09-13T07:40:07.000Z</time>
      </trkpt>
      <trkpt lat="44.10938" lon="3.11651">
        <ele>784</ele>
        <time>2014-09-13T07:40:08.000Z</time>
      </trkpt>
      <trkpt lat="44.10942" lon="3.11651">
        <ele>784.79998779297</ele>
        <time>2014-09-13T07:40:12.000Z</time>
      </trkpt>
      <trkpt lat="44.10944" lon="3.11651">
        <ele>785</ele>
        <time>2014-09-13T07:40:13.000Z</time>
      </trkpt>
      <trkpt lat="44.10946" lon="3.11651">
        <ele>786.20001220703</ele>
        <time>2014-09-13T07:40:16.000Z</time>
      </trkpt>
      <trkpt lat="44.1095" lon="3.11649">
        <ele>786.59997558594</ele>
        <time>2014-09-13T07:40:18.000Z</time>
      </trkpt>
      <trkpt lat="44.10953" lon="3.11649">
        <ele>787.20001220703</ele>
        <time>2014-09-13T07:40:21.000Z</time>
      </trkpt>
      <trkpt lat="44.10953" lon="3.11649">
        <ele>787.59997558594</ele>
        <time>2014-09-13T07:40:22.000Z</time>
      </trkpt>
      <trkpt lat="44.10953" lon="3.11649">
        <ele>787.79998779297</ele>
        <time>2014-09-13T07:40:23.000Z</time>
      </trkpt>
      <trkpt lat="44.10956" lon="3.11648">
        <ele>788.40002441406</ele>
        <time>2014-09-13T07:40:25.000Z</time>
      </trkpt>
      <trkpt lat="44.10957" lon="3.11647">
        <ele>788.59997558594</ele>
        <time>2014-09-13T07:40:26.000Z</time>
      </trkpt>
      <trkpt lat="44.10958" lon="3.11647">
        <ele>789.40002441406</ele>
        <time>2014-09-13T07:40:29.000Z</time>
      </trkpt>
      <trkpt lat="44.10964" lon="3.11643">
        <ele>790.59997558594</ele>
        <time>2014-09-13T07:40:34.000Z</time>
      </trkpt>
      <trkpt lat="44.10969" lon="3.11639">
        <ele>791.40002441406</ele>
        <time>2014-09-13T07:40:38.000Z</time>
      </trkpt>
      <trkpt lat="44.10969" lon="3.11639">
        <ele>791.59997558594</ele>
        <time>2014-09-13T07:40:39.000Z</time>
      </trkpt>
      <trkpt lat="44.10971" lon="3.11637">
        <ele>791.79998779297</ele>
        <time>2014-09-13T07:40:41.000Z</time>
      </trkpt>
      <trkpt lat="44.10972" lon="3.11635">
        <ele>791.79998779297</ele>
        <time>2014-09-13T07:40:42.000Z</time>
      </trkpt>
      <trkpt lat="44.10973" lon="3.11632">
        <ele>792.20001220703</ele>
        <time>2014-09-13T07:40:46.000Z</time>
      </trkpt>
      <trkpt lat="44.10973" lon="3.11632">
        <ele>792.59997558594</ele>
        <time>2014-09-13T07:40:49.000Z</time>
      </trkpt>
      <trkpt lat="44.10973" lon="3.11632">
        <ele>792.79998779297</ele>
        <time>2014-09-13T07:40:53.000Z</time>
      </trkpt>
      <trkpt lat="44.10973" lon="3.11632">
        <ele>792.40002441406</ele>
        <time>2014-09-13T07:41:01.000Z</time>
      </trkpt>
      <trkpt lat="44.10972" lon="3.11632">
        <ele>792.79998779297</ele>
        <time>2014-09-13T07:41:09.000Z</time>
      </trkpt>
      <trkpt lat="44.10972" lon="3.11632">
        <ele>792.59997558594</ele>
        <time>2014-09-13T07:41:25.000Z</time>
      </trkpt>
      <trkpt lat="44.10971" lon="3.1163">
        <ele>792.59997558594</ele>
        <time>2014-09-13T07:41:31.000Z</time>
      </trkpt>
      <trkpt lat="44.10971" lon="3.1163">
        <ele>793</ele>
        <time>2014-09-13T07:41:39.000Z</time>
      </trkpt>
      <trkpt lat="44.10971" lon="3.1163">
        <ele>792.79998779297</ele>
        <time>2014-09-13T07:41:49.000Z</time>
      </trkpt>
      <trkpt lat="44.10971" lon="3.1163">
        <ele>793.20001220703</ele>
        <time>2014-09-13T07:42:04.000Z</time>
      </trkpt>
      <trkpt lat="44.10971" lon="3.1163">
        <ele>792.79998779297</ele>
        <time>2014-09-13T07:42:08.000Z</time>
      </trkpt>
      <trkpt lat="44.10972" lon="3.1163">
        <ele>792.79998779297</ele>
        <time>2014-09-13T07:42:15.000Z</time>
      </trkpt>
      <trkpt lat="44.10973" lon="3.11628">
        <ele>793</ele>
        <time>2014-09-13T07:42:18.000Z</time>
      </trkpt>
      <trkpt lat="44.10973" lon="3.11627">
        <ele>793</ele>
        <time>2014-09-13T07:42:20.000Z</time>
      </trkpt>
      <trkpt lat="44.10977" lon="3.11621">
        <ele>793.79998779297</ele>
        <time>2014-09-13T07:42:25.000Z</time>
      </trkpt>
      <trkpt lat="44.10979" lon="3.11619">
        <ele>794</ele>
        <time>2014-09-13T07:42:26.000Z</time>
      </trkpt>
      <trkpt lat="44.10983" lon="3.11613">
        <ele>794.79998779297</ele>
        <time>2014-09-13T07:42:29.000Z</time>
      </trkpt>
      <trkpt lat="44.10986" lon="3.11609">
        <ele>795.40002441406</ele>
        <time>2014-09-13T07:42:31.000Z</time>
      </trkpt>
      <trkpt lat="44.10992" lon="3.11601">
        <ele>796</ele>
        <time>2014-09-13T07:42:35.000Z</time>
      </trkpt>
      <trkpt lat="44.10995" lon="3.11598">
        <ele>796.20001220703</ele>
        <time>2014-09-13T07:42:37.000Z</time>
      </trkpt>
      <trkpt lat="44.11002" lon="3.11591">
        <ele>797.20001220703</ele>
        <time>2014-09-13T07:42:41.000Z</time>
      </trkpt>
      <trkpt lat="44.11004" lon="3.11589">
        <ele>797.79998779297</ele>
        <time>2014-09-13T07:42:43.000Z</time>
      </trkpt>
      <trkpt lat="44.11009" lon="3.11586">
        <ele>798.40002441406</ele>
        <time>2014-09-13T07:42:46.000Z</time>
      </trkpt>
      <trkpt lat="44.11014" lon="3.11583">
        <ele>799.20001220703</ele>
        <time>2014-09-13T07:42:49.000Z</time>
      </trkpt>
      <trkpt lat="44.11016" lon="3.11582">
        <ele>799.59997558594</ele>
        <time>2014-09-13T07:42:50.000Z</time>
      </trkpt>
      <trkpt lat="44.11021" lon="3.1158">
        <ele>800.59997558594</ele>
        <time>2014-09-13T07:42:53.000Z</time>
      </trkpt>
      <trkpt lat="44.11024" lon="3.11579">
        <ele>801.20001220703</ele>
        <time>2014-09-13T07:42:55.000Z</time>
      </trkpt>
      <trkpt lat="44.11029" lon="3.11577">
        <ele>801.59997558594</ele>
        <time>2014-09-13T07:42:58.000Z</time>
      </trkpt>
      <trkpt lat="44.11034" lon="3.11575">
        <ele>802.20001220703</ele>
        <time>2014-09-13T07:43:01.000Z</time>
      </trkpt>
      <trkpt lat="44.11037" lon="3.11572">
        <ele>802.79998779297</ele>
        <time>2014-09-13T07:43:03.000Z</time>
      </trkpt>
      <trkpt lat="44.11043" lon="3.11567">
        <ele>803.59997558594</ele>
        <time>2014-09-13T07:43:06.000Z</time>
      </trkpt>
      <trkpt lat="44.11044" lon="3.11566">
        <ele>803.79998779297</ele>
        <time>2014-09-13T07:43:07.000Z</time>
      </trkpt>
      <trkpt lat="44.11047" lon="3.11567">
        <ele>804.40002441406</ele>
        <time>2014-09-13T07:43:09.000Z</time>
      </trkpt>
      <trkpt lat="44.11049" lon="3.11568">
        <ele>804.59997558594</ele>
        <time>2014-09-13T07:43:10.000Z</time>
      </trkpt>
      <trkpt lat="44.11049" lon="3.11569">
        <ele>804.79998779297</ele>
        <time>2014-09-13T07:43:11.000Z</time>
      </trkpt>
      <trkpt lat="44.1105" lon="3.11571">
        <ele>805</ele>
        <time>2014-09-13T07:43:12.000Z</time>
      </trkpt>
      <trkpt lat="44.11049" lon="3.11577">
        <ele>805.59997558594</ele>
        <time>2014-09-13T07:43:15.000Z</time>
      </trkpt>
      <trkpt lat="44.11048" lon="3.11579">
        <ele>806</ele>
        <time>2014-09-13T07:43:16.000Z</time>
      </trkpt>
      <trkpt lat="44.11045" lon="3.11587">
        <ele>807</ele>
        <time>2014-09-13T07:43:20.000Z</time>
      </trkpt>
      <trkpt lat="44.11045" lon="3.11589">
        <ele>807.40002441406</ele>
        <time>2014-09-13T07:43:21.000Z</time>
      </trkpt>
      <trkpt lat="44.11045" lon="3.11591">
        <ele>807.59997558594</ele>
        <time>2014-09-13T07:43:22.000Z</time>
      </trkpt>
      <trkpt lat="44.11047" lon="3.11598">
        <ele>808.20001220703</ele>
        <time>2014-09-13T07:43:25.000Z</time>
      </trkpt>
      <trkpt lat="44.11048" lon="3.11601">
        <ele>808.40002441406</ele>
        <time>2014-09-13T07:43:26.000Z</time>
      </trkpt>
      <trkpt lat="44.11053" lon="3.11608">
        <ele>809</ele>
        <time>2014-09-13T07:43:30.000Z</time>
      </trkpt>
      <trkpt lat="44.11059" lon="3.1161">
        <ele>809.59997558594</ele>
        <time>2014-09-13T07:43:35.000Z</time>
      </trkpt>
      <trkpt lat="44.11069" lon="3.11607">
        <ele>810.20001220703</ele>
        <time>2014-09-13T07:43:41.000Z</time>
      </trkpt>
      <trkpt lat="44.11073" lon="3.11604">
        <ele>810.59997558594</ele>
        <time>2014-09-13T07:43:44.000Z</time>
      </trkpt>
      <trkpt lat="44.11081" lon="3.11599">
        <ele>811.40002441406</ele>
        <time>2014-09-13T07:43:50.000Z</time>
      </trkpt>
      <trkpt lat="44.11083" lon="3.11598">
        <ele>811.79998779297</ele>
        <time>2014-09-13T07:43:51.000Z</time>
      </trkpt>
      <trkpt lat="44.11087" lon="3.1159">
        <ele>812.79998779297</ele>
        <time>2014-09-13T07:43:56.000Z</time>
      </trkpt>
      <trkpt lat="44.11088" lon="3.11588">
        <ele>812.79998779297</ele>
        <time>2014-09-13T07:43:57.000Z</time>
      </trkpt>
      <trkpt lat="44.11091" lon="3.11583">
        <ele>813.40002441406</ele>
        <time>2014-09-13T07:44:02.000Z</time>
      </trkpt>
      <trkpt lat="44.11098" lon="3.11571">
        <ele>813.79998779297</ele>
        <time>2014-09-13T07:44:11.000Z</time>
      </trkpt>
      <trkpt lat="44.11103" lon="3.11562">
        <ele>814.40002441406</ele>
        <time>2014-09-13T07:44:16.000Z</time>
      </trkpt>
      <trkpt lat="44.1111" lon="3.11553">
        <ele>815</ele>
        <time>2014-09-13T07:44:22.000Z</time>
      </trkpt>
      <trkpt lat="44.11112" lon="3.11549">
        <ele>815</ele>
        <time>2014-09-13T07:44:24.000Z</time>
      </trkpt>
      <trkpt lat="44.11122" lon="3.11536">
        <ele>815.59997558594</ele>
        <time>2014-09-13T07:44:30.000Z</time>
      </trkpt>
      <trkpt lat="44.11127" lon="3.11526">
        <ele>816</ele>
        <time>2014-09-13T07:44:34.000Z</time>
      </trkpt>
      <trkpt lat="44.11129" lon="3.11524">
        <ele>816.20001220703</ele>
        <time>2014-09-13T07:44:35.000Z</time>
      </trkpt>
      <trkpt lat="44.11138" lon="3.11509">
        <ele>816.79998779297</ele>
        <time>2014-09-13T07:44:41.000Z</time>
      </trkpt>
      <trkpt lat="44.11141" lon="3.11504">
        <ele>817.20001220703</ele>
        <time>2014-09-13T07:44:43.000Z</time>
      </trkpt>
      <trkpt lat="44.11146" lon="3.11498">
        <ele>817.40002441406</ele>
        <time>2014-09-13T07:44:46.000Z</time>
      </trkpt>
      <trkpt lat="44.11153" lon="3.11488">
        <ele>818.20001220703</ele>
        <time>2014-09-13T07:44:51.000Z</time>
      </trkpt>
      <trkpt lat="44.11154" lon="3.11487">
        <ele>818.59997558594</ele>
        <time>2014-09-13T07:44:52.000Z</time>
      </trkpt>
      <trkpt lat="44.1116" lon="3.11477">
        <ele>818.79998779297</ele>
        <time>2014-09-13T07:44:56.000Z</time>
      </trkpt>
      <trkpt lat="44.1117" lon="3.11468">
        <ele>819.59997558594</ele>
        <time>2014-09-13T07:45:02.000Z</time>
      </trkpt>
      <trkpt lat="44.11174" lon="3.11466">
        <ele>819.59997558594</ele>
        <time>2014-09-13T07:45:04.000Z</time>
      </trkpt>
      <trkpt lat="44.11182" lon="3.11462">
        <ele>819.79998779297</ele>
        <time>2014-09-13T07:45:08.000Z</time>
      </trkpt>
      <trkpt lat="44.11193" lon="3.11459">
        <ele>820.59997558594</ele>
        <time>2014-09-13T07:45:14.000Z</time>
      </trkpt>
      <trkpt lat="44.11206" lon="3.11452">
        <ele>821.20001220703</ele>
        <time>2014-09-13T07:45:20.000Z</time>
      </trkpt>
      <trkpt lat="44.11219" lon="3.11448">
        <ele>821.59997558594</ele>
        <time>2014-09-13T07:45:27.000Z</time>
      </trkpt>
      <trkpt lat="44.11223" lon="3.11446">
        <ele>821.59997558594</ele>
        <time>2014-09-13T07:45:29.000Z</time>
      </trkpt>
      <trkpt lat="44.11233" lon="3.11444">
        <ele>821.79998779297</ele>
        <time>2014-09-13T07:45:34.000Z</time>
      </trkpt>
      <trkpt lat="44.11246" lon="3.11444">
        <ele>822</ele>
        <time>2014-09-13T07:45:40.000Z</time>
      </trkpt>
      <trkpt lat="44.11261" lon="3.11444">
        <ele>821.79998779297</ele>
        <time>2014-09-13T07:45:47.000Z</time>
      </trkpt>
      <trkpt lat="44.11275" lon="3.11444">
        <ele>821.59997558594</ele>
        <time>2014-09-13T07:45:53.000Z</time>
      </trkpt>
      <trkpt lat="44.11293" lon="3.11445">
        <ele>822</ele>
        <time>2014-09-13T07:46:00.000Z</time>
      </trkpt>
      <trkpt lat="44.11307" lon="3.11444">
        <ele>822</ele>
        <time>2014-09-13T07:46:06.000Z</time>
      </trkpt>
      <trkpt lat="44.11319" lon="3.11443">
        <ele>822</ele>
        <time>2014-09-13T07:46:11.000Z</time>
      </trkpt>
      <trkpt lat="44.11334" lon="3.11433">
        <ele>820.40002441406</ele>
        <time>2014-09-13T07:46:18.000Z</time>
      </trkpt>
      <trkpt lat="44.11336" lon="3.11431">
        <ele>820.20001220703</ele>
        <time>2014-09-13T07:46:19.000Z</time>
      </trkpt>
      <trkpt lat="44.11345" lon="3.11424">
        <ele>819.40002441406</ele>
        <time>2014-09-13T07:46:23.000Z</time>
      </trkpt>
      <trkpt lat="44.1135" lon="3.11419">
        <ele>819</ele>
        <time>2014-09-13T07:46:25.000Z</time>
      </trkpt>
      <trkpt lat="44.11354" lon="3.11415">
        <ele>818.40002441406</ele>
        <time>2014-09-13T07:46:27.000Z</time>
      </trkpt>
      <trkpt lat="44.11359" lon="3.1141">
        <ele>817.20001220703</ele>
        <time>2014-09-13T07:46:29.000Z</time>
      </trkpt>
      <trkpt lat="44.11367" lon="3.11402">
        <ele>816.20001220703</ele>
        <time>2014-09-13T07:46:33.000Z</time>
      </trkpt>
      <trkpt lat="44.11373" lon="3.11395">
        <ele>815</ele>
        <time>2014-09-13T07:46:37.000Z</time>
      </trkpt>
      <trkpt lat="44.1138" lon="3.11389">
        <ele>814</ele>
        <time>2014-09-13T07:46:40.000Z</time>
      </trkpt>
      <trkpt lat="44.11382" lon="3.11387">
        <ele>813.79998779297</ele>
        <time>2014-09-13T07:46:41.000Z</time>
      </trkpt>
      <trkpt lat="44.1139" lon="3.1138">
        <ele>812.59997558594</ele>
        <time>2014-09-13T07:46:45.000Z</time>
      </trkpt>
      <trkpt lat="44.11391" lon="3.11378">
        <ele>812.20001220703</ele>
        <time>2014-09-13T07:46:46.000Z</time>
      </trkpt>
      <trkpt lat="44.11396" lon="3.11373">
        <ele>811.40002441406</ele>
        <time>2014-09-13T07:46:49.000Z</time>
      </trkpt>
      <trkpt lat="44.11399" lon="3.11369">
        <ele>810.59997558594</ele>
        <time>2014-09-13T07:46:51.000Z</time>
      </trkpt>
      <trkpt lat="44.11401" lon="3.11367">
        <ele>810</ele>
        <time>2014-09-13T07:46:52.000Z</time>
      </trkpt>
      <trkpt lat="44.1141" lon="3.11356">
        <ele>808.79998779297</ele>
        <time>2014-09-13T07:46:57.000Z</time>
      </trkpt>
      <trkpt lat="44.11418" lon="3.1135">
        <ele>807.79998779297</ele>
        <time>2014-09-13T07:47:01.000Z</time>
      </trkpt>
      <trkpt lat="44.1142" lon="3.11349">
        <ele>807.79998779297</ele>
        <time>2014-09-13T07:47:02.000Z</time>
      </trkpt>
      <trkpt lat="44.11435" lon="3.11343">
        <ele>806.59997558594</ele>
        <time>2014-09-13T07:47:09.000Z</time>
      </trkpt>
      <trkpt lat="44.11448" lon="3.11335">
        <ele>806.40002441406</ele>
        <time>2014-09-13T07:47:15.000Z</time>
      </trkpt>
      <trkpt lat="44.11464" lon="3.11324">
        <ele>806</ele>
        <time>2014-09-13T07:47:23.000Z</time>
      </trkpt>
      <trkpt lat="44.11477" lon="3.11316">
        <ele>806</ele>
        <time>2014-09-13T07:47:29.000Z</time>
      </trkpt>
      <trkpt lat="44.11493" lon="3.11304">
        <ele>805.59997558594</ele>
        <time>2014-09-13T07:47:37.000Z</time>
      </trkpt>
      <trkpt lat="44.11495" lon="3.11302">
        <ele>805.59997558594</ele>
        <time>2014-09-13T07:47:38.000Z</time>
      </trkpt>
      <trkpt lat="44.11505" lon="3.11291">
        <ele>804.59997558594</ele>
        <time>2014-09-13T07:47:43.000Z</time>
      </trkpt>
      <trkpt lat="44.11511" lon="3.11281">
        <ele>803.40002441406</ele>
        <time>2014-09-13T07:47:47.000Z</time>
      </trkpt>
      <trkpt lat="44.11514" lon="3.11274">
        <ele>802.59997558594</ele>
        <time>2014-09-13T07:47:50.000Z</time>
      </trkpt>
      <trkpt lat="44.11516" lon="3.11272">
        <ele>802.40002441406</ele>
        <time>2014-09-13T07:47:51.000Z</time>
      </trkpt>
      <trkpt lat="44.11517" lon="3.11267">
        <ele>802</ele>
        <time>2014-09-13T07:47:55.000Z</time>
      </trkpt>
      <trkpt lat="44.11513" lon="3.11266">
        <ele>801.20001220703</ele>
        <time>2014-09-13T07:47:58.000Z</time>
      </trkpt>
      <trkpt lat="44.11512" lon="3.11265">
        <ele>800.79998779297</ele>
        <time>2014-09-13T07:47:59.000Z</time>
      </trkpt>
      <trkpt lat="44.11509" lon="3.11265">
        <ele>800.40002441406</ele>
        <time>2014-09-13T07:48:01.000Z</time>
      </trkpt>
      <trkpt lat="44.11507" lon="3.11265">
        <ele>800</ele>
        <time>2014-09-13T07:48:03.000Z</time>
      </trkpt>
      <trkpt lat="44.11502" lon="3.11262">
        <ele>798.79998779297</ele>
        <time>2014-09-13T07:48:07.000Z</time>
      </trkpt>
      <trkpt lat="44.11499" lon="3.1126">
        <ele>798.20001220703</ele>
        <time>2014-09-13T07:48:09.000Z</time>
      </trkpt>
      <trkpt lat="44.11498" lon="3.11258">
        <ele>797.79998779297</ele>
        <time>2014-09-13T07:48:10.000Z</time>
      </trkpt>
      <trkpt lat="44.11495" lon="3.11254">
        <ele>796.79998779297</ele>
        <time>2014-09-13T07:48:13.000Z</time>
      </trkpt>
      <trkpt lat="44.11493" lon="3.11252">
        <ele>796</ele>
        <time>2014-09-13T07:48:15.000Z</time>
      </trkpt>
      <trkpt lat="44.11492" lon="3.11251">
        <ele>795.59997558594</ele>
        <time>2014-09-13T07:48:16.000Z</time>
      </trkpt>
      <trkpt lat="44.11487" lon="3.11244">
        <ele>794.20001220703</ele>
        <time>2014-09-13T07:48:20.000Z</time>
      </trkpt>
      <trkpt lat="44.11483" lon="3.1124">
        <ele>793</ele>
        <time>2014-09-13T07:48:23.000Z</time>
      </trkpt>
      <trkpt lat="44.11481" lon="3.11239">
        <ele>792.59997558594</ele>
        <time>2014-09-13T07:48:24.000Z</time>
      </trkpt>
      <trkpt lat="44.11478" lon="3.11237">
        <ele>791.79998779297</ele>
        <time>2014-09-13T07:48:26.000Z</time>
      </trkpt>
      <trkpt lat="44.11475" lon="3.11233">
        <ele>790.59997558594</ele>
        <time>2014-09-13T07:48:28.000Z</time>
      </trkpt>
      <trkpt lat="44.11471" lon="3.11226">
        <ele>789.20001220703</ele>
        <time>2014-09-13T07:48:31.000Z</time>
      </trkpt>
      <trkpt lat="44.11469" lon="3.11224">
        <ele>788.59997558594</ele>
        <time>2014-09-13T07:48:32.000Z</time>
      </trkpt>
      <trkpt lat="44.11468" lon="3.1122">
        <ele>788</ele>
        <time>2014-09-13T07:48:33.000Z</time>
      </trkpt>
      <trkpt lat="44.11466" lon="3.11213">
        <ele>787</ele>
        <time>2014-09-13T07:48:35.000Z</time>
      </trkpt>
      <trkpt lat="44.11469" lon="3.11205">
        <ele>786.40002441406</ele>
        <time>2014-09-13T07:48:37.000Z</time>
      </trkpt>
      <trkpt lat="44.11471" lon="3.11201">
        <ele>786</ele>
        <time>2014-09-13T07:48:38.000Z</time>
      </trkpt>
      <trkpt lat="44.11473" lon="3.11197">
        <ele>785.79998779297</ele>
        <time>2014-09-13T07:48:39.000Z</time>
      </trkpt>
      <trkpt lat="44.11485" lon="3.11176">
        <ele>786</ele>
        <time>2014-09-13T07:48:45.000Z</time>
      </trkpt>
      <trkpt lat="44.11493" lon="3.11155">
        <ele>786.20001220703</ele>
        <time>2014-09-13T07:48:52.000Z</time>
      </trkpt>
      <trkpt lat="44.11497" lon="3.11145">
        <ele>786.79998779297</ele>
        <time>2014-09-13T07:48:56.000Z</time>
      </trkpt>
      <trkpt lat="44.11498" lon="3.11142">
        <ele>786.79998779297</ele>
        <time>2014-09-13T07:48:57.000Z</time>
      </trkpt>
      <trkpt lat="44.115" lon="3.11139">
        <ele>787</ele>
        <time>2014-09-13T07:48:58.000Z</time>
      </trkpt>
      <trkpt lat="44.11502" lon="3.11125">
        <ele>788</ele>
        <time>2014-09-13T07:49:03.000Z</time>
      </trkpt>
      <trkpt lat="44.11502" lon="3.11122">
        <ele>788</ele>
        <time>2014-09-13T07:49:04.000Z</time>
      </trkpt>
      <trkpt lat="44.11498" lon="3.1111">
        <ele>789</ele>
        <time>2014-09-13T07:49:09.000Z</time>
      </trkpt>
      <trkpt lat="44.11489" lon="3.11102">
        <ele>789.59997558594</ele>
        <time>2014-09-13T07:49:14.000Z</time>
      </trkpt>
      <trkpt lat="44.11486" lon="3.11101">
        <ele>790</ele>
        <time>2014-09-13T07:49:16.000Z</time>
      </trkpt>
      <trkpt lat="44.11479" lon="3.11102">
        <ele>790.20001220703</ele>
        <time>2014-09-13T07:49:20.000Z</time>
      </trkpt>
      <trkpt lat="44.1147" lon="3.11111">
        <ele>790.40002441406</ele>
        <time>2014-09-13T07:49:25.000Z</time>
      </trkpt>
      <trkpt lat="44.11459" lon="3.11124">
        <ele>789.59997558594</ele>
        <time>2014-09-13T07:49:32.000Z</time>
      </trkpt>
      <trkpt lat="44.11441" lon="3.11132">
        <ele>789.20001220703</ele>
        <time>2014-09-13T07:49:39.000Z</time>
      </trkpt>
      <trkpt lat="44.11426" lon="3.11137">
        <ele>789.20001220703</ele>
        <time>2014-09-13T07:49:45.000Z</time>
      </trkpt>
      <trkpt lat="44.11413" lon="3.11134">
        <ele>790</ele>
        <time>2014-09-13T07:49:51.000Z</time>
      </trkpt>
      <trkpt lat="44.11398" lon="3.11133">
        <ele>790.59997558594</ele>
        <time>2014-09-13T07:49:58.000Z</time>
      </trkpt>
      <trkpt lat="44.11386" lon="3.11131">
        <ele>790.59997558594</ele>
        <time>2014-09-13T07:50:03.000Z</time>
      </trkpt>
      <trkpt lat="44.11377" lon="3.11129">
        <ele>791</ele>
        <time>2014-09-13T07:50:07.000Z</time>
      </trkpt>
      <trkpt lat="44.11365" lon="3.11127">
        <ele>791.40002441406</ele>
        <time>2014-09-13T07:50:12.000Z</time>
      </trkpt>
      <trkpt lat="44.11351" lon="3.11118">
        <ele>792.20001220703</ele>
        <time>2014-09-13T07:50:18.000Z</time>
      </trkpt>
      <trkpt lat="44.11349" lon="3.11118">
        <ele>792.40002441406</ele>
        <time>2014-09-13T07:50:19.000Z</time>
      </trkpt>
      <trkpt lat="44.11333" lon="3.11111">
        <ele>792.79998779297</ele>
        <time>2014-09-13T07:50:26.000Z</time>
      </trkpt>
      <trkpt lat="44.11325" lon="3.11105">
        <ele>793.20001220703</ele>
        <time>2014-09-13T07:50:30.000Z</time>
      </trkpt>
      <trkpt lat="44.11323" lon="3.11104">
        <ele>793.20001220703</ele>
        <time>2014-09-13T07:50:31.000Z</time>
      </trkpt>
      <trkpt lat="44.11309" lon="3.11096">
        <ele>793.59997558594</ele>
        <time>2014-09-13T07:50:37.000Z</time>
      </trkpt>
      <trkpt lat="44.11295" lon="3.11086">
        <ele>793.79998779297</ele>
        <time>2014-09-13T07:50:44.000Z</time>
      </trkpt>
      <trkpt lat="44.11279" lon="3.11075">
        <ele>793.40002441406</ele>
        <time>2014-09-13T07:50:51.000Z</time>
      </trkpt>
      <trkpt lat="44.11266" lon="3.11063">
        <ele>793.20001220703</ele>
        <time>2014-09-13T07:50:57.000Z</time>
      </trkpt>
      <trkpt lat="44.1125" lon="3.1105">
        <ele>793.20001220703</ele>
        <time>2014-09-13T07:51:05.000Z</time>
      </trkpt>
      <trkpt lat="44.1124" lon="3.11038">
        <ele>793.40002441406</ele>
        <time>2014-09-13T07:51:11.000Z</time>
      </trkpt>
      <trkpt lat="44.11226" lon="3.11025">
        <ele>792.59997558594</ele>
        <time>2014-09-13T07:51:17.000Z</time>
      </trkpt>
      <trkpt lat="44.11218" lon="3.11019">
        <ele>792.20001220703</ele>
        <time>2014-09-13T07:51:20.000Z</time>
      </trkpt>
      <trkpt lat="44.11213" lon="3.11015">
        <ele>792</ele>
        <time>2014-09-13T07:51:22.000Z</time>
      </trkpt>
      <trkpt lat="44.11202" lon="3.11004">
        <ele>792</ele>
        <time>2014-09-13T07:51:28.000Z</time>
      </trkpt>
      <trkpt lat="44.1119" lon="3.10995">
        <ele>791.79998779297</ele>
        <time>2014-09-13T07:51:33.000Z</time>
      </trkpt>
      <trkpt lat="44.11187" lon="3.10989">
        <ele>793</ele>
        <time>2014-09-13T07:51:38.000Z</time>
      </trkpt>
      <trkpt lat="44.11187" lon="3.10985">
        <ele>793.40002441406</ele>
        <time>2014-09-13T07:51:39.000Z</time>
      </trkpt>
      <trkpt lat="44.11182" lon="3.10977">
        <ele>794.59997558594</ele>
        <time>2014-09-13T07:51:43.000Z</time>
      </trkpt>
      <trkpt lat="44.11171" lon="3.10966">
        <ele>795.40002441406</ele>
        <time>2014-09-13T07:51:48.000Z</time>
      </trkpt>
      <trkpt lat="44.11163" lon="3.10959">
        <ele>795.20001220703</ele>
        <time>2014-09-13T07:51:53.000Z</time>
      </trkpt>
      <trkpt lat="44.11149" lon="3.10956">
        <ele>794.79998779297</ele>
        <time>2014-09-13T07:51:59.000Z</time>
      </trkpt>
      <trkpt lat="44.11133" lon="3.10952">
        <ele>794.59997558594</ele>
        <time>2014-09-13T07:52:05.000Z</time>
      </trkpt>
      <trkpt lat="44.11122" lon="3.1095">
        <ele>794.79998779297</ele>
        <time>2014-09-13T07:52:09.000Z</time>
      </trkpt>
      <trkpt lat="44.11112" lon="3.10946">
        <ele>794.79998779297</ele>
        <time>2014-09-13T07:52:13.000Z</time>
      </trkpt>
      <trkpt lat="44.11101" lon="3.10939">
        <ele>795.20001220703</ele>
        <time>2014-09-13T07:52:18.000Z</time>
      </trkpt>
      <trkpt lat="44.11097" lon="3.10935">
        <ele>795.59997558594</ele>
        <time>2014-09-13T07:52:20.000Z</time>
      </trkpt>
      <trkpt lat="44.11096" lon="3.10933">
        <ele>795.79998779297</ele>
        <time>2014-09-13T07:52:21.000Z</time>
      </trkpt>
      <trkpt lat="44.11094" lon="3.10929">
        <ele>796.59997558594</ele>
        <time>2014-09-13T07:52:23.000Z</time>
      </trkpt>
      <trkpt lat="44.11093" lon="3.10927">
        <ele>796.79998779297</ele>
        <time>2014-09-13T07:52:24.000Z</time>
      </trkpt>
      <trkpt lat="44.11086" lon="3.10918">
        <ele>798</ele>
        <time>2014-09-13T07:52:29.000Z</time>
      </trkpt>
      <trkpt lat="44.11085" lon="3.10915">
        <ele>798.20001220703</ele>
        <time>2014-09-13T07:52:30.000Z</time>
      </trkpt>
      <trkpt lat="44.1108" lon="3.10907">
        <ele>799.20001220703</ele>
        <time>2014-09-13T07:52:34.000Z</time>
      </trkpt>
      <trkpt lat="44.11079" lon="3.10901">
        <ele>799.40002441406</ele>
        <time>2014-09-13T07:52:36.000Z</time>
      </trkpt>
      <trkpt lat="44.11071" lon="3.10881">
        <ele>800.20001220703</ele>
        <time>2014-09-13T07:52:43.000Z</time>
      </trkpt>
      <trkpt lat="44.1107" lon="3.10866">
        <ele>800.79998779297</ele>
        <time>2014-09-13T07:52:48.000Z</time>
      </trkpt>
      <trkpt lat="44.11069" lon="3.10848">
        <ele>801.20001220703</ele>
        <time>2014-09-13T07:52:54.000Z</time>
      </trkpt>
      <trkpt lat="44.1107" lon="3.10835">
        <ele>802.20001220703</ele>
        <time>2014-09-13T07:52:59.000Z</time>
      </trkpt>
      <trkpt lat="44.11071" lon="3.1083">
        <ele>802.59997558594</ele>
        <time>2014-09-13T07:53:01.000Z</time>
      </trkpt>
      <trkpt lat="44.11072" lon="3.10815">
        <ele>803.40002441406</ele>
        <time>2014-09-13T07:53:07.000Z</time>
      </trkpt>
      <trkpt lat="44.11073" lon="3.10801">
        <ele>804.20001220703</ele>
        <time>2014-09-13T07:53:14.000Z</time>
      </trkpt>
      <trkpt lat="44.11074" lon="3.10799">
        <ele>804.40002441406</ele>
        <time>2014-09-13T07:53:16.000Z</time>
      </trkpt>
      <trkpt lat="44.11075" lon="3.10791">
        <ele>804.59997558594</ele>
        <time>2014-09-13T07:53:21.000Z</time>
      </trkpt>
      <trkpt lat="44.11075" lon="3.10776">
        <ele>805.40002441406</ele>
        <time>2014-09-13T07:53:26.000Z</time>
      </trkpt>
      <trkpt lat="44.11077" lon="3.10772">
        <ele>806.20001220703</ele>
        <time>2014-09-13T07:53:28.000Z</time>
      </trkpt>
      <trkpt lat="44.11078" lon="3.1077">
        <ele>806.40002441406</ele>
        <time>2014-09-13T07:53:29.000Z</time>
      </trkpt>
      <trkpt lat="44.11079" lon="3.10763">
        <ele>807.20001220703</ele>
        <time>2014-09-13T07:53:33.000Z</time>
      </trkpt>
      <trkpt lat="44.11078" lon="3.10761">
        <ele>807.59997558594</ele>
        <time>2014-09-13T07:53:34.000Z</time>
      </trkpt>
      <trkpt lat="44.11075" lon="3.1076">
        <ele>808</ele>
        <time>2014-09-13T07:53:37.000Z</time>
      </trkpt>
      <trkpt lat="44.11071" lon="3.10758">
        <ele>808</ele>
        <time>2014-09-13T07:53:40.000Z</time>
      </trkpt>
      <trkpt lat="44.11068" lon="3.10755">
        <ele>808.79998779297</ele>
        <time>2014-09-13T07:53:43.000Z</time>
      </trkpt>
      <trkpt lat="44.11066" lon="3.10751">
        <ele>809.40002441406</ele>
        <time>2014-09-13T07:53:45.000Z</time>
      </trkpt>
      <trkpt lat="44.11066" lon="3.1075">
        <ele>810</ele>
        <time>2014-09-13T07:53:47.000Z</time>
      </trkpt>
      <trkpt lat="44.11066" lon="3.10743">
        <ele>811</ele>
        <time>2014-09-13T07:53:50.000Z</time>
      </trkpt>
      <trkpt lat="44.11066" lon="3.10742">
        <ele>811.20001220703</ele>
        <time>2014-09-13T07:53:51.000Z</time>
      </trkpt>
      <trkpt lat="44.11064" lon="3.10738">
        <ele>811.79998779297</ele>
        <time>2014-09-13T07:53:53.000Z</time>
      </trkpt>
      <trkpt lat="44.11065" lon="3.10739">
        <ele>812</ele>
        <time>2014-09-13T07:53:54.000Z</time>
      </trkpt>
      <trkpt lat="44.11062" lon="3.10732">
        <ele>813</ele>
        <time>2014-09-13T07:53:57.000Z</time>
      </trkpt>
      <trkpt lat="44.11061" lon="3.10731">
        <ele>813.20001220703</ele>
        <time>2014-09-13T07:53:58.000Z</time>
      </trkpt>
      <trkpt lat="44.11061" lon="3.10725">
        <ele>814.20001220703</ele>
        <time>2014-09-13T07:54:01.000Z</time>
      </trkpt>
      <trkpt lat="44.11061" lon="3.10722">
        <ele>814.79998779297</ele>
        <time>2014-09-13T07:54:03.000Z</time>
      </trkpt>
      <trkpt lat="44.11061" lon="3.10719">
        <ele>815.40002441406</ele>
        <time>2014-09-13T07:54:05.000Z</time>
      </trkpt>
      <trkpt lat="44.1106" lon="3.10712">
        <ele>816.59997558594</ele>
        <time>2014-09-13T07:54:09.000Z</time>
      </trkpt>
      <trkpt lat="44.11059" lon="3.1071">
        <ele>817</ele>
        <time>2014-09-13T07:54:11.000Z</time>
      </trkpt>
      <trkpt lat="44.11059" lon="3.10705">
        <ele>817.59997558594</ele>
        <time>2014-09-13T07:54:13.000Z</time>
      </trkpt>
      <trkpt lat="44.11059" lon="3.10695">
        <ele>818.59997558594</ele>
        <time>2014-09-13T07:54:17.000Z</time>
      </trkpt>
      <trkpt lat="44.11059" lon="3.10695">
        <ele>818.79998779297</ele>
        <time>2014-09-13T07:54:18.000Z</time>
      </trkpt>
      <trkpt lat="44.11057" lon="3.10687">
        <ele>819.59997558594</ele>
        <time>2014-09-13T07:54:22.000Z</time>
      </trkpt>
      <trkpt lat="44.11056" lon="3.10684">
        <ele>820</ele>
        <time>2014-09-13T07:54:24.000Z</time>
      </trkpt>
      <trkpt lat="44.11055" lon="3.10682">
        <ele>820.79998779297</ele>
        <time>2014-09-13T07:54:27.000Z</time>
      </trkpt>
      <trkpt lat="44.11055" lon="3.10682">
        <ele>821.40002441406</ele>
        <time>2014-09-13T07:54:29.000Z</time>
      </trkpt>
      <trkpt lat="44.11051" lon="3.10681">
        <ele>821.79998779297</ele>
        <time>2014-09-13T07:54:32.000Z</time>
      </trkpt>
      <trkpt lat="44.11049" lon="3.10682">
        <ele>822</ele>
        <time>2014-09-13T07:54:33.000Z</time>
      </trkpt>
      <trkpt lat="44.11035" lon="3.10685">
        <ele>821</ele>
        <time>2014-09-13T07:54:39.000Z</time>
      </trkpt>
      <trkpt lat="44.11021" lon="3.10679">
        <ele>821.79998779297</ele>
        <time>2014-09-13T07:54:45.000Z</time>
      </trkpt>
      <trkpt lat="44.11012" lon="3.10671">
        <ele>822.40002441406</ele>
        <time>2014-09-13T07:54:50.000Z</time>
      </trkpt>
      <trkpt lat="44.11006" lon="3.10663">
        <ele>823.59997558594</ele>
        <time>2014-09-13T07:54:54.000Z</time>
      </trkpt>
      <trkpt lat="44.10995" lon="3.10658">
        <ele>823.59997558594</ele>
        <time>2014-09-13T07:54:59.000Z</time>
      </trkpt>
      <trkpt lat="44.10987" lon="3.10652">
        <ele>822.79998779297</ele>
        <time>2014-09-13T07:55:03.000Z</time>
      </trkpt>
      <trkpt lat="44.10984" lon="3.10638">
        <ele>822.79998779297</ele>
        <time>2014-09-13T07:55:07.000Z</time>
      </trkpt>
      <trkpt lat="44.10981" lon="3.10624">
        <ele>823.40002441406</ele>
        <time>2014-09-13T07:55:12.000Z</time>
      </trkpt>
      <trkpt lat="44.10981" lon="3.10614">
        <ele>824.20001220703</ele>
        <time>2014-09-13T07:55:16.000Z</time>
      </trkpt>
      <trkpt lat="44.10981" lon="3.10611">
        <ele>824.79998779297</ele>
        <time>2014-09-13T07:55:17.000Z</time>
      </trkpt>
      <trkpt lat="44.10981" lon="3.10608">
        <ele>825</ele>
        <time>2014-09-13T07:55:18.000Z</time>
      </trkpt>
      <trkpt lat="44.10983" lon="3.10598">
        <ele>826</ele>
        <time>2014-09-13T07:55:22.000Z</time>
      </trkpt>
      <trkpt lat="44.10984" lon="3.10597">
        <ele>826.40002441406</ele>
        <time>2014-09-13T07:55:23.000Z</time>
      </trkpt>
      <trkpt lat="44.10985" lon="3.10598">
        <ele>827</ele>
        <time>2014-09-13T07:55:25.000Z</time>
      </trkpt>
      <trkpt lat="44.10986" lon="3.10599">
        <ele>827.79998779297</ele>
        <time>2014-09-13T07:55:28.000Z</time>
      </trkpt>
      <trkpt lat="44.10987" lon="3.106">
        <ele>828.20001220703</ele>
        <time>2014-09-13T07:55:30.000Z</time>
      </trkpt>
      <trkpt lat="44.10989" lon="3.10601">
        <ele>829.40002441406</ele>
        <time>2014-09-13T07:55:33.000Z</time>
      </trkpt>
      <trkpt lat="44.10989" lon="3.10597">
        <ele>830.40002441406</ele>
        <time>2014-09-13T07:55:36.000Z</time>
      </trkpt>
      <trkpt lat="44.10988" lon="3.10597">
        <ele>830.59997558594</ele>
        <time>2014-09-13T07:55:37.000Z</time>
      </trkpt>
      <trkpt lat="44.10988" lon="3.1059">
        <ele>831.40002441406</ele>
        <time>2014-09-13T07:55:41.000Z</time>
      </trkpt>
      <trkpt lat="44.10988" lon="3.10588">
        <ele>831.59997558594</ele>
        <time>2014-09-13T07:55:43.000Z</time>
      </trkpt>
      <trkpt lat="44.10988" lon="3.10584">
        <ele>831.79998779297</ele>
        <time>2014-09-13T07:55:45.000Z</time>
      </trkpt>
      <trkpt lat="44.10987" lon="3.10571">
        <ele>832.59997558594</ele>
        <time>2014-09-13T07:55:50.000Z</time>
      </trkpt>
      <trkpt lat="44.10987" lon="3.10568">
        <ele>832.59997558594</ele>
        <time>2014-09-13T07:55:52.000Z</time>
      </trkpt>
      <trkpt lat="44.10987" lon="3.10566">
        <ele>832.79998779297</ele>
        <time>2014-09-13T07:55:53.000Z</time>
      </trkpt>
      <trkpt lat="44.10988" lon="3.10559">
        <ele>833.79998779297</ele>
        <time>2014-09-13T07:55:56.000Z</time>
      </trkpt>
      <trkpt lat="44.10988" lon="3.10558">
        <ele>834</ele>
        <time>2014-09-13T07:55:57.000Z</time>
      </trkpt>
      <trkpt lat="44.10993" lon="3.1055">
        <ele>835.20001220703</ele>
        <time>2014-09-13T07:56:02.000Z</time>
      </trkpt>
      <trkpt lat="44.10995" lon="3.10549">
        <ele>835.59997558594</ele>
        <time>2014-09-13T07:56:03.000Z</time>
      </trkpt>
      <trkpt lat="44.10998" lon="3.10544">
        <ele>836.59997558594</ele>
        <time>2014-09-13T07:56:06.000Z</time>
      </trkpt>
      <trkpt lat="44.11" lon="3.10536">
        <ele>837.20001220703</ele>
        <time>2014-09-13T07:56:09.000Z</time>
      </trkpt>
      <trkpt lat="44.11" lon="3.10533">
        <ele>837.40002441406</ele>
        <time>2014-09-13T07:56:11.000Z</time>
      </trkpt>
      <trkpt lat="44.10999" lon="3.10533">
        <ele>837.40002441406</ele>
        <time>2014-09-13T07:56:13.000Z</time>
      </trkpt>
      <trkpt lat="44.10997" lon="3.10518">
        <ele>837.79998779297</ele>
        <time>2014-09-13T07:56:22.000Z</time>
      </trkpt>
      <trkpt lat="44.10998" lon="3.10499">
        <ele>837.79998779297</ele>
        <time>2014-09-13T07:56:29.000Z</time>
      </trkpt>
      <trkpt lat="44.11" lon="3.10482">
        <ele>837.79998779297</ele>
        <time>2014-09-13T07:56:35.000Z</time>
      </trkpt>
      <trkpt lat="44.11" lon="3.10476">
        <ele>837.59997558594</ele>
        <time>2014-09-13T07:56:41.000Z</time>
      </trkpt>
      <trkpt lat="44.11" lon="3.10467">
        <ele>837.40002441406</ele>
        <time>2014-09-13T07:56:48.000Z</time>
      </trkpt>
      <trkpt lat="44.11004" lon="3.1045">
        <ele>836.59997558594</ele>
        <time>2014-09-13T07:56:54.000Z</time>
      </trkpt>
      <trkpt lat="44.11009" lon="3.10433">
        <ele>836.20001220703</ele>
        <time>2014-09-13T07:56:59.000Z</time>
      </trkpt>
      <trkpt lat="44.11011" lon="3.10417">
        <ele>835.40002441406</ele>
        <time>2014-09-13T07:57:03.000Z</time>
      </trkpt>
      <trkpt lat="44.11011" lon="3.10413">
        <ele>835.20001220703</ele>
        <time>2014-09-13T07:57:04.000Z</time>
      </trkpt>
      <trkpt lat="44.11013" lon="3.10398">
        <ele>834.79998779297</ele>
        <time>2014-09-13T07:57:08.000Z</time>
      </trkpt>
      <trkpt lat="44.11016" lon="3.10378">
        <ele>834.79998779297</ele>
        <time>2014-09-13T07:57:13.000Z</time>
      </trkpt>
      <trkpt lat="44.11019" lon="3.1036">
        <ele>835.40002441406</ele>
        <time>2014-09-13T07:57:18.000Z</time>
      </trkpt>
      <trkpt lat="44.11021" lon="3.10343">
        <ele>836</ele>
        <time>2014-09-13T07:57:23.000Z</time>
      </trkpt>
      <trkpt lat="44.11022" lon="3.10332">
        <ele>836.59997558594</ele>
        <time>2014-09-13T07:57:26.000Z</time>
      </trkpt>
      <trkpt lat="44.11022" lon="3.10329">
        <ele>836.59997558594</ele>
        <time>2014-09-13T07:57:27.000Z</time>
      </trkpt>
      <trkpt lat="44.11022" lon="3.10316">
        <ele>837.59997558594</ele>
        <time>2014-09-13T07:57:31.000Z</time>
      </trkpt>
      <trkpt lat="44.11021" lon="3.10312">
        <ele>837.79998779297</ele>
        <time>2014-09-13T07:57:32.000Z</time>
      </trkpt>
      <trkpt lat="44.11022" lon="3.10298">
        <ele>838.20001220703</ele>
        <time>2014-09-13T07:57:36.000Z</time>
      </trkpt>
      <trkpt lat="44.11023" lon="3.10289">
        <ele>838.79998779297</ele>
        <time>2014-09-13T07:57:39.000Z</time>
      </trkpt>
      <trkpt lat="44.11021" lon="3.10283">
        <ele>839.20001220703</ele>
        <time>2014-09-13T07:57:41.000Z</time>
      </trkpt>
      <trkpt lat="44.11019" lon="3.10276">
        <ele>839.79998779297</ele>
        <time>2014-09-13T07:57:44.000Z</time>
      </trkpt>
      <trkpt lat="44.11019" lon="3.10273">
        <ele>840</ele>
        <time>2014-09-13T07:57:45.000Z</time>
      </trkpt>
      <trkpt lat="44.11018" lon="3.10268">
        <ele>840</ele>
        <time>2014-09-13T07:57:47.000Z</time>
      </trkpt>
      <trkpt lat="44.11018" lon="3.10262">
        <ele>839.59997558594</ele>
        <time>2014-09-13T07:57:49.000Z</time>
      </trkpt>
      <trkpt lat="44.11022" lon="3.10254">
        <ele>838.79998779297</ele>
        <time>2014-09-13T07:57:52.000Z</time>
      </trkpt>
      <trkpt lat="44.11023" lon="3.10252">
        <ele>838.79998779297</ele>
        <time>2014-09-13T07:57:53.000Z</time>
      </trkpt>
      <trkpt lat="44.11022" lon="3.10243">
        <ele>838.59997558594</ele>
        <time>2014-09-13T07:57:55.000Z</time>
      </trkpt>
      <trkpt lat="44.1102" lon="3.10235">
        <ele>838</ele>
        <time>2014-09-13T07:57:57.000Z</time>
      </trkpt>
      <trkpt lat="44.11018" lon="3.10225">
        <ele>837.40002441406</ele>
        <time>2014-09-13T07:58:00.000Z</time>
      </trkpt>
      <trkpt lat="44.11016" lon="3.10221">
        <ele>837</ele>
        <time>2014-09-13T07:58:02.000Z</time>
      </trkpt>
      <trkpt lat="44.11013" lon="3.10214">
        <ele>836.40002441406</ele>
        <time>2014-09-13T07:58:05.000Z</time>
      </trkpt>
      <trkpt lat="44.11012" lon="3.10211">
        <ele>835.40002441406</ele>
        <time>2014-09-13T07:58:07.000Z</time>
      </trkpt>
      <trkpt lat="44.11012" lon="3.10209">
        <ele>835</ele>
        <time>2014-09-13T07:58:08.000Z</time>
      </trkpt>
      <trkpt lat="44.11012" lon="3.10206">
        <ele>834</ele>
        <time>2014-09-13T07:58:10.000Z</time>
      </trkpt>
      <trkpt lat="44.1101" lon="3.10203">
        <ele>833</ele>
        <time>2014-09-13T07:58:12.000Z</time>
      </trkpt>
      <trkpt lat="44.11009" lon="3.10201">
        <ele>832.59997558594</ele>
        <time>2014-09-13T07:58:13.000Z</time>
      </trkpt>
      <trkpt lat="44.11008" lon="3.10196">
        <ele>831.40002441406</ele>
        <time>2014-09-13T07:58:15.000Z</time>
      </trkpt>
      <trkpt lat="44.11009" lon="3.10191">
        <ele>830.59997558594</ele>
        <time>2014-09-13T07:58:17.000Z</time>
      </trkpt>
      <trkpt lat="44.11009" lon="3.10189">
        <ele>830.20001220703</ele>
        <time>2014-09-13T07:58:18.000Z</time>
      </trkpt>
      <trkpt lat="44.11008" lon="3.10179">
        <ele>828.79998779297</ele>
        <time>2014-09-13T07:58:21.000Z</time>
      </trkpt>
      <trkpt lat="44.11008" lon="3.10176">
        <ele>828.20001220703</ele>
        <time>2014-09-13T07:58:22.000Z</time>
      </trkpt>
      <trkpt lat="44.11006" lon="3.10172">
        <ele>827.20001220703</ele>
        <time>2014-09-13T07:58:24.000Z</time>
      </trkpt>
      <trkpt lat="44.11004" lon="3.10162">
        <ele>826.40002441406</ele>
        <time>2014-09-13T07:58:27.000Z</time>
      </trkpt>
      <trkpt lat="44.11004" lon="3.1016">
        <ele>826</ele>
        <time>2014-09-13T07:58:28.000Z</time>
      </trkpt>
      <trkpt lat="44.11002" lon="3.10155">
        <ele>824.59997558594</ele>
        <time>2014-09-13T07:58:30.000Z</time>
      </trkpt>
      <trkpt lat="44.11003" lon="3.10149">
        <ele>824</ele>
        <time>2014-09-13T07:58:32.000Z</time>
      </trkpt>
      <trkpt lat="44.11006" lon="3.10143">
        <ele>823.59997558594</ele>
        <time>2014-09-13T07:58:34.000Z</time>
      </trkpt>
      <trkpt lat="44.1101" lon="3.10136">
        <ele>822.79998779297</ele>
        <time>2014-09-13T07:58:37.000Z</time>
      </trkpt>
      <trkpt lat="44.11011" lon="3.10134">
        <ele>822.59997558594</ele>
        <time>2014-09-13T07:58:38.000Z</time>
      </trkpt>
      <trkpt lat="44.11014" lon="3.10126">
        <ele>821.59997558594</ele>
        <time>2014-09-13T07:58:42.000Z</time>
      </trkpt>
      <trkpt lat="44.11015" lon="3.10126">
        <ele>821.40002441406</ele>
        <time>2014-09-13T07:58:45.000Z</time>
      </trkpt>
      <trkpt lat="44.11015" lon="3.10126">
        <ele>821</ele>
        <time>2014-09-13T07:58:47.000Z</time>
      </trkpt>
      <trkpt lat="44.11014" lon="3.10127">
        <ele>821.20001220703</ele>
        <time>2014-09-13T07:58:53.000Z</time>
      </trkpt>
      <trkpt lat="44.11014" lon="3.10126">
        <ele>821.59997558594</ele>
        <time>2014-09-13T07:58:59.000Z</time>
      </trkpt>
      <trkpt lat="44.11014" lon="3.10126">
        <ele>821</ele>
        <time>2014-09-13T07:59:07.000Z</time>
      </trkpt>
      <trkpt lat="44.11014" lon="3.10126">
        <ele>821.20001220703</ele>
        <time>2014-09-13T07:59:17.000Z</time>
      </trkpt>
      <trkpt lat="44.11015" lon="3.10124">
        <ele>821</ele>
        <time>2014-09-13T07:59:22.000Z</time>
      </trkpt>
      <trkpt lat="44.11016" lon="3.10127">
        <ele>820.79998779297</ele>
        <time>2014-09-13T07:59:27.000Z</time>
      </trkpt>
      <trkpt lat="44.11019" lon="3.10135">
        <ele>821.59997558594</ele>
        <time>2014-09-13T07:59:33.000Z</time>
      </trkpt>
      <trkpt lat="44.1102" lon="3.10137">
        <ele>821.59997558594</ele>
        <time>2014-09-13T07:59:34.000Z</time>
      </trkpt>
      <trkpt lat="44.11022" lon="3.10142">
        <ele>821.79998779297</ele>
        <time>2014-09-13T07:59:37.000Z</time>
      </trkpt>
      <trkpt lat="44.11025" lon="3.10146">
        <ele>822.40002441406</ele>
        <time>2014-09-13T07:59:41.000Z</time>
      </trkpt>
      <trkpt lat="44.11026" lon="3.10148">
        <ele>822.59997558594</ele>
        <time>2014-09-13T07:59:42.000Z</time>
      </trkpt>
      <trkpt lat="44.11033" lon="3.1016">
        <ele>823.59997558594</ele>
        <time>2014-09-13T07:59:48.000Z</time>
      </trkpt>
      <trkpt lat="44.11037" lon="3.10166">
        <ele>823.79998779297</ele>
        <time>2014-09-13T07:59:51.000Z</time>
      </trkpt>
      <trkpt lat="44.1104" lon="3.1017">
        <ele>824.59997558594</ele>
        <time>2014-09-13T07:59:54.000Z</time>
      </trkpt>
      <trkpt lat="44.11043" lon="3.10176">
        <ele>825</ele>
        <time>2014-09-13T07:59:56.000Z</time>
      </trkpt>
      <trkpt lat="44.11043" lon="3.10181">
        <ele>825.59997558594</ele>
        <time>2014-09-13T07:59:58.000Z</time>
      </trkpt>
      <trkpt lat="44.11041" lon="3.10186">
        <ele>826.40002441406</ele>
        <time>2014-09-13T08:00:00.000Z</time>
      </trkpt>
      <trkpt lat="44.11043" lon="3.10188">
        <ele>826.79998779297</ele>
        <time>2014-09-13T08:00:01.000Z</time>
      </trkpt>
      <trkpt lat="44.11045" lon="3.10191">
        <ele>827.40002441406</ele>
        <time>2014-09-13T08:00:03.000Z</time>
      </trkpt>
      <trkpt lat="44.11047" lon="3.10192">
        <ele>827.40002441406</ele>
        <time>2014-09-13T08:00:04.000Z</time>
      </trkpt>
      <trkpt lat="44.11048" lon="3.10195">
        <ele>827.59997558594</ele>
        <time>2014-09-13T08:00:05.000Z</time>
      </trkpt>
      <trkpt lat="44.11052" lon="3.10198">
        <ele>828.59997558594</ele>
        <time>2014-09-13T08:00:08.000Z</time>
      </trkpt>
      <trkpt lat="44.11059" lon="3.10209">
        <ele>829.59997558594</ele>
        <time>2014-09-13T08:00:13.000Z</time>
      </trkpt>
      <trkpt lat="44.1106" lon="3.10212">
        <ele>829.79998779297</ele>
        <time>2014-09-13T08:00:14.000Z</time>
      </trkpt>
      <trkpt lat="44.11065" lon="3.10224">
        <ele>830.59997558594</ele>
        <time>2014-09-13T08:00:19.000Z</time>
      </trkpt>
      <trkpt lat="44.11066" lon="3.10227">
        <ele>831</ele>
        <time>2014-09-13T08:00:20.000Z</time>
      </trkpt>
      <trkpt lat="44.1107" lon="3.10241">
        <ele>831.59997558594</ele>
        <time>2014-09-13T08:00:25.000Z</time>
      </trkpt>
      <trkpt lat="44.11071" lon="3.10249">
        <ele>832.20001220703</ele>
        <time>2014-09-13T08:00:28.000Z</time>
      </trkpt>
      <trkpt lat="44.11072" lon="3.10254">
        <ele>832.79998779297</ele>
        <time>2014-09-13T08:00:30.000Z</time>
      </trkpt>
      <trkpt lat="44.11071" lon="3.10259">
        <ele>833.40002441406</ele>
        <time>2014-09-13T08:00:32.000Z</time>
      </trkpt>
      <trkpt lat="44.11073" lon="3.10266">
        <ele>834.20001220703</ele>
        <time>2014-09-13T08:00:35.000Z</time>
      </trkpt>
      <trkpt lat="44.11077" lon="3.10281">
        <ele>833.79998779297</ele>
        <time>2014-09-13T08:00:40.000Z</time>
      </trkpt>
      <trkpt lat="44.11083" lon="3.10298">
        <ele>833.79998779297</ele>
        <time>2014-09-13T08:00:47.000Z</time>
      </trkpt>
      <trkpt lat="44.11088" lon="3.10317">
        <ele>834</ele>
        <time>2014-09-13T08:00:53.000Z</time>
      </trkpt>
      <trkpt lat="44.11092" lon="3.1033">
        <ele>834.40002441406</ele>
        <time>2014-09-13T08:00:58.000Z</time>
      </trkpt>
      <trkpt lat="44.11094" lon="3.10332">
        <ele>834.40002441406</ele>
        <time>2014-09-13T08:00:59.000Z</time>
      </trkpt>
      <trkpt lat="44.11102" lon="3.10346">
        <ele>834.20001220703</ele>
        <time>2014-09-13T08:01:05.000Z</time>
      </trkpt>
      <trkpt lat="44.11111" lon="3.10361">
        <ele>835</ele>
        <time>2014-09-13T08:01:12.000Z</time>
      </trkpt>
      <trkpt lat="44.11124" lon="3.10379">
        <ele>834</ele>
        <time>2014-09-13T08:01:19.000Z</time>
      </trkpt>
      <trkpt lat="44.11132" lon="3.10395">
        <ele>833.79998779297</ele>
        <time>2014-09-13T08:01:24.000Z</time>
      </trkpt>
      <trkpt lat="44.11136" lon="3.10399">
        <ele>833.20001220703</ele>
        <time>2014-09-13T08:01:26.000Z</time>
      </trkpt>
      <trkpt lat="44.11142" lon="3.10403">
        <ele>832.79998779297</ele>
        <time>2014-09-13T08:01:29.000Z</time>
      </trkpt>
      <trkpt lat="44.11144" lon="3.10406">
        <ele>832.40002441406</ele>
        <time>2014-09-13T08:01:30.000Z</time>
      </trkpt>
      <trkpt lat="44.11146" lon="3.10413">
        <ele>832.20001220703</ele>
        <time>2014-09-13T08:01:32.000Z</time>
      </trkpt>
      <trkpt lat="44.11156" lon="3.10427">
        <ele>832</ele>
        <time>2014-09-13T08:01:37.000Z</time>
      </trkpt>
      <trkpt lat="44.11166" lon="3.10438">
        <ele>831.20001220703</ele>
        <time>2014-09-13T08:01:42.000Z</time>
      </trkpt>
      <trkpt lat="44.11166" lon="3.10442">
        <ele>830.79998779297</ele>
        <time>2014-09-13T08:01:43.000Z</time>
      </trkpt>
      <trkpt lat="44.11167" lon="3.10447">
        <ele>830.20001220703</ele>
        <time>2014-09-13T08:01:45.000Z</time>
      </trkpt>
      <trkpt lat="44.11168" lon="3.10448">
        <ele>829.79998779297</ele>
        <time>2014-09-13T08:01:48.000Z</time>
      </trkpt>
      <trkpt lat="44.11168" lon="3.10448">
        <ele>829.59997558594</ele>
        <time>2014-09-13T08:01:50.000Z</time>
      </trkpt>
      <trkpt lat="44.11172" lon="3.10444">
        <ele>828.59997558594</ele>
        <time>2014-09-13T08:01:55.000Z</time>
      </trkpt>
      <trkpt lat="44.11174" lon="3.10441">
        <ele>828.40002441406</ele>
        <time>2014-09-13T08:01:56.000Z</time>
      </trkpt>
      <trkpt lat="44.11175" lon="3.10439">
        <ele>828</ele>
        <time>2014-09-13T08:01:57.000Z</time>
      </trkpt>
      <trkpt lat="44.11179" lon="3.10435">
        <ele>827.59997558594</ele>
        <time>2014-09-13T08:01:59.000Z</time>
      </trkpt>
      <trkpt lat="44.11184" lon="3.1043">
        <ele>826.20001220703</ele>
        <time>2014-09-13T08:02:02.000Z</time>
      </trkpt>
      <trkpt lat="44.11188" lon="3.10428">
        <ele>825.20001220703</ele>
        <time>2014-09-13T08:02:04.000Z</time>
      </trkpt>
      <trkpt lat="44.11192" lon="3.10425">
        <ele>824</ele>
        <time>2014-09-13T08:02:06.000Z</time>
      </trkpt>
      <trkpt lat="44.11193" lon="3.10423">
        <ele>823</ele>
        <time>2014-09-13T08:02:07.000Z</time>
      </trkpt>
      <trkpt lat="44.11197" lon="3.1042">
        <ele>822</ele>
        <time>2014-09-13T08:02:09.000Z</time>
      </trkpt>
      <trkpt lat="44.11199" lon="3.10419">
        <ele>821.40002441406</ele>
        <time>2014-09-13T08:02:10.000Z</time>
      </trkpt>
      <trkpt lat="44.11204" lon="3.10419">
        <ele>820.79998779297</ele>
        <time>2014-09-13T08:02:12.000Z</time>
      </trkpt>
      <trkpt lat="44.1121" lon="3.10417">
        <ele>819.40002441406</ele>
        <time>2014-09-13T08:02:15.000Z</time>
      </trkpt>
      <trkpt lat="44.11215" lon="3.10416">
        <ele>818.40002441406</ele>
        <time>2014-09-13T08:02:17.000Z</time>
      </trkpt>
      <trkpt lat="44.11217" lon="3.10414">
        <ele>818</ele>
        <time>2014-09-13T08:02:18.000Z</time>
      </trkpt>
      <trkpt lat="44.11225" lon="3.10409">
        <ele>817</ele>
        <time>2014-09-13T08:02:21.000Z</time>
      </trkpt>
      <trkpt lat="44.11229" lon="3.10407">
        <ele>816.20001220703</ele>
        <time>2014-09-13T08:02:23.000Z</time>
      </trkpt>
      <trkpt lat="44.11231" lon="3.10405">
        <ele>816</ele>
        <time>2014-09-13T08:02:24.000Z</time>
      </trkpt>
      <trkpt lat="44.11235" lon="3.10402">
        <ele>814.79998779297</ele>
        <time>2014-09-13T08:02:26.000Z</time>
      </trkpt>
      <trkpt lat="44.11237" lon="3.10398">
        <ele>813.79998779297</ele>
        <time>2014-09-13T08:02:28.000Z</time>
      </trkpt>
      <trkpt lat="44.11238" lon="3.10396">
        <ele>813.40002441406</ele>
        <time>2014-09-13T08:02:29.000Z</time>
      </trkpt>
      <trkpt lat="44.11241" lon="3.10393">
        <ele>811.79998779297</ele>
        <time>2014-09-13T08:02:31.000Z</time>
      </trkpt>
      <trkpt lat="44.11245" lon="3.10389">
        <ele>810.59997558594</ele>
        <time>2014-09-13T08:02:34.000Z</time>
      </trkpt>
      <trkpt lat="44.11248" lon="3.10386">
        <ele>809.20001220703</ele>
        <time>2014-09-13T08:02:37.000Z</time>
      </trkpt>
      <trkpt lat="44.11249" lon="3.10385">
        <ele>808</ele>
        <time>2014-09-13T08:02:40.000Z</time>
      </trkpt>
      <trkpt lat="44.11248" lon="3.10383">
        <ele>807.20001220703</ele>
        <time>2014-09-13T08:02:41.000Z</time>
      </trkpt>
      <trkpt lat="44.11249" lon="3.10381">
        <ele>806.59997558594</ele>
        <time>2014-09-13T08:02:42.000Z</time>
      </trkpt>
      <trkpt lat="44.11249" lon="3.10379">
        <ele>805.59997558594</ele>
        <time>2014-09-13T08:02:44.000Z</time>
      </trkpt>
      <trkpt lat="44.11251" lon="3.10378">
        <ele>804.59997558594</ele>
        <time>2014-09-13T08:02:46.000Z</time>
      </trkpt>
      <trkpt lat="44.11251" lon="3.10375">
        <ele>804</ele>
        <time>2014-09-13T08:02:47.000Z</time>
      </trkpt>
      <trkpt lat="44.11251" lon="3.10376">
        <ele>803.40002441406</ele>
        <time>2014-09-13T08:02:48.000Z</time>
      </trkpt>
      <trkpt lat="44.11252" lon="3.10371">
        <ele>802</ele>
        <time>2014-09-13T08:02:51.000Z</time>
      </trkpt>
      <trkpt lat="44.11254" lon="3.1037">
        <ele>801</ele>
        <time>2014-09-13T08:02:53.000Z</time>
      </trkpt>
      <trkpt lat="44.11255" lon="3.10369">
        <ele>800.79998779297</ele>
        <time>2014-09-13T08:02:54.000Z</time>
      </trkpt>
      <trkpt lat="44.11256" lon="3.10366">
        <ele>799.40002441406</ele>
        <time>2014-09-13T08:02:56.000Z</time>
      </trkpt>
      <trkpt lat="44.11258" lon="3.10364">
        <ele>798.20001220703</ele>
        <time>2014-09-13T08:03:00.000Z</time>
      </trkpt>
      <trkpt lat="44.11257" lon="3.10361">
        <ele>796.79998779297</ele>
        <time>2014-09-13T08:03:03.000Z</time>
      </trkpt>
      <trkpt lat="44.11257" lon="3.10359">
        <ele>796</ele>
        <time>2014-09-13T08:03:05.000Z</time>
      </trkpt>
      <trkpt lat="44.11258" lon="3.10357">
        <ele>795.20001220703</ele>
        <time>2014-09-13T08:03:08.000Z</time>
      </trkpt>
      <trkpt lat="44.1126" lon="3.10356">
        <ele>794</ele>
        <time>2014-09-13T08:03:10.000Z</time>
      </trkpt>
      <trkpt lat="44.11261" lon="3.10356">
        <ele>793.40002441406</ele>
        <time>2014-09-13T08:03:11.000Z</time>
      </trkpt>
      <trkpt lat="44.11262" lon="3.10356">
        <ele>793</ele>
        <time>2014-09-13T08:03:12.000Z</time>
      </trkpt>
      <trkpt lat="44.11263" lon="3.10356">
        <ele>792.79998779297</ele>
        <time>2014-09-13T08:03:13.000Z</time>
      </trkpt>
      <trkpt lat="44.11266" lon="3.10354">
        <ele>792</ele>
        <time>2014-09-13T08:03:17.000Z</time>
      </trkpt>
      <trkpt lat="44.11267" lon="3.10354">
        <ele>791.59997558594</ele>
        <time>2014-09-13T08:03:18.000Z</time>
      </trkpt>
      <trkpt lat="44.11267" lon="3.10354">
        <ele>791.20001220703</ele>
        <time>2014-09-13T08:03:19.000Z</time>
      </trkpt>
      <trkpt lat="44.11267" lon="3.10353">
        <ele>790.79998779297</ele>
        <time>2014-09-13T08:03:25.000Z</time>
      </trkpt>
      <trkpt lat="44.11268" lon="3.10351">
        <ele>790.59997558594</ele>
        <time>2014-09-13T08:03:31.000Z</time>
      </trkpt>
      <trkpt lat="44.11268" lon="3.10351">
        <ele>790.59997558594</ele>
        <time>2014-09-13T08:03:32.000Z</time>
      </trkpt>
      <trkpt lat="44.11269" lon="3.10349">
        <ele>789.59997558594</ele>
        <time>2014-09-13T08:03:40.000Z</time>
      </trkpt>
      <trkpt lat="44.11271" lon="3.10347">
        <ele>789</ele>
        <time>2014-09-13T08:03:42.000Z</time>
      </trkpt>
      <trkpt lat="44.11272" lon="3.10346">
        <ele>788</ele>
        <time>2014-09-13T08:03:43.000Z</time>
      </trkpt>
      <trkpt lat="44.11274" lon="3.10342">
        <ele>786.79998779297</ele>
        <time>2014-09-13T08:03:46.000Z</time>
      </trkpt>
      <trkpt lat="44.11274" lon="3.10339">
        <ele>786</ele>
        <time>2014-09-13T08:03:48.000Z</time>
      </trkpt>
      <trkpt lat="44.11275" lon="3.10337">
        <ele>785.59997558594</ele>
        <time>2014-09-13T08:03:49.000Z</time>
      </trkpt>
      <trkpt lat="44.11275" lon="3.10337">
        <ele>784.40002441406</ele>
        <time>2014-09-13T08:03:51.000Z</time>
      </trkpt>
      <trkpt lat="44.11276" lon="3.10335">
        <ele>783.20001220703</ele>
        <time>2014-09-13T08:03:53.000Z</time>
      </trkpt>
      <trkpt lat="44.11278" lon="3.10334">
        <ele>783.20001220703</ele>
        <time>2014-09-13T08:03:54.000Z</time>
      </trkpt>
      <trkpt lat="44.1128" lon="3.10332">
        <ele>782</ele>
        <time>2014-09-13T08:03:58.000Z</time>
      </trkpt>
      <trkpt lat="44.11279" lon="3.10329">
        <ele>780.59997558594</ele>
        <time>2014-09-13T08:04:01.000Z</time>
      </trkpt>
      <trkpt lat="44.11276" lon="3.10325">
        <ele>779.40002441406</ele>
        <time>2014-09-13T08:04:04.000Z</time>
      </trkpt>
      <trkpt lat="44.11275" lon="3.10322">
        <ele>777.79998779297</ele>
        <time>2014-09-13T08:04:07.000Z</time>
      </trkpt>
      <trkpt lat="44.11274" lon="3.10319">
        <ele>776.40002441406</ele>
        <time>2014-09-13T08:04:09.000Z</time>
      </trkpt>
      <trkpt lat="44.11274" lon="3.10318">
        <ele>776.20001220703</ele>
        <time>2014-09-13T08:04:10.000Z</time>
      </trkpt>
      <trkpt lat="44.11274" lon="3.10318">
        <ele>775.20001220703</ele>
        <time>2014-09-13T08:04:16.000Z</time>
      </trkpt>
      <trkpt lat="44.11275" lon="3.10316">
        <ele>773.79998779297</ele>
        <time>2014-09-13T08:04:19.000Z</time>
      </trkpt>
      <trkpt lat="44.11276" lon="3.10314">
        <ele>772.59997558594</ele>
        <time>2014-09-13T08:04:22.000Z</time>
      </trkpt>
      <trkpt lat="44.11277" lon="3.10313">
        <ele>772.20001220703</ele>
        <time>2014-09-13T08:04:23.000Z</time>
      </trkpt>
      <trkpt lat="44.11277" lon="3.1031">
        <ele>771.40002441406</ele>
        <time>2014-09-13T08:04:25.000Z</time>
      </trkpt>
      <trkpt lat="44.11277" lon="3.10307">
        <ele>770</ele>
        <time>2014-09-13T08:04:28.000Z</time>
      </trkpt>
      <trkpt lat="44.11275" lon="3.10304">
        <ele>769</ele>
        <time>2014-09-13T08:04:30.000Z</time>
      </trkpt>
      <trkpt lat="44.11274" lon="3.10302">
        <ele>768.20001220703</ele>
        <time>2014-09-13T08:04:31.000Z</time>
      </trkpt>
      <trkpt lat="44.11269" lon="3.10298">
        <ele>767.20001220703</ele>
        <time>2014-09-13T08:04:35.000Z</time>
      </trkpt>
      <trkpt lat="44.11268" lon="3.10297">
        <ele>766.40002441406</ele>
        <time>2014-09-13T08:04:37.000Z</time>
      </trkpt>
      <trkpt lat="44.11268" lon="3.10297">
        <ele>766</ele>
        <time>2014-09-13T08:04:38.000Z</time>
      </trkpt>
      <trkpt lat="44.1127" lon="3.10295">
        <ele>764.79998779297</ele>
        <time>2014-09-13T08:04:40.000Z</time>
      </trkpt>
      <trkpt lat="44.11269" lon="3.10295">
        <ele>764.40002441406</ele>
        <time>2014-09-13T08:04:41.000Z</time>
      </trkpt>
      <trkpt lat="44.11271" lon="3.10293">
        <ele>763.79998779297</ele>
        <time>2014-09-13T08:04:46.000Z</time>
      </trkpt>
      <trkpt lat="44.11271" lon="3.10293">
        <ele>763.40002441406</ele>
        <time>2014-09-13T08:04:47.000Z</time>
      </trkpt>
      <trkpt lat="44.11271" lon="3.10293">
        <ele>762.79998779297</ele>
        <time>2014-09-13T08:04:48.000Z</time>
      </trkpt>
      <trkpt lat="44.11271" lon="3.10291">
        <ele>761.59997558594</ele>
        <time>2014-09-13T08:04:52.000Z</time>
      </trkpt>
      <trkpt lat="44.11271" lon="3.10291">
        <ele>760.79998779297</ele>
        <time>2014-09-13T08:04:54.000Z</time>
      </trkpt>
      <trkpt lat="44.11271" lon="3.10291">
        <ele>760.20001220703</ele>
        <time>2014-09-13T08:04:55.000Z</time>
      </trkpt>
      <trkpt lat="44.11271" lon="3.10289">
        <ele>759.20001220703</ele>
        <time>2014-09-13T08:04:58.000Z</time>
      </trkpt>
      <trkpt lat="44.11275" lon="3.10284">
        <ele>758</ele>
        <time>2014-09-13T08:05:01.000Z</time>
      </trkpt>
      <trkpt lat="44.11275" lon="3.10279">
        <ele>756.79998779297</ele>
        <time>2014-09-13T08:05:04.000Z</time>
      </trkpt>
      <trkpt lat="44.11275" lon="3.10278">
        <ele>756.40002441406</ele>
        <time>2014-09-13T08:05:06.000Z</time>
      </trkpt>
      <trkpt lat="44.11276" lon="3.10276">
        <ele>755.79998779297</ele>
        <time>2014-09-13T08:05:08.000Z</time>
      </trkpt>
      <trkpt lat="44.11276" lon="3.10271">
        <ele>755.59997558594</ele>
        <time>2014-09-13T08:05:13.000Z</time>
      </trkpt>
      <trkpt lat="44.11277" lon="3.1027">
        <ele>754</ele>
        <time>2014-09-13T08:05:19.000Z</time>
      </trkpt>
      <trkpt lat="44.11277" lon="3.10268">
        <ele>753.59997558594</ele>
        <time>2014-09-13T08:05:20.000Z</time>
      </trkpt>
      <trkpt lat="44.11277" lon="3.10267">
        <ele>753</ele>
        <time>2014-09-13T08:05:22.000Z</time>
      </trkpt>
      <trkpt lat="44.11277" lon="3.10261">
        <ele>751.59997558594</ele>
        <time>2014-09-13T08:05:25.000Z</time>
      </trkpt>
      <trkpt lat="44.11277" lon="3.10259">
        <ele>750.20001220703</ele>
        <time>2014-09-13T08:05:28.000Z</time>
      </trkpt>
      <trkpt lat="44.11276" lon="3.10255">
        <ele>749</ele>
        <time>2014-09-13T08:05:30.000Z</time>
      </trkpt>
      <trkpt lat="44.11275" lon="3.10252">
        <ele>748</ele>
        <time>2014-09-13T08:05:33.000Z</time>
      </trkpt>
      <trkpt lat="44.11275" lon="3.10251">
        <ele>747.40002441406</ele>
        <time>2014-09-13T08:05:34.000Z</time>
      </trkpt>
      <trkpt lat="44.11276" lon="3.1025">
        <ele>747</ele>
        <time>2014-09-13T08:05:35.000Z</time>
      </trkpt>
      <trkpt lat="44.11276" lon="3.1025">
        <ele>745.79998779297</ele>
        <time>2014-09-13T08:05:37.000Z</time>
      </trkpt>
      <trkpt lat="44.11276" lon="3.10245">
        <ele>744.40002441406</ele>
        <time>2014-09-13T08:05:40.000Z</time>
      </trkpt>
      <trkpt lat="44.11277" lon="3.10245">
        <ele>743.40002441406</ele>
        <time>2014-09-13T08:05:42.000Z</time>
      </trkpt>
      <trkpt lat="44.11276" lon="3.10242">
        <ele>742.20001220703</ele>
        <time>2014-09-13T08:05:43.000Z</time>
      </trkpt>
      <trkpt lat="44.11275" lon="3.10239">
        <ele>741</ele>
        <time>2014-09-13T08:05:46.000Z</time>
      </trkpt>
      <trkpt lat="44.11273" lon="3.10235">
        <ele>739.79998779297</ele>
        <time>2014-09-13T08:05:49.000Z</time>
      </trkpt>
      <trkpt lat="44.11274" lon="3.10234">
        <ele>738.79998779297</ele>
        <time>2014-09-13T08:05:51.000Z</time>
      </trkpt>
      <trkpt lat="44.11276" lon="3.10232">
        <ele>737.59997558594</ele>
        <time>2014-09-13T08:05:53.000Z</time>
      </trkpt>
      <trkpt lat="44.11278" lon="3.10231">
        <ele>737</ele>
        <time>2014-09-13T08:05:54.000Z</time>
      </trkpt>
      <trkpt lat="44.11278" lon="3.1023">
        <ele>736.20001220703</ele>
        <time>2014-09-13T08:05:56.000Z</time>
      </trkpt>
      <trkpt lat="44.11283" lon="3.10226">
        <ele>735</ele>
        <time>2014-09-13T08:05:59.000Z</time>
      </trkpt>
      <trkpt lat="44.11284" lon="3.10226">
        <ele>734.59997558594</ele>
        <time>2014-09-13T08:06:00.000Z</time>
      </trkpt>
      <trkpt lat="44.11285" lon="3.10225">
        <ele>733.79998779297</ele>
        <time>2014-09-13T08:06:02.000Z</time>
      </trkpt>
      <trkpt lat="44.11284" lon="3.10221">
        <ele>732.59997558594</ele>
        <time>2014-09-13T08:06:06.000Z</time>
      </trkpt>
      <trkpt lat="44.11283" lon="3.10218">
        <ele>731.40002441406</ele>
        <time>2014-09-13T08:06:09.000Z</time>
      </trkpt>
      <trkpt lat="44.11285" lon="3.10216">
        <ele>730.59997558594</ele>
        <time>2014-09-13T08:06:11.000Z</time>
      </trkpt>
      <trkpt lat="44.11286" lon="3.10216">
        <ele>730.40002441406</ele>
        <time>2014-09-13T08:06:12.000Z</time>
      </trkpt>
      <trkpt lat="44.11286" lon="3.10214">
        <ele>729.40002441406</ele>
        <time>2014-09-13T08:06:17.000Z</time>
      </trkpt>
      <trkpt lat="44.11286" lon="3.10213">
        <ele>729.20001220703</ele>
        <time>2014-09-13T08:06:18.000Z</time>
      </trkpt>
      <trkpt lat="44.11288" lon="3.10211">
        <ele>728</ele>
        <time>2014-09-13T08:06:21.000Z</time>
      </trkpt>
      <trkpt lat="44.11289" lon="3.10208">
        <ele>727.79998779297</ele>
        <time>2014-09-13T08:06:22.000Z</time>
      </trkpt>
      <trkpt lat="44.1129" lon="3.10204">
        <ele>726.40002441406</ele>
        <time>2014-09-13T08:06:25.000Z</time>
      </trkpt>
      <trkpt lat="44.11292" lon="3.10201">
        <ele>724.79998779297</ele>
        <time>2014-09-13T08:06:28.000Z</time>
      </trkpt>
      <trkpt lat="44.11293" lon="3.10199">
        <ele>724.40002441406</ele>
        <time>2014-09-13T08:06:29.000Z</time>
      </trkpt>
      <trkpt lat="44.11293" lon="3.10199">
        <ele>723.59997558594</ele>
        <time>2014-09-13T08:06:31.000Z</time>
      </trkpt>
      <trkpt lat="44.11295" lon="3.10197">
        <ele>722.40002441406</ele>
        <time>2014-09-13T08:06:33.000Z</time>
      </trkpt>
      <trkpt lat="44.11296" lon="3.10197">
        <ele>721.20001220703</ele>
        <time>2014-09-13T08:06:35.000Z</time>
      </trkpt>
      <trkpt lat="44.11297" lon="3.10196">
        <ele>720.79998779297</ele>
        <time>2014-09-13T08:06:36.000Z</time>
      </trkpt>
      <trkpt lat="44.11296" lon="3.10192">
        <ele>720</ele>
        <time>2014-09-13T08:06:38.000Z</time>
      </trkpt>
      <trkpt lat="44.11294" lon="3.10189">
        <ele>719</ele>
        <time>2014-09-13T08:06:40.000Z</time>
      </trkpt>
      <trkpt lat="44.11294" lon="3.10188">
        <ele>718.79998779297</ele>
        <time>2014-09-13T08:06:41.000Z</time>
      </trkpt>
      <trkpt lat="44.11292" lon="3.10187">
        <ele>718.40002441406</ele>
        <time>2014-09-13T08:06:42.000Z</time>
      </trkpt>
      <trkpt lat="44.11291" lon="3.10185">
        <ele>717.59997558594</ele>
        <time>2014-09-13T08:06:44.000Z</time>
      </trkpt>
      <trkpt lat="44.11288" lon="3.10181">
        <ele>716.40002441406</ele>
        <time>2014-09-13T08:06:49.000Z</time>
      </trkpt>
      <trkpt lat="44.11288" lon="3.1018">
        <ele>716.20001220703</ele>
        <time>2014-09-13T08:06:50.000Z</time>
      </trkpt>
      <trkpt lat="44.11286" lon="3.10178">
        <ele>715.40002441406</ele>
        <time>2014-09-13T08:06:54.000Z</time>
      </trkpt>
      <trkpt lat="44.11286" lon="3.10175">
        <ele>714.20001220703</ele>
        <time>2014-09-13T08:06:57.000Z</time>
      </trkpt>
      <trkpt lat="44.11286" lon="3.10171">
        <ele>713</ele>
        <time>2014-09-13T08:07:01.000Z</time>
      </trkpt>
      <trkpt lat="44.11287" lon="3.10169">
        <ele>712</ele>
        <time>2014-09-13T08:07:03.000Z</time>
      </trkpt>
      <trkpt lat="44.11287" lon="3.10165">
        <ele>710.59997558594</ele>
        <time>2014-09-13T08:07:05.000Z</time>
      </trkpt>
      <trkpt lat="44.11285" lon="3.1016">
        <ele>709.40002441406</ele>
        <time>2014-09-13T08:07:08.000Z</time>
      </trkpt>
      <trkpt lat="44.11286" lon="3.10157">
        <ele>708.59997558594</ele>
        <time>2014-09-13T08:07:12.000Z</time>
      </trkpt>
      <trkpt lat="44.11286" lon="3.10156">
        <ele>708.20001220703</ele>
        <time>2014-09-13T08:07:13.000Z</time>
      </trkpt>
      <trkpt lat="44.11287" lon="3.10153">
        <ele>707.20001220703</ele>
        <time>2014-09-13T08:07:18.000Z</time>
      </trkpt>
      <trkpt lat="44.11286" lon="3.10153">
        <ele>706.59997558594</ele>
        <time>2014-09-13T08:07:19.000Z</time>
      </trkpt>
      <trkpt lat="44.11287" lon="3.10151">
        <ele>706</ele>
        <time>2014-09-13T08:07:22.000Z</time>
      </trkpt>
      <trkpt lat="44.11289" lon="3.10147">
        <ele>705</ele>
        <time>2014-09-13T08:07:26.000Z</time>
      </trkpt>
      <trkpt lat="44.11289" lon="3.10146">
        <ele>704</ele>
        <time>2014-09-13T08:07:33.000Z</time>
      </trkpt>
      <trkpt lat="44.11289" lon="3.10146">
        <ele>703.79998779297</ele>
        <time>2014-09-13T08:07:35.000Z</time>
      </trkpt>
      <trkpt lat="44.11291" lon="3.10145">
        <ele>702.79998779297</ele>
        <time>2014-09-13T08:07:41.000Z</time>
      </trkpt>
      <trkpt lat="44.11291" lon="3.10145">
        <ele>703.20001220703</ele>
        <time>2014-09-13T08:07:44.000Z</time>
      </trkpt>
      <trkpt lat="44.11291" lon="3.10144">
        <ele>701.59997558594</ele>
        <time>2014-09-13T08:07:47.000Z</time>
      </trkpt>
      <trkpt lat="44.11292" lon="3.10142">
        <ele>700.20001220703</ele>
        <time>2014-09-13T08:07:50.000Z</time>
      </trkpt>
      <trkpt lat="44.11294" lon="3.1014">
        <ele>699.20001220703</ele>
        <time>2014-09-13T08:07:54.000Z</time>
      </trkpt>
      <trkpt lat="44.11295" lon="3.10135">
        <ele>698.20001220703</ele>
        <time>2014-09-13T08:07:56.000Z</time>
      </trkpt>
      <trkpt lat="44.11296" lon="3.10133">
        <ele>697.79998779297</ele>
        <time>2014-09-13T08:07:57.000Z</time>
      </trkpt>
      <trkpt lat="44.113" lon="3.1013">
        <ele>696.59997558594</ele>
        <time>2014-09-13T08:08:01.000Z</time>
      </trkpt>
      <trkpt lat="44.11301" lon="3.1013">
        <ele>695.40002441406</ele>
        <time>2014-09-13T08:08:04.000Z</time>
      </trkpt>
      <trkpt lat="44.11301" lon="3.1013">
        <ele>694.40002441406</ele>
        <time>2014-09-13T08:08:07.000Z</time>
      </trkpt>
      <trkpt lat="44.11302" lon="3.1013">
        <ele>694.20001220703</ele>
        <time>2014-09-13T08:08:08.000Z</time>
      </trkpt>
      <trkpt lat="44.11302" lon="3.1013">
        <ele>693.20001220703</ele>
        <time>2014-09-13T08:08:12.000Z</time>
      </trkpt>
      <trkpt lat="44.11303" lon="3.10129">
        <ele>692.59997558594</ele>
        <time>2014-09-13T08:08:14.000Z</time>
      </trkpt>
      <trkpt lat="44.11305" lon="3.10127">
        <ele>692.40002441406</ele>
        <time>2014-09-13T08:08:18.000Z</time>
      </trkpt>
      <trkpt lat="44.11305" lon="3.10127">
        <ele>692</ele>
        <time>2014-09-13T08:08:19.000Z</time>
      </trkpt>
      <trkpt lat="44.11307" lon="3.10126">
        <ele>691.20001220703</ele>
        <time>2014-09-13T08:08:22.000Z</time>
      </trkpt>
      <trkpt lat="44.11308" lon="3.10126">
        <ele>690.59997558594</ele>
        <time>2014-09-13T08:08:23.000Z</time>
      </trkpt>
      <trkpt lat="44.1131" lon="3.10126">
        <ele>689.59997558594</ele>
        <time>2014-09-13T08:08:26.000Z</time>
      </trkpt>
      <trkpt lat="44.11313" lon="3.10124">
        <ele>688.40002441406</ele>
        <time>2014-09-13T08:08:29.000Z</time>
      </trkpt>
      <trkpt lat="44.11314" lon="3.10125">
        <ele>688</ele>
        <time>2014-09-13T08:08:30.000Z</time>
      </trkpt>
      <trkpt lat="44.11314" lon="3.10126">
        <ele>687.20001220703</ele>
        <time>2014-09-13T08:08:31.000Z</time>
      </trkpt>
      <trkpt lat="44.11316" lon="3.10128">
        <ele>686.59997558594</ele>
        <time>2014-09-13T08:08:34.000Z</time>
      </trkpt>
      <trkpt lat="44.11317" lon="3.10128">
        <ele>685.79998779297</ele>
        <time>2014-09-13T08:08:36.000Z</time>
      </trkpt>
      <trkpt lat="44.11318" lon="3.10125">
        <ele>684.40002441406</ele>
        <time>2014-09-13T08:08:39.000Z</time>
      </trkpt>
      <trkpt lat="44.11319" lon="3.10125">
        <ele>684</ele>
        <time>2014-09-13T08:08:40.000Z</time>
      </trkpt>
      <trkpt lat="44.11318" lon="3.10122">
        <ele>683</ele>
        <time>2014-09-13T08:08:43.000Z</time>
      </trkpt>
      <trkpt lat="44.11318" lon="3.10119">
        <ele>682</ele>
        <time>2014-09-13T08:08:46.000Z</time>
      </trkpt>
      <trkpt lat="44.11318" lon="3.10118">
        <ele>681.40002441406</ele>
        <time>2014-09-13T08:08:47.000Z</time>
      </trkpt>
      <trkpt lat="44.11319" lon="3.10117">
        <ele>680.59997558594</ele>
        <time>2014-09-13T08:08:49.000Z</time>
      </trkpt>
      <trkpt lat="44.11322" lon="3.10115">
        <ele>679.59997558594</ele>
        <time>2014-09-13T08:08:51.000Z</time>
      </trkpt>
      <trkpt lat="44.11322" lon="3.10115">
        <ele>678.40002441406</ele>
        <time>2014-09-13T08:08:53.000Z</time>
      </trkpt>
      <trkpt lat="44.11324" lon="3.10114">
        <ele>678.20001220703</ele>
        <time>2014-09-13T08:08:54.000Z</time>
      </trkpt>
      <trkpt lat="44.11325" lon="3.10113">
        <ele>677.40002441406</ele>
        <time>2014-09-13T08:08:55.000Z</time>
      </trkpt>
      <trkpt lat="44.11328" lon="3.10111">
        <ele>676</ele>
        <time>2014-09-13T08:08:58.000Z</time>
      </trkpt>
      <trkpt lat="44.11329" lon="3.1011">
        <ele>675.20001220703</ele>
        <time>2014-09-13T08:09:01.000Z</time>
      </trkpt>
      <trkpt lat="44.11329" lon="3.1011">
        <ele>674.59997558594</ele>
        <time>2014-09-13T08:09:02.000Z</time>
      </trkpt>
      <trkpt lat="44.1133" lon="3.10109">
        <ele>673.59997558594</ele>
        <time>2014-09-13T08:09:04.000Z</time>
      </trkpt>
      <trkpt lat="44.11333" lon="3.10107">
        <ele>673</ele>
        <time>2014-09-13T08:09:05.000Z</time>
      </trkpt>
      <trkpt lat="44.11334" lon="3.10107">
        <ele>672.40002441406</ele>
        <time>2014-09-13T08:09:06.000Z</time>
      </trkpt>
      <trkpt lat="44.11335" lon="3.10107">
        <ele>672</ele>
        <time>2014-09-13T08:09:07.000Z</time>
      </trkpt>
      <trkpt lat="44.11339" lon="3.10111">
        <ele>673.40002441406</ele>
        <time>2014-09-13T08:09:11.000Z</time>
      </trkpt>
      <trkpt lat="44.1134" lon="3.10111">
        <ele>674.40002441406</ele>
        <time>2014-09-13T08:09:13.000Z</time>
      </trkpt>
      <trkpt lat="44.11342" lon="3.10109">
        <ele>674.40002441406</ele>
        <time>2014-09-13T08:09:20.000Z</time>
      </trkpt>
      <trkpt lat="44.11345" lon="3.10109">
        <ele>673.40002441406</ele>
        <time>2014-09-13T08:09:22.000Z</time>
      </trkpt>
      <trkpt lat="44.11348" lon="3.10108">
        <ele>674</ele>
        <time>2014-09-13T08:09:24.000Z</time>
      </trkpt>
      <trkpt lat="44.11354" lon="3.1011">
        <ele>675.40002441406</ele>
        <time>2014-09-13T08:09:29.000Z</time>
      </trkpt>
      <trkpt lat="44.11355" lon="3.10112">
        <ele>676.59997558594</ele>
        <time>2014-09-13T08:09:32.000Z</time>
      </trkpt>
      <trkpt lat="44.11356" lon="3.10116">
        <ele>677.79998779297</ele>
        <time>2014-09-13T08:09:36.000Z</time>
      </trkpt>
      <trkpt lat="44.11358" lon="3.10117">
        <ele>678.79998779297</ele>
        <time>2014-09-13T08:09:40.000Z</time>
      </trkpt>
      <trkpt lat="44.11361" lon="3.10119">
        <ele>680.40002441406</ele>
        <time>2014-09-13T08:09:43.000Z</time>
      </trkpt>
      <trkpt lat="44.11365" lon="3.10123">
        <ele>681.59997558594</ele>
        <time>2014-09-13T08:09:50.000Z</time>
      </trkpt>
      <trkpt lat="44.11366" lon="3.10126">
        <ele>682.79998779297</ele>
        <time>2014-09-13T08:09:54.000Z</time>
      </trkpt>
      <trkpt lat="44.11366" lon="3.10127">
        <ele>684</ele>
        <time>2014-09-13T08:09:56.000Z</time>
      </trkpt>
      <trkpt lat="44.11367" lon="3.10129">
        <ele>685</ele>
        <time>2014-09-13T08:10:03.000Z</time>
      </trkpt>
      <trkpt lat="44.11368" lon="3.10132">
        <ele>686.20001220703</ele>
        <time>2014-09-13T08:10:06.000Z</time>
      </trkpt>
      <trkpt lat="44.11369" lon="3.10135">
        <ele>686.59997558594</ele>
        <time>2014-09-13T08:10:09.000Z</time>
      </trkpt>
      <trkpt lat="44.11373" lon="3.10137">
        <ele>687.20001220703</ele>
        <time>2014-09-13T08:10:12.000Z</time>
      </trkpt>
      <trkpt lat="44.11374" lon="3.10138">
        <ele>687.79998779297</ele>
        <time>2014-09-13T08:10:15.000Z</time>
      </trkpt>
      <trkpt lat="44.11385" lon="3.10139">
        <ele>686.79998779297</ele>
        <time>2014-09-13T08:10:22.000Z</time>
      </trkpt>
      <trkpt lat="44.11393" lon="3.10143">
        <ele>686.79998779297</ele>
        <time>2014-09-13T08:10:27.000Z</time>
      </trkpt>
      <trkpt lat="44.11399" lon="3.10148">
        <ele>688</ele>
        <time>2014-09-13T08:10:32.000Z</time>
      </trkpt>
      <trkpt lat="44.11401" lon="3.1015">
        <ele>688.40002441406</ele>
        <time>2014-09-13T08:10:33.000Z</time>
      </trkpt>
      <trkpt lat="44.11403" lon="3.10153">
        <ele>689.40002441406</ele>
        <time>2014-09-13T08:10:36.000Z</time>
      </trkpt>
      <trkpt lat="44.11405" lon="3.10156">
        <ele>690.20001220703</ele>
        <time>2014-09-13T08:10:39.000Z</time>
      </trkpt>
      <trkpt lat="44.11406" lon="3.10156">
        <ele>690.40002441406</ele>
        <time>2014-09-13T08:10:40.000Z</time>
      </trkpt>
      <trkpt lat="44.11409" lon="3.10158">
        <ele>689.40002441406</ele>
        <time>2014-09-13T08:10:47.000Z</time>
      </trkpt>
      <trkpt lat="44.11411" lon="3.10159">
        <ele>689.20001220703</ele>
        <time>2014-09-13T08:10:48.000Z</time>
      </trkpt>
      <trkpt lat="44.11412" lon="3.1016">
        <ele>688.20001220703</ele>
        <time>2014-09-13T08:10:51.000Z</time>
      </trkpt>
      <trkpt lat="44.11414" lon="3.10161">
        <ele>687.20001220703</ele>
        <time>2014-09-13T08:10:54.000Z</time>
      </trkpt>
      <trkpt lat="44.11415" lon="3.10163">
        <ele>686.59997558594</ele>
        <time>2014-09-13T08:11:00.000Z</time>
      </trkpt>
      <trkpt lat="44.11426" lon="3.10175">
        <ele>687.40002441406</ele>
        <time>2014-09-13T08:11:06.000Z</time>
      </trkpt>
      <trkpt lat="44.11427" lon="3.10181">
        <ele>687.79998779297</ele>
        <time>2014-09-13T08:11:08.000Z</time>
      </trkpt>
      <trkpt lat="44.11428" lon="3.10184">
        <ele>688.40002441406</ele>
        <time>2014-09-13T08:11:10.000Z</time>
      </trkpt>
      <trkpt lat="44.11427" lon="3.10187">
        <ele>689.40002441406</ele>
        <time>2014-09-13T08:11:13.000Z</time>
      </trkpt>
      <trkpt lat="44.11426" lon="3.10189">
        <ele>690.59997558594</ele>
        <time>2014-09-13T08:11:17.000Z</time>
      </trkpt>
      <trkpt lat="44.11426" lon="3.1019">
        <ele>691.59997558594</ele>
        <time>2014-09-13T08:11:19.000Z</time>
      </trkpt>
      <trkpt lat="44.11426" lon="3.1019">
        <ele>692.59997558594</ele>
        <time>2014-09-13T08:11:23.000Z</time>
      </trkpt>
      <trkpt lat="44.11426" lon="3.10187">
        <ele>693.40002441406</ele>
        <time>2014-09-13T08:11:27.000Z</time>
      </trkpt>
      <trkpt lat="44.11427" lon="3.10187">
        <ele>693.79998779297</ele>
        <time>2014-09-13T08:11:28.000Z</time>
      </trkpt>
      <trkpt lat="44.11445" lon="3.10226">
        <ele>691.59997558594</ele>
        <time>2014-09-13T08:16:21.000Z</time>
      </trkpt>
      <trkpt lat="44.11445" lon="3.10223">
        <ele>690.40002441406</ele>
        <time>2014-09-13T08:16:23.000Z</time>
      </trkpt>
      <trkpt lat="44.11446" lon="3.10222">
        <ele>689.40002441406</ele>
        <time>2014-09-13T08:16:26.000Z</time>
      </trkpt>
      <trkpt lat="44.1145" lon="3.10222">
        <ele>688</ele>
        <time>2014-09-13T08:16:29.000Z</time>
      </trkpt>
      <trkpt lat="44.11452" lon="3.10222">
        <ele>687</ele>
        <time>2014-09-13T08:16:32.000Z</time>
      </trkpt>
      <trkpt lat="44.11454" lon="3.10223">
        <ele>686.40002441406</ele>
        <time>2014-09-13T08:16:36.000Z</time>
      </trkpt>
      <trkpt lat="44.11455" lon="3.10223">
        <ele>685.79998779297</ele>
        <time>2014-09-13T08:16:39.000Z</time>
      </trkpt>
      <trkpt lat="44.11459" lon="3.10223">
        <ele>685</ele>
        <time>2014-09-13T08:16:44.000Z</time>
      </trkpt>
      <trkpt lat="44.1146" lon="3.10224">
        <ele>684.79998779297</ele>
        <time>2014-09-13T08:16:48.000Z</time>
      </trkpt>
      <trkpt lat="44.11462" lon="3.10223">
        <ele>683.59997558594</ele>
        <time>2014-09-13T08:16:52.000Z</time>
      </trkpt>
      <trkpt lat="44.11464" lon="3.10224">
        <ele>682.40002441406</ele>
        <time>2014-09-13T08:16:55.000Z</time>
      </trkpt>
      <trkpt lat="44.11467" lon="3.10223">
        <ele>681.40002441406</ele>
        <time>2014-09-13T08:16:59.000Z</time>
      </trkpt>
      <trkpt lat="44.11467" lon="3.10222">
        <ele>681</ele>
        <time>2014-09-13T08:17:00.000Z</time>
      </trkpt>
      <trkpt lat="44.11468" lon="3.10219">
        <ele>680</ele>
        <time>2014-09-13T08:17:05.000Z</time>
      </trkpt>
      <trkpt lat="44.11468" lon="3.10221">
        <ele>680.59997558594</ele>
        <time>2014-09-13T08:17:11.000Z</time>
      </trkpt>
      <trkpt lat="44.11471" lon="3.10221">
        <ele>679.40002441406</ele>
        <time>2014-09-13T08:17:17.000Z</time>
      </trkpt>
      <trkpt lat="44.11471" lon="3.10221">
        <ele>679</ele>
        <time>2014-09-13T08:17:18.000Z</time>
      </trkpt>
      <trkpt lat="44.11473" lon="3.10221">
        <ele>678</ele>
        <time>2014-09-13T08:17:22.000Z</time>
      </trkpt>
      <trkpt lat="44.11474" lon="3.1022">
        <ele>677.40002441406</ele>
        <time>2014-09-13T08:17:25.000Z</time>
      </trkpt>
      <trkpt lat="44.11475" lon="3.1022">
        <ele>676.79998779297</ele>
        <time>2014-09-13T08:17:27.000Z</time>
      </trkpt>
      <trkpt lat="44.11478" lon="3.10221">
        <ele>675.79998779297</ele>
        <time>2014-09-13T08:17:31.000Z</time>
      </trkpt>
      <trkpt lat="44.1148" lon="3.10221">
        <ele>675.59997558594</ele>
        <time>2014-09-13T08:17:32.000Z</time>
      </trkpt>
      <trkpt lat="44.11483" lon="3.10221">
        <ele>674.79998779297</ele>
        <time>2014-09-13T08:17:35.000Z</time>
      </trkpt>
      <trkpt lat="44.11484" lon="3.10222">
        <ele>674.59997558594</ele>
        <time>2014-09-13T08:17:39.000Z</time>
      </trkpt>
      <trkpt lat="44.11485" lon="3.10223">
        <ele>675</ele>
        <time>2014-09-13T08:17:49.000Z</time>
      </trkpt>
      <trkpt lat="44.11486" lon="3.10223">
        <ele>675.20001220703</ele>
        <time>2014-09-13T08:18:06.000Z</time>
      </trkpt>
      <trkpt lat="44.11489" lon="3.10222">
        <ele>674.59997558594</ele>
        <time>2014-09-13T08:18:17.000Z</time>
      </trkpt>
      <trkpt lat="44.11492" lon="3.10222">
        <ele>673.59997558594</ele>
        <time>2014-09-13T08:18:20.000Z</time>
      </trkpt>
      <trkpt lat="44.11496" lon="3.10225">
        <ele>672.40002441406</ele>
        <time>2014-09-13T08:18:24.000Z</time>
      </trkpt>
      <trkpt lat="44.11499" lon="3.10228">
        <ele>671</ele>
        <time>2014-09-13T08:18:30.000Z</time>
      </trkpt>
      <trkpt lat="44.115" lon="3.10228">
        <ele>669.79998779297</ele>
        <time>2014-09-13T08:18:31.000Z</time>
      </trkpt>
      <trkpt lat="44.115" lon="3.10228">
        <ele>669.40002441406</ele>
        <time>2014-09-13T08:18:32.000Z</time>
      </trkpt>
      <trkpt lat="44.115" lon="3.10228">
        <ele>668.79998779297</ele>
        <time>2014-09-13T08:18:33.000Z</time>
      </trkpt>
      <trkpt lat="44.11504" lon="3.1023">
        <ele>667.40002441406</ele>
        <time>2014-09-13T08:18:37.000Z</time>
      </trkpt>
      <trkpt lat="44.11505" lon="3.1023">
        <ele>666.79998779297</ele>
        <time>2014-09-13T08:18:38.000Z</time>
      </trkpt>
      <trkpt lat="44.11505" lon="3.1023">
        <ele>666.20001220703</ele>
        <time>2014-09-13T08:18:39.000Z</time>
      </trkpt>
      <trkpt lat="44.11508" lon="3.1023">
        <ele>665.20001220703</ele>
        <time>2014-09-13T08:18:41.000Z</time>
      </trkpt>
      <trkpt lat="44.11509" lon="3.1023">
        <ele>664</ele>
        <time>2014-09-13T08:18:43.000Z</time>
      </trkpt>
      <trkpt lat="44.1151" lon="3.10229">
        <ele>663.59997558594</ele>
        <time>2014-09-13T08:18:44.000Z</time>
      </trkpt>
      <trkpt lat="44.11512" lon="3.1023">
        <ele>662.79998779297</ele>
        <time>2014-09-13T08:18:47.000Z</time>
      </trkpt>
      <trkpt lat="44.11516" lon="3.10229">
        <ele>661.59997558594</ele>
        <time>2014-09-13T08:18:49.000Z</time>
      </trkpt>
      <trkpt lat="44.11517" lon="3.1023">
        <ele>660.40002441406</ele>
        <time>2014-09-13T08:18:51.000Z</time>
      </trkpt>
      <trkpt lat="44.11521" lon="3.10231">
        <ele>659.20001220703</ele>
        <time>2014-09-13T08:18:55.000Z</time>
      </trkpt>
      <trkpt lat="44.11522" lon="3.1023">
        <ele>657.79998779297</ele>
        <time>2014-09-13T08:18:56.000Z</time>
      </trkpt>
      <trkpt lat="44.11524" lon="3.10229">
        <ele>656.59997558594</ele>
        <time>2014-09-13T08:18:59.000Z</time>
      </trkpt>
      <trkpt lat="44.11527" lon="3.10228">
        <ele>655.40002441406</ele>
        <time>2014-09-13T08:19:01.000Z</time>
      </trkpt>
      <trkpt lat="44.11531" lon="3.10228">
        <ele>654</ele>
        <time>2014-09-13T08:19:04.000Z</time>
      </trkpt>
      <trkpt lat="44.11531" lon="3.10228">
        <ele>653.40002441406</ele>
        <time>2014-09-13T08:19:05.000Z</time>
      </trkpt>
      <trkpt lat="44.11533" lon="3.10229">
        <ele>653</ele>
        <time>2014-09-13T08:19:06.000Z</time>
      </trkpt>
      <trkpt lat="44.11536" lon="3.10228">
        <ele>651.59997558594</ele>
        <time>2014-09-13T08:19:09.000Z</time>
      </trkpt>
      <trkpt lat="44.11538" lon="3.10228">
        <ele>650.79998779297</ele>
        <time>2014-09-13T08:19:11.000Z</time>
      </trkpt>
      <trkpt lat="44.1154" lon="3.10228">
        <ele>650.40002441406</ele>
        <time>2014-09-13T08:19:12.000Z</time>
      </trkpt>
      <trkpt lat="44.11542" lon="3.10228">
        <ele>649.40002441406</ele>
        <time>2014-09-13T08:19:14.000Z</time>
      </trkpt>
      <trkpt lat="44.11545" lon="3.10227">
        <ele>648.40002441406</ele>
        <time>2014-09-13T08:19:16.000Z</time>
      </trkpt>
      <trkpt lat="44.11545" lon="3.10226">
        <ele>648.20001220703</ele>
        <time>2014-09-13T08:19:17.000Z</time>
      </trkpt>
      <trkpt lat="44.11545" lon="3.10223">
        <ele>647</ele>
        <time>2014-09-13T08:19:19.000Z</time>
      </trkpt>
      <trkpt lat="44.11545" lon="3.10221">
        <ele>646</ele>
        <time>2014-09-13T08:19:21.000Z</time>
      </trkpt>
      <trkpt lat="44.11545" lon="3.10219">
        <ele>645.40002441406</ele>
        <time>2014-09-13T08:19:23.000Z</time>
      </trkpt>
      <trkpt lat="44.11545" lon="3.10217">
        <ele>644.59997558594</ele>
        <time>2014-09-13T08:19:25.000Z</time>
      </trkpt>
      <trkpt lat="44.11546" lon="3.10213">
        <ele>643.40002441406</ele>
        <time>2014-09-13T08:19:29.000Z</time>
      </trkpt>
      <trkpt lat="44.11546" lon="3.10212">
        <ele>643.20001220703</ele>
        <time>2014-09-13T08:19:30.000Z</time>
      </trkpt>
      <trkpt lat="44.11547" lon="3.10209">
        <ele>642.40002441406</ele>
        <time>2014-09-13T08:19:32.000Z</time>
      </trkpt>
      <trkpt lat="44.11547" lon="3.10207">
        <ele>641.20001220703</ele>
        <time>2014-09-13T08:19:35.000Z</time>
      </trkpt>
      <trkpt lat="44.11547" lon="3.10207">
        <ele>640.79998779297</ele>
        <time>2014-09-13T08:19:36.000Z</time>
      </trkpt>
      <trkpt lat="44.11548" lon="3.10205">
        <ele>639.79998779297</ele>
        <time>2014-09-13T08:19:38.000Z</time>
      </trkpt>
      <trkpt lat="44.1155" lon="3.10205">
        <ele>638.79998779297</ele>
        <time>2014-09-13T08:19:40.000Z</time>
      </trkpt>
      <trkpt lat="44.11551" lon="3.10204">
        <ele>637.59997558594</ele>
        <time>2014-09-13T08:19:42.000Z</time>
      </trkpt>
      <trkpt lat="44.11551" lon="3.10203">
        <ele>636.79998779297</ele>
        <time>2014-09-13T08:19:43.000Z</time>
      </trkpt>
      <trkpt lat="44.11551" lon="3.10201">
        <ele>635.59997558594</ele>
        <time>2014-09-13T08:19:44.000Z</time>
      </trkpt>
      <trkpt lat="44.11551" lon="3.10199">
        <ele>635.20001220703</ele>
        <time>2014-09-13T08:19:45.000Z</time>
      </trkpt>
      <trkpt lat="44.1155" lon="3.10197">
        <ele>635</ele>
        <time>2014-09-13T08:19:46.000Z</time>
      </trkpt>
      <trkpt lat="44.11546" lon="3.10188">
        <ele>634.20001220703</ele>
        <time>2014-09-13T08:19:50.000Z</time>
      </trkpt>
      <trkpt lat="44.11544" lon="3.10182">
        <ele>633.40002441406</ele>
        <time>2014-09-13T08:19:52.000Z</time>
      </trkpt>
      <trkpt lat="44.11542" lon="3.1018">
        <ele>633</ele>
        <time>2014-09-13T08:19:53.000Z</time>
      </trkpt>
      <trkpt lat="44.1154" lon="3.10174">
        <ele>631.59997558594</ele>
        <time>2014-09-13T08:19:57.000Z</time>
      </trkpt>
      <trkpt lat="44.11541" lon="3.10169">
        <ele>630.59997558594</ele>
        <time>2014-09-13T08:20:00.000Z</time>
      </trkpt>
      <trkpt lat="44.11541" lon="3.10168">
        <ele>629.59997558594</ele>
        <time>2014-09-13T08:20:02.000Z</time>
      </trkpt>
      <trkpt lat="44.11542" lon="3.10167">
        <ele>629.20001220703</ele>
        <time>2014-09-13T08:20:04.000Z</time>
      </trkpt>
      <trkpt lat="44.11543" lon="3.10166">
        <ele>628.20001220703</ele>
        <time>2014-09-13T08:20:06.000Z</time>
      </trkpt>
      <trkpt lat="44.11545" lon="3.10165">
        <ele>626.59997558594</ele>
        <time>2014-09-13T08:20:08.000Z</time>
      </trkpt>
      <trkpt lat="44.11547" lon="3.10164">
        <ele>625.59997558594</ele>
        <time>2014-09-13T08:20:10.000Z</time>
      </trkpt>
      <trkpt lat="44.11547" lon="3.10163">
        <ele>625.20001220703</ele>
        <time>2014-09-13T08:20:11.000Z</time>
      </trkpt>
      <trkpt lat="44.11548" lon="3.10161">
        <ele>624</ele>
        <time>2014-09-13T08:20:14.000Z</time>
      </trkpt>
      <trkpt lat="44.1155" lon="3.10159">
        <ele>622.79998779297</ele>
        <time>2014-09-13T08:20:16.000Z</time>
      </trkpt>
      <trkpt lat="44.1155" lon="3.10158">
        <ele>622.20001220703</ele>
        <time>2014-09-13T08:20:17.000Z</time>
      </trkpt>
      <trkpt lat="44.1155" lon="3.10157">
        <ele>621.59997558594</ele>
        <time>2014-09-13T08:20:18.000Z</time>
      </trkpt>
      <trkpt lat="44.1155" lon="3.10153">
        <ele>620.20001220703</ele>
        <time>2014-09-13T08:20:21.000Z</time>
      </trkpt>
      <trkpt lat="44.11551" lon="3.10149">
        <ele>619.20001220703</ele>
        <time>2014-09-13T08:20:23.000Z</time>
      </trkpt>
      <trkpt lat="44.11552" lon="3.10144">
        <ele>617.79998779297</ele>
        <time>2014-09-13T08:20:25.000Z</time>
      </trkpt>
      <trkpt lat="44.11552" lon="3.10139">
        <ele>616.79998779297</ele>
        <time>2014-09-13T08:20:27.000Z</time>
      </trkpt>
      <trkpt lat="44.11552" lon="3.10137">
        <ele>616.40002441406</ele>
        <time>2014-09-13T08:20:28.000Z</time>
      </trkpt>
      <trkpt lat="44.11554" lon="3.10134">
        <ele>615.79998779297</ele>
        <time>2014-09-13T08:20:30.000Z</time>
      </trkpt>
      <trkpt lat="44.11554" lon="3.10133">
        <ele>615.40002441406</ele>
        <time>2014-09-13T08:20:31.000Z</time>
      </trkpt>
      <trkpt lat="44.11554" lon="3.10131">
        <ele>614</ele>
        <time>2014-09-13T08:20:32.000Z</time>
      </trkpt>
      <trkpt lat="44.11554" lon="3.10129">
        <ele>613.20001220703</ele>
        <time>2014-09-13T08:20:33.000Z</time>
      </trkpt>
      <trkpt lat="44.11554" lon="3.10127">
        <ele>612.59997558594</ele>
        <time>2014-09-13T08:20:34.000Z</time>
      </trkpt>
      <trkpt lat="44.11552" lon="3.10121">
        <ele>611.40002441406</ele>
        <time>2014-09-13T08:20:36.000Z</time>
      </trkpt>
      <trkpt lat="44.1155" lon="3.10115">
        <ele>610.79998779297</ele>
        <time>2014-09-13T08:20:39.000Z</time>
      </trkpt>
      <trkpt lat="44.1155" lon="3.10115">
        <ele>610.40002441406</ele>
        <time>2014-09-13T08:20:40.000Z</time>
      </trkpt>
      <trkpt lat="44.1155" lon="3.10114">
        <ele>609.20001220703</ele>
        <time>2014-09-13T08:20:42.000Z</time>
      </trkpt>
      <trkpt lat="44.11549" lon="3.10112">
        <ele>608.20001220703</ele>
        <time>2014-09-13T08:20:44.000Z</time>
      </trkpt>
      <trkpt lat="44.1155" lon="3.1011">
        <ele>607.59997558594</ele>
        <time>2014-09-13T08:20:45.000Z</time>
      </trkpt>
      <trkpt lat="44.11549" lon="3.10106">
        <ele>606.40002441406</ele>
        <time>2014-09-13T08:20:47.000Z</time>
      </trkpt>
      <trkpt lat="44.11548" lon="3.10102">
        <ele>605.59997558594</ele>
        <time>2014-09-13T08:20:49.000Z</time>
      </trkpt>
      <trkpt lat="44.11547" lon="3.10095">
        <ele>605.20001220703</ele>
        <time>2014-09-13T08:20:54.000Z</time>
      </trkpt>
      <trkpt lat="44.11544" lon="3.10092">
        <ele>604</ele>
        <time>2014-09-13T08:20:56.000Z</time>
      </trkpt>
      <trkpt lat="44.11542" lon="3.10089">
        <ele>604</ele>
        <time>2014-09-13T08:20:59.000Z</time>
      </trkpt>
      <trkpt lat="44.11538" lon="3.1009">
        <ele>604.20001220703</ele>
        <time>2014-09-13T08:21:06.000Z</time>
      </trkpt>
      <trkpt lat="44.11534" lon="3.10088">
        <ele>605</ele>
        <time>2014-09-13T08:21:09.000Z</time>
      </trkpt>
      <trkpt lat="44.11529" lon="3.10085">
        <ele>606.20001220703</ele>
        <time>2014-09-13T08:21:12.000Z</time>
      </trkpt>
      <trkpt lat="44.11524" lon="3.10082">
        <ele>607.40002441406</ele>
        <time>2014-09-13T08:21:15.000Z</time>
      </trkpt>
      <trkpt lat="44.11518" lon="3.10076">
        <ele>608</ele>
        <time>2014-09-13T08:21:20.000Z</time>
      </trkpt>
      <trkpt lat="44.11511" lon="3.1007">
        <ele>608.79998779297</ele>
        <time>2014-09-13T08:21:27.000Z</time>
      </trkpt>
      <trkpt lat="44.11506" lon="3.10067">
        <ele>610</ele>
        <time>2014-09-13T08:21:30.000Z</time>
      </trkpt>
      <trkpt lat="44.11502" lon="3.10065">
        <ele>610.40002441406</ele>
        <time>2014-09-13T08:21:33.000Z</time>
      </trkpt>
      <trkpt lat="44.11496" lon="3.10055">
        <ele>608.79998779297</ele>
        <time>2014-09-13T08:21:39.000Z</time>
      </trkpt>
      <trkpt lat="44.11494" lon="3.10051">
        <ele>608.20001220703</ele>
        <time>2014-09-13T08:21:41.000Z</time>
      </trkpt>
      <trkpt lat="44.11493" lon="3.10048">
        <ele>607.59997558594</ele>
        <time>2014-09-13T08:21:43.000Z</time>
      </trkpt>
      <trkpt lat="44.11492" lon="3.10046">
        <ele>607.20001220703</ele>
        <time>2014-09-13T08:21:44.000Z</time>
      </trkpt>
      <trkpt lat="44.11491" lon="3.10043">
        <ele>606.20001220703</ele>
        <time>2014-09-13T08:21:46.000Z</time>
      </trkpt>
      <trkpt lat="44.11489" lon="3.10039">
        <ele>605.40002441406</ele>
        <time>2014-09-13T08:21:48.000Z</time>
      </trkpt>
      <trkpt lat="44.11488" lon="3.10037">
        <ele>605</ele>
        <time>2014-09-13T08:21:49.000Z</time>
      </trkpt>
      <trkpt lat="44.11485" lon="3.1003">
        <ele>603.79998779297</ele>
        <time>2014-09-13T08:21:53.000Z</time>
      </trkpt>
      <trkpt lat="44.11484" lon="3.10029">
        <ele>603.59997558594</ele>
        <time>2014-09-13T08:21:54.000Z</time>
      </trkpt>
      <trkpt lat="44.11479" lon="3.10022">
        <ele>604</ele>
        <time>2014-09-13T08:21:59.000Z</time>
      </trkpt>
      <trkpt lat="44.11474" lon="3.10013">
        <ele>604.79998779297</ele>
        <time>2014-09-13T08:22:04.000Z</time>
      </trkpt>
      <trkpt lat="44.11473" lon="3.10011">
        <ele>604.79998779297</ele>
        <time>2014-09-13T08:22:05.000Z</time>
      </trkpt>
      <trkpt lat="44.11471" lon="3.10005">
        <ele>603.59997558594</ele>
        <time>2014-09-13T08:22:08.000Z</time>
      </trkpt>
      <trkpt lat="44.11468" lon="3.1">
        <ele>602.59997558594</ele>
        <time>2014-09-13T08:22:11.000Z</time>
      </trkpt>
      <trkpt lat="44.11467" lon="3.09998">
        <ele>601.59997558594</ele>
        <time>2014-09-13T08:22:13.000Z</time>
      </trkpt>
      <trkpt lat="44.11466" lon="3.09997">
        <ele>601.40002441406</ele>
        <time>2014-09-13T08:22:14.000Z</time>
      </trkpt>
      <trkpt lat="44.11464" lon="3.09993">
        <ele>600</ele>
        <time>2014-09-13T08:22:17.000Z</time>
      </trkpt>
      <trkpt lat="44.11463" lon="3.09988">
        <ele>598.79998779297</ele>
        <time>2014-09-13T08:22:19.000Z</time>
      </trkpt>
      <trkpt lat="44.11456" lon="3.09977">
        <ele>597.79998779297</ele>
        <time>2014-09-13T08:22:24.000Z</time>
      </trkpt>
      <trkpt lat="44.11452" lon="3.09967">
        <ele>596.40002441406</ele>
        <time>2014-09-13T08:22:28.000Z</time>
      </trkpt>
      <trkpt lat="44.11449" lon="3.0996">
        <ele>595.20001220703</ele>
        <time>2014-09-13T08:22:31.000Z</time>
      </trkpt>
      <trkpt lat="44.11446" lon="3.09951">
        <ele>593.79998779297</ele>
        <time>2014-09-13T08:22:35.000Z</time>
      </trkpt>
      <trkpt lat="44.11444" lon="3.09946">
        <ele>592.79998779297</ele>
        <time>2014-09-13T08:22:38.000Z</time>
      </trkpt>
      <trkpt lat="44.11443" lon="3.09944">
        <ele>592.59997558594</ele>
        <time>2014-09-13T08:22:39.000Z</time>
      </trkpt>
      <trkpt lat="44.11442" lon="3.0994">
        <ele>592.40002441406</ele>
        <time>2014-09-13T08:22:41.000Z</time>
      </trkpt>
      <trkpt lat="44.11441" lon="3.09936">
        <ele>591.40002441406</ele>
        <time>2014-09-13T08:22:43.000Z</time>
      </trkpt>
      <trkpt lat="44.11441" lon="3.09934">
        <ele>591</ele>
        <time>2014-09-13T08:22:44.000Z</time>
      </trkpt>
      <trkpt lat="44.11441" lon="3.09934">
        <ele>590.40002441406</ele>
        <time>2014-09-13T08:22:45.000Z</time>
      </trkpt>
      <trkpt lat="44.11442" lon="3.09929">
        <ele>589.40002441406</ele>
        <time>2014-09-13T08:22:47.000Z</time>
      </trkpt>
      <trkpt lat="44.11444" lon="3.09927">
        <ele>588.20001220703</ele>
        <time>2014-09-13T08:22:49.000Z</time>
      </trkpt>
      <trkpt lat="44.11445" lon="3.09928">
        <ele>587.40002441406</ele>
        <time>2014-09-13T08:22:50.000Z</time>
      </trkpt>
      <trkpt lat="44.11447" lon="3.09928">
        <ele>586.79998779297</ele>
        <time>2014-09-13T08:22:51.000Z</time>
      </trkpt>
      <trkpt lat="44.11451" lon="3.0993">
        <ele>586</ele>
        <time>2014-09-13T08:22:54.000Z</time>
      </trkpt>
      <trkpt lat="44.11452" lon="3.09931">
        <ele>585.40002441406</ele>
        <time>2014-09-13T08:22:55.000Z</time>
      </trkpt>
      <trkpt lat="44.11453" lon="3.09931">
        <ele>584.40002441406</ele>
        <time>2014-09-13T08:22:56.000Z</time>
      </trkpt>
      <trkpt lat="44.11454" lon="3.09931">
        <ele>583.20001220703</ele>
        <time>2014-09-13T08:22:58.000Z</time>
      </trkpt>
      <trkpt lat="44.11456" lon="3.0993">
        <ele>582.79998779297</ele>
        <time>2014-09-13T08:22:59.000Z</time>
      </trkpt>
      <trkpt lat="44.11457" lon="3.09929">
        <ele>582.79998779297</ele>
        <time>2014-09-13T08:23:01.000Z</time>
      </trkpt>
      <trkpt lat="44.11458" lon="3.09928">
        <ele>583.20001220703</ele>
        <time>2014-09-13T08:23:07.000Z</time>
      </trkpt>
      <trkpt lat="44.11458" lon="3.09927">
        <ele>582</ele>
        <time>2014-09-13T08:23:12.000Z</time>
      </trkpt>
      <trkpt lat="44.11457" lon="3.09927">
        <ele>581.79998779297</ele>
        <time>2014-09-13T08:23:13.000Z</time>
      </trkpt>
      <trkpt lat="44.11457" lon="3.09926">
        <ele>580.79998779297</ele>
        <time>2014-09-13T08:23:16.000Z</time>
      </trkpt>
      <trkpt lat="44.11457" lon="3.09926">
        <ele>579.59997558594</ele>
        <time>2014-09-13T08:23:18.000Z</time>
      </trkpt>
      <trkpt lat="44.11462" lon="3.09924">
        <ele>578.59997558594</ele>
        <time>2014-09-13T08:23:20.000Z</time>
      </trkpt>
      <trkpt lat="44.11466" lon="3.09925">
        <ele>577.40002441406</ele>
        <time>2014-09-13T08:23:23.000Z</time>
      </trkpt>
      <trkpt lat="44.11467" lon="3.09924">
        <ele>576.40002441406</ele>
        <time>2014-09-13T08:23:25.000Z</time>
      </trkpt>
      <trkpt lat="44.11468" lon="3.09923">
        <ele>576</ele>
        <time>2014-09-13T08:23:26.000Z</time>
      </trkpt>
      <trkpt lat="44.11471" lon="3.09923">
        <ele>574.79998779297</ele>
        <time>2014-09-13T08:23:29.000Z</time>
      </trkpt>
      <trkpt lat="44.11472" lon="3.09921">
        <ele>573.79998779297</ele>
        <time>2014-09-13T08:23:32.000Z</time>
      </trkpt>
      <trkpt lat="44.11474" lon="3.0992">
        <ele>572.59997558594</ele>
        <time>2014-09-13T08:23:34.000Z</time>
      </trkpt>
      <trkpt lat="44.11476" lon="3.09916">
        <ele>571.59997558594</ele>
        <time>2014-09-13T08:23:36.000Z</time>
      </trkpt>
      <trkpt lat="44.11477" lon="3.09911">
        <ele>570.59997558594</ele>
        <time>2014-09-13T08:23:38.000Z</time>
      </trkpt>
      <trkpt lat="44.11478" lon="3.09909">
        <ele>570</ele>
        <time>2014-09-13T08:23:39.000Z</time>
      </trkpt>
      <trkpt lat="44.11478" lon="3.09907">
        <ele>569.59997558594</ele>
        <time>2014-09-13T08:23:40.000Z</time>
      </trkpt>
      <trkpt lat="44.1148" lon="3.09902">
        <ele>569</ele>
        <time>2014-09-13T08:23:42.000Z</time>
      </trkpt>
      <trkpt lat="44.11481" lon="3.09897">
        <ele>567.79998779297</ele>
        <time>2014-09-13T08:23:44.000Z</time>
      </trkpt>
      <trkpt lat="44.11483" lon="3.09893">
        <ele>566.79998779297</ele>
        <time>2014-09-13T08:23:46.000Z</time>
      </trkpt>
      <trkpt lat="44.11484" lon="3.09886">
        <ele>565.59997558594</ele>
        <time>2014-09-13T08:23:49.000Z</time>
      </trkpt>
      <trkpt lat="44.11486" lon="3.09877">
        <ele>564.20001220703</ele>
        <time>2014-09-13T08:23:52.000Z</time>
      </trkpt>
      <trkpt lat="44.11488" lon="3.0987">
        <ele>563</ele>
        <time>2014-09-13T08:23:55.000Z</time>
      </trkpt>
      <trkpt lat="44.11491" lon="3.09867">
        <ele>562.20001220703</ele>
        <time>2014-09-13T08:23:57.000Z</time>
      </trkpt>
      <trkpt lat="44.11493" lon="3.09867">
        <ele>561.79998779297</ele>
        <time>2014-09-13T08:23:58.000Z</time>
      </trkpt>
      <trkpt lat="44.11499" lon="3.09871">
        <ele>560.79998779297</ele>
        <time>2014-09-13T08:24:01.000Z</time>
      </trkpt>
      <trkpt lat="44.11503" lon="3.09871">
        <ele>560.20001220703</ele>
        <time>2014-09-13T08:24:03.000Z</time>
      </trkpt>
      <trkpt lat="44.11506" lon="3.09867">
        <ele>559.20001220703</ele>
        <time>2014-09-13T08:24:05.000Z</time>
      </trkpt>
      <trkpt lat="44.11507" lon="3.09862">
        <ele>558</ele>
        <time>2014-09-13T08:24:07.000Z</time>
      </trkpt>
      <trkpt lat="44.11507" lon="3.09859">
        <ele>557.20001220703</ele>
        <time>2014-09-13T08:24:08.000Z</time>
      </trkpt>
      <trkpt lat="44.11508" lon="3.09857">
        <ele>556.79998779297</ele>
        <time>2014-09-13T08:24:09.000Z</time>
      </trkpt>
      <trkpt lat="44.11508" lon="3.09854">
        <ele>556.40002441406</ele>
        <time>2014-09-13T08:24:10.000Z</time>
      </trkpt>
      <trkpt lat="44.11509" lon="3.09849">
        <ele>555.59997558594</ele>
        <time>2014-09-13T08:24:12.000Z</time>
      </trkpt>
      <trkpt lat="44.11509" lon="3.09843">
        <ele>554.79998779297</ele>
        <time>2014-09-13T08:24:14.000Z</time>
      </trkpt>
      <trkpt lat="44.1151" lon="3.09841">
        <ele>554.20001220703</ele>
        <time>2014-09-13T08:24:15.000Z</time>
      </trkpt>
      <trkpt lat="44.11512" lon="3.09831">
        <ele>553</ele>
        <time>2014-09-13T08:24:18.000Z</time>
      </trkpt>
      <trkpt lat="44.11514" lon="3.09828">
        <ele>552.40002441406</ele>
        <time>2014-09-13T08:24:19.000Z</time>
      </trkpt>
      <trkpt lat="44.11514" lon="3.09826">
        <ele>551.79998779297</ele>
        <time>2014-09-13T08:24:20.000Z</time>
      </trkpt>
      <trkpt lat="44.11516" lon="3.09811">
        <ele>550.59997558594</ele>
        <time>2014-09-13T08:24:24.000Z</time>
      </trkpt>
      <trkpt lat="44.11516" lon="3.09808">
        <ele>550.40002441406</ele>
        <time>2014-09-13T08:24:25.000Z</time>
      </trkpt>
      <trkpt lat="44.11515" lon="3.098">
        <ele>549.20001220703</ele>
        <time>2014-09-13T08:24:28.000Z</time>
      </trkpt>
      <trkpt lat="44.11516" lon="3.09794">
        <ele>548.20001220703</ele>
        <time>2014-09-13T08:24:30.000Z</time>
      </trkpt>
      <trkpt lat="44.11516" lon="3.09791">
        <ele>547.79998779297</ele>
        <time>2014-09-13T08:24:31.000Z</time>
      </trkpt>
      <trkpt lat="44.11516" lon="3.09786">
        <ele>546.40002441406</ele>
        <time>2014-09-13T08:24:33.000Z</time>
      </trkpt>
      <trkpt lat="44.11516" lon="3.0978">
        <ele>545.20001220703</ele>
        <time>2014-09-13T08:24:36.000Z</time>
      </trkpt>
      <trkpt lat="44.11516" lon="3.09774">
        <ele>544</ele>
        <time>2014-09-13T08:24:39.000Z</time>
      </trkpt>
      <trkpt lat="44.11516" lon="3.09768">
        <ele>542.79998779297</ele>
        <time>2014-09-13T08:24:42.000Z</time>
      </trkpt>
      <trkpt lat="44.11514" lon="3.09762">
        <ele>541.59997558594</ele>
        <time>2014-09-13T08:24:45.000Z</time>
      </trkpt>
      <trkpt lat="44.11515" lon="3.09756">
        <ele>540.59997558594</ele>
        <time>2014-09-13T08:24:48.000Z</time>
      </trkpt>
      <trkpt lat="44.11515" lon="3.09753">
        <ele>540</ele>
        <time>2014-09-13T08:24:49.000Z</time>
      </trkpt>
      <trkpt lat="44.11515" lon="3.0975">
        <ele>539.40002441406</ele>
        <time>2014-09-13T08:24:50.000Z</time>
      </trkpt>
      <trkpt lat="44.11516" lon="3.09739">
        <ele>538</ele>
        <time>2014-09-13T08:24:54.000Z</time>
      </trkpt>
      <trkpt lat="44.11516" lon="3.09734">
        <ele>536.79998779297</ele>
        <time>2014-09-13T08:24:56.000Z</time>
      </trkpt>
      <trkpt lat="44.11515" lon="3.09728">
        <ele>536</ele>
        <time>2014-09-13T08:24:58.000Z</time>
      </trkpt>
      <trkpt lat="44.11515" lon="3.09725">
        <ele>535.59997558594</ele>
        <time>2014-09-13T08:24:59.000Z</time>
      </trkpt>
      <trkpt lat="44.11517" lon="3.09716">
        <ele>534</ele>
        <time>2014-09-13T08:25:02.000Z</time>
      </trkpt>
      <trkpt lat="44.11518" lon="3.09708">
        <ele>533.20001220703</ele>
        <time>2014-09-13T08:25:05.000Z</time>
      </trkpt>
      <trkpt lat="44.11518" lon="3.09706">
        <ele>532.59997558594</ele>
        <time>2014-09-13T08:25:06.000Z</time>
      </trkpt>
      <trkpt lat="44.1152" lon="3.09695">
        <ele>531.40002441406</ele>
        <time>2014-09-13T08:25:10.000Z</time>
      </trkpt>
      <trkpt lat="44.11519" lon="3.0969">
        <ele>530.59997558594</ele>
        <time>2014-09-13T08:25:12.000Z</time>
      </trkpt>
      <trkpt lat="44.11519" lon="3.09687">
        <ele>530.20001220703</ele>
        <time>2014-09-13T08:25:13.000Z</time>
      </trkpt>
      <trkpt lat="44.11517" lon="3.09675">
        <ele>528.79998779297</ele>
        <time>2014-09-13T08:25:17.000Z</time>
      </trkpt>
      <trkpt lat="44.11516" lon="3.09672">
        <ele>528.59997558594</ele>
        <time>2014-09-13T08:25:18.000Z</time>
      </trkpt>
      <trkpt lat="44.11515" lon="3.09667">
        <ele>527.79998779297</ele>
        <time>2014-09-13T08:25:20.000Z</time>
      </trkpt>
      <trkpt lat="44.11512" lon="3.09657">
        <ele>526.59997558594</ele>
        <time>2014-09-13T08:25:24.000Z</time>
      </trkpt>
      <trkpt lat="44.11511" lon="3.09654">
        <ele>526.20001220703</ele>
        <time>2014-09-13T08:25:25.000Z</time>
      </trkpt>
      <trkpt lat="44.11509" lon="3.09645">
        <ele>525.20001220703</ele>
        <time>2014-09-13T08:25:28.000Z</time>
      </trkpt>
      <trkpt lat="44.11507" lon="3.09636">
        <ele>524.40002441406</ele>
        <time>2014-09-13T08:25:31.000Z</time>
      </trkpt>
      <trkpt lat="44.11507" lon="3.09634">
        <ele>524.20001220703</ele>
        <time>2014-09-13T08:25:32.000Z</time>
      </trkpt>
      <trkpt lat="44.11504" lon="3.09624">
        <ele>522.79998779297</ele>
        <time>2014-09-13T08:25:36.000Z</time>
      </trkpt>
      <trkpt lat="44.11502" lon="3.09617">
        <ele>522.20001220703</ele>
        <time>2014-09-13T08:25:38.000Z</time>
      </trkpt>
      <trkpt lat="44.11501" lon="3.0961">
        <ele>521.79998779297</ele>
        <time>2014-09-13T08:25:40.000Z</time>
      </trkpt>
      <trkpt lat="44.11499" lon="3.09602">
        <ele>521</ele>
        <time>2014-09-13T08:25:43.000Z</time>
      </trkpt>
      <trkpt lat="44.11499" lon="3.09599">
        <ele>520.40002441406</ele>
        <time>2014-09-13T08:25:44.000Z</time>
      </trkpt>
      <trkpt lat="44.11498" lon="3.09588">
        <ele>519.20001220703</ele>
        <time>2014-09-13T08:25:48.000Z</time>
      </trkpt>
      <trkpt lat="44.11497" lon="3.09586">
        <ele>519</ele>
        <time>2014-09-13T08:25:49.000Z</time>
      </trkpt>
      <trkpt lat="44.11496" lon="3.09577">
        <ele>518.20001220703</ele>
        <time>2014-09-13T08:25:52.000Z</time>
      </trkpt>
      <trkpt lat="44.11493" lon="3.09562">
        <ele>517</ele>
        <time>2014-09-13T08:25:56.000Z</time>
      </trkpt>
      <trkpt lat="44.11489" lon="3.0955">
        <ele>516</ele>
        <time>2014-09-13T08:26:00.000Z</time>
      </trkpt>
      <trkpt lat="44.11488" lon="3.09547">
        <ele>515.59997558594</ele>
        <time>2014-09-13T08:26:01.000Z</time>
      </trkpt>
      <trkpt lat="44.11486" lon="3.09541">
        <ele>515</ele>
        <time>2014-09-13T08:26:03.000Z</time>
      </trkpt>
      <trkpt lat="44.11482" lon="3.09528">
        <ele>513.79998779297</ele>
        <time>2014-09-13T08:26:07.000Z</time>
      </trkpt>
      <trkpt lat="44.11481" lon="3.09525">
        <ele>513</ele>
        <time>2014-09-13T08:26:08.000Z</time>
      </trkpt>
      <trkpt lat="44.1148" lon="3.09522">
        <ele>512.59997558594</ele>
        <time>2014-09-13T08:26:09.000Z</time>
      </trkpt>
      <trkpt lat="44.11478" lon="3.09507">
        <ele>511.39999389648</ele>
        <time>2014-09-13T08:26:13.000Z</time>
      </trkpt>
      <trkpt lat="44.11477" lon="3.09503">
        <ele>511.20001220703</ele>
        <time>2014-09-13T08:26:14.000Z</time>
      </trkpt>
      <trkpt lat="44.11477" lon="3.09496">
        <ele>510.20001220703</ele>
        <time>2014-09-13T08:26:16.000Z</time>
      </trkpt>
      <trkpt lat="44.11474" lon="3.09487">
        <ele>509.39999389648</ele>
        <time>2014-09-13T08:26:19.000Z</time>
      </trkpt>
      <trkpt lat="44.11474" lon="3.09485">
        <ele>509.20001220703</ele>
        <time>2014-09-13T08:26:20.000Z</time>
      </trkpt>
      <trkpt lat="44.11473" lon="3.09472">
        <ele>507.79998779297</ele>
        <time>2014-09-13T08:26:24.000Z</time>
      </trkpt>
      <trkpt lat="44.11473" lon="3.09469">
        <ele>507.60000610352</ele>
        <time>2014-09-13T08:26:25.000Z</time>
      </trkpt>
      <trkpt lat="44.11472" lon="3.09456">
        <ele>506.60000610352</ele>
        <time>2014-09-13T08:26:29.000Z</time>
      </trkpt>
      <trkpt lat="44.11472" lon="3.09453">
        <ele>506.39999389648</ele>
        <time>2014-09-13T08:26:30.000Z</time>
      </trkpt>
      <trkpt lat="44.11474" lon="3.09447">
        <ele>505.39999389648</ele>
        <time>2014-09-13T08:26:32.000Z</time>
      </trkpt>
      <trkpt lat="44.11478" lon="3.09438">
        <ele>504.60000610352</ele>
        <time>2014-09-13T08:26:35.000Z</time>
      </trkpt>
      <trkpt lat="44.11479" lon="3.09435">
        <ele>504.20001220703</ele>
        <time>2014-09-13T08:26:36.000Z</time>
      </trkpt>
      <trkpt lat="44.11482" lon="3.09427">
        <ele>503</ele>
        <time>2014-09-13T08:26:39.000Z</time>
      </trkpt>
      <trkpt lat="44.11483" lon="3.09424">
        <ele>502.60000610352</ele>
        <time>2014-09-13T08:26:40.000Z</time>
      </trkpt>
      <trkpt lat="44.11483" lon="3.09421">
        <ele>502.20001220703</ele>
        <time>2014-09-13T08:26:41.000Z</time>
      </trkpt>
      <trkpt lat="44.11482" lon="3.09417">
        <ele>502</ele>
        <time>2014-09-13T08:26:42.000Z</time>
      </trkpt>
      <trkpt lat="44.11478" lon="3.0941">
        <ele>500.60000610352</ele>
        <time>2014-09-13T08:26:45.000Z</time>
      </trkpt>
      <trkpt lat="44.11475" lon="3.09407">
        <ele>499.79998779297</ele>
        <time>2014-09-13T08:26:47.000Z</time>
      </trkpt>
      <trkpt lat="44.11473" lon="3.09405">
        <ele>499.39999389648</ele>
        <time>2014-09-13T08:26:48.000Z</time>
      </trkpt>
      <trkpt lat="44.11468" lon="3.09402">
        <ele>498.39999389648</ele>
        <time>2014-09-13T08:26:51.000Z</time>
      </trkpt>
      <trkpt lat="44.11462" lon="3.09397">
        <ele>497.20001220703</ele>
        <time>2014-09-13T08:26:54.000Z</time>
      </trkpt>
      <trkpt lat="44.11457" lon="3.09395">
        <ele>496</ele>
        <time>2014-09-13T08:26:56.000Z</time>
      </trkpt>
      <trkpt lat="44.1145" lon="3.0939">
        <ele>494.79998779297</ele>
        <time>2014-09-13T08:27:00.000Z</time>
      </trkpt>
      <trkpt lat="44.11443" lon="3.09386">
        <ele>493.60000610352</ele>
        <time>2014-09-13T08:27:03.000Z</time>
      </trkpt>
      <trkpt lat="44.11437" lon="3.09381">
        <ele>492.60000610352</ele>
        <time>2014-09-13T08:27:06.000Z</time>
      </trkpt>
      <trkpt lat="44.11433" lon="3.09375">
        <ele>492</ele>
        <time>2014-09-13T08:27:08.000Z</time>
      </trkpt>
      <trkpt lat="44.11427" lon="3.0937">
        <ele>491.39999389648</ele>
        <time>2014-09-13T08:27:10.000Z</time>
      </trkpt>
      <trkpt lat="44.11415" lon="3.09361">
        <ele>490.20001220703</ele>
        <time>2014-09-13T08:27:14.000Z</time>
      </trkpt>
      <trkpt lat="44.11404" lon="3.09346">
        <ele>489</ele>
        <time>2014-09-13T08:27:19.000Z</time>
      </trkpt>
      <trkpt lat="44.11397" lon="3.09338">
        <ele>488</ele>
        <time>2014-09-13T08:27:22.000Z</time>
      </trkpt>
      <trkpt lat="44.11389" lon="3.09332">
        <ele>487.39999389648</ele>
        <time>2014-09-13T08:27:25.000Z</time>
      </trkpt>
      <trkpt lat="44.11384" lon="3.09328">
        <ele>486.79998779297</ele>
        <time>2014-09-13T08:27:27.000Z</time>
      </trkpt>
      <trkpt lat="44.11377" lon="3.09323">
        <ele>485.60000610352</ele>
        <time>2014-09-13T08:27:30.000Z</time>
      </trkpt>
      <trkpt lat="44.11373" lon="3.09318">
        <ele>484.39999389648</ele>
        <time>2014-09-13T08:27:32.000Z</time>
      </trkpt>
      <trkpt lat="44.11366" lon="3.09313">
        <ele>483.39999389648</ele>
        <time>2014-09-13T08:27:35.000Z</time>
      </trkpt>
      <trkpt lat="44.11357" lon="3.09308">
        <ele>482</ele>
        <time>2014-09-13T08:27:38.000Z</time>
      </trkpt>
      <trkpt lat="44.11353" lon="3.09304">
        <ele>481.20001220703</ele>
        <time>2014-09-13T08:27:40.000Z</time>
      </trkpt>
      <trkpt lat="44.11352" lon="3.09301">
        <ele>480.79998779297</ele>
        <time>2014-09-13T08:27:41.000Z</time>
      </trkpt>
      <trkpt lat="44.11346" lon="3.09294">
        <ele>479</ele>
        <time>2014-09-13T08:27:44.000Z</time>
      </trkpt>
      <trkpt lat="44.11343" lon="3.09292">
        <ele>478.39999389648</ele>
        <time>2014-09-13T08:27:45.000Z</time>
      </trkpt>
      <trkpt lat="44.1134" lon="3.0929">
        <ele>477.79998779297</ele>
        <time>2014-09-13T08:27:46.000Z</time>
      </trkpt>
      <trkpt lat="44.11331" lon="3.09287">
        <ele>476.60000610352</ele>
        <time>2014-09-13T08:27:49.000Z</time>
      </trkpt>
      <trkpt lat="44.11324" lon="3.09283">
        <ele>475.60000610352</ele>
        <time>2014-09-13T08:27:52.000Z</time>
      </trkpt>
      <trkpt lat="44.11316" lon="3.09281">
        <ele>474.20001220703</ele>
        <time>2014-09-13T08:27:55.000Z</time>
      </trkpt>
      <trkpt lat="44.11308" lon="3.09281">
        <ele>473.20001220703</ele>
        <time>2014-09-13T08:27:58.000Z</time>
      </trkpt>
      <trkpt lat="44.113" lon="3.09279">
        <ele>472</ele>
        <time>2014-09-13T08:28:01.000Z</time>
      </trkpt>
      <trkpt lat="44.11293" lon="3.09275">
        <ele>471</ele>
        <time>2014-09-13T08:28:04.000Z</time>
      </trkpt>
      <trkpt lat="44.11286" lon="3.0927">
        <ele>469.60000610352</ele>
        <time>2014-09-13T08:28:07.000Z</time>
      </trkpt>
      <trkpt lat="44.11272" lon="3.09263">
        <ele>467.60000610352</ele>
        <time>2014-09-13T08:28:12.000Z</time>
      </trkpt>
      <trkpt lat="44.11264" lon="3.09259">
        <ele>466.20001220703</ele>
        <time>2014-09-13T08:28:15.000Z</time>
      </trkpt>
      <trkpt lat="44.11258" lon="3.09257">
        <ele>465.60000610352</ele>
        <time>2014-09-13T08:28:17.000Z</time>
      </trkpt>
      <trkpt lat="44.11253" lon="3.09254">
        <ele>465</ele>
        <time>2014-09-13T08:28:19.000Z</time>
      </trkpt>
      <trkpt lat="44.11245" lon="3.09249">
        <ele>464.20001220703</ele>
        <time>2014-09-13T08:28:22.000Z</time>
      </trkpt>
      <trkpt lat="44.11242" lon="3.09248">
        <ele>464</ele>
        <time>2014-09-13T08:28:23.000Z</time>
      </trkpt>
      <trkpt lat="44.11233" lon="3.09239">
        <ele>462.79998779297</ele>
        <time>2014-09-13T08:28:27.000Z</time>
      </trkpt>
      <trkpt lat="44.11231" lon="3.09237">
        <ele>462.60000610352</ele>
        <time>2014-09-13T08:28:28.000Z</time>
      </trkpt>
      <trkpt lat="44.11225" lon="3.0923">
        <ele>461.60000610352</ele>
        <time>2014-09-13T08:28:31.000Z</time>
      </trkpt>
      <trkpt lat="44.11219" lon="3.09223">
        <ele>460.60000610352</ele>
        <time>2014-09-13T08:28:34.000Z</time>
      </trkpt>
      <trkpt lat="44.11216" lon="3.0922">
        <ele>460.20001220703</ele>
        <time>2014-09-13T08:28:35.000Z</time>
      </trkpt>
      <trkpt lat="44.11212" lon="3.09216">
        <ele>459.39999389648</ele>
        <time>2014-09-13T08:28:37.000Z</time>
      </trkpt>
      <trkpt lat="44.11209" lon="3.09213">
        <ele>459</ele>
        <time>2014-09-13T08:28:38.000Z</time>
      </trkpt>
      <trkpt lat="44.11205" lon="3.09209">
        <ele>458.39999389648</ele>
        <time>2014-09-13T08:28:40.000Z</time>
      </trkpt>
      <trkpt lat="44.11198" lon="3.092">
        <ele>456.79998779297</ele>
        <time>2014-09-13T08:28:43.000Z</time>
      </trkpt>
      <trkpt lat="44.11196" lon="3.09193">
        <ele>455.79998779297</ele>
        <time>2014-09-13T08:28:45.000Z</time>
      </trkpt>
      <trkpt lat="44.11192" lon="3.09178">
        <ele>454.79998779297</ele>
        <time>2014-09-13T08:28:49.000Z</time>
      </trkpt>
      <trkpt lat="44.1119" lon="3.09175">
        <ele>454.60000610352</ele>
        <time>2014-09-13T08:28:50.000Z</time>
      </trkpt>
      <trkpt lat="44.11187" lon="3.09173">
        <ele>454.39999389648</ele>
        <time>2014-09-13T08:28:51.000Z</time>
      </trkpt>
      <trkpt lat="44.11179" lon="3.09171">
        <ele>454</ele>
        <time>2014-09-13T08:28:54.000Z</time>
      </trkpt>
      <trkpt lat="44.11176" lon="3.09171">
        <ele>453.60000610352</ele>
        <time>2014-09-13T08:28:56.000Z</time>
      </trkpt>
      <trkpt lat="44.11174" lon="3.09172">
        <ele>453.60000610352</ele>
        <time>2014-09-13T08:28:57.000Z</time>
      </trkpt>
      <trkpt lat="44.11172" lon="3.09172">
        <ele>453</ele>
        <time>2014-09-13T08:29:02.000Z</time>
      </trkpt>
      <trkpt lat="44.11167" lon="3.09171">
        <ele>452.60000610352</ele>
        <time>2014-09-13T08:29:07.000Z</time>
      </trkpt>
      <trkpt lat="44.11165" lon="3.0917">
        <ele>452.60000610352</ele>
        <time>2014-09-13T08:29:08.000Z</time>
      </trkpt>
      <trkpt lat="44.11157" lon="3.0917">
        <ele>452</ele>
        <time>2014-09-13T08:29:14.000Z</time>
      </trkpt>
      <trkpt lat="44.11154" lon="3.09169">
        <ele>451.60000610352</ele>
        <time>2014-09-13T08:29:16.000Z</time>
      </trkpt>
      <trkpt lat="44.11146" lon="3.0917">
        <ele>451.20001220703</ele>
        <time>2014-09-13T08:29:20.000Z</time>
      </trkpt>
      <trkpt lat="44.11135" lon="3.09168">
        <ele>450.60000610352</ele>
        <time>2014-09-13T08:29:25.000Z</time>
      </trkpt>
      <trkpt lat="44.11132" lon="3.09168">
        <ele>450.60000610352</ele>
        <time>2014-09-13T08:29:26.000Z</time>
      </trkpt>
      <trkpt lat="44.11115" lon="3.09166">
        <ele>449.60000610352</ele>
        <time>2014-09-13T08:29:33.000Z</time>
      </trkpt>
      <trkpt lat="44.11104" lon="3.09164">
        <ele>448.39999389648</ele>
        <time>2014-09-13T08:29:37.000Z</time>
      </trkpt>
      <trkpt lat="44.11099" lon="3.09162">
        <ele>448.20001220703</ele>
        <time>2014-09-13T08:29:39.000Z</time>
      </trkpt>
      <trkpt lat="44.1109" lon="3.09156">
        <ele>447.39999389648</ele>
        <time>2014-09-13T08:29:43.000Z</time>
      </trkpt>
      <trkpt lat="44.11085" lon="3.09152">
        <ele>447.20001220703</ele>
        <time>2014-09-13T08:29:45.000Z</time>
      </trkpt>
      <trkpt lat="44.11078" lon="3.09147">
        <ele>446.39999389648</ele>
        <time>2014-09-13T08:29:48.000Z</time>
      </trkpt>
      <trkpt lat="44.11072" lon="3.09141">
        <ele>446.20001220703</ele>
        <time>2014-09-13T08:29:51.000Z</time>
      </trkpt>
      <trkpt lat="44.11065" lon="3.09135">
        <ele>445.20001220703</ele>
        <time>2014-09-13T08:29:54.000Z</time>
      </trkpt>
      <trkpt lat="44.11058" lon="3.09129">
        <ele>444.39999389648</ele>
        <time>2014-09-13T08:29:57.000Z</time>
      </trkpt>
      <trkpt lat="44.1105" lon="3.09125">
        <ele>444.20001220703</ele>
        <time>2014-09-13T08:30:00.000Z</time>
      </trkpt>
      <trkpt lat="44.11044" lon="3.09122">
        <ele>443.60000610352</ele>
        <time>2014-09-13T08:30:03.000Z</time>
      </trkpt>
      <trkpt lat="44.11039" lon="3.0912">
        <ele>443</ele>
        <time>2014-09-13T08:30:05.000Z</time>
      </trkpt>
      <trkpt lat="44.1103" lon="3.09119">
        <ele>441.79998779297</ele>
        <time>2014-09-13T08:30:08.000Z</time>
      </trkpt>
      <trkpt lat="44.11024" lon="3.09117">
        <ele>441.39999389648</ele>
        <time>2014-09-13T08:30:10.000Z</time>
      </trkpt>
      <trkpt lat="44.11015" lon="3.09113">
        <ele>440.79998779297</ele>
        <time>2014-09-13T08:30:13.000Z</time>
      </trkpt>
      <trkpt lat="44.11005" lon="3.09108">
        <ele>440</ele>
        <time>2014-09-13T08:30:17.000Z</time>
      </trkpt>
      <trkpt lat="44.11003" lon="3.09107">
        <ele>439.79998779297</ele>
        <time>2014-09-13T08:30:18.000Z</time>
      </trkpt>
      <trkpt lat="44.10987" lon="3.09104">
        <ele>438.79998779297</ele>
        <time>2014-09-13T08:30:24.000Z</time>
      </trkpt>
      <trkpt lat="44.10985" lon="3.09104">
        <ele>438.60000610352</ele>
        <time>2014-09-13T08:30:25.000Z</time>
      </trkpt>
      <trkpt lat="44.10969" lon="3.09105">
        <ele>438.39999389648</ele>
        <time>2014-09-13T08:30:31.000Z</time>
      </trkpt>
      <trkpt lat="44.10954" lon="3.09106">
        <ele>437.60000610352</ele>
        <time>2014-09-13T08:30:36.000Z</time>
      </trkpt>
      <trkpt lat="44.10947" lon="3.09105">
        <ele>437.79998779297</ele>
        <time>2014-09-13T08:30:39.000Z</time>
      </trkpt>
      <trkpt lat="44.10944" lon="3.09104">
        <ele>437.39999389648</ele>
        <time>2014-09-13T08:30:40.000Z</time>
      </trkpt>
      <trkpt lat="44.10928" lon="3.09103">
        <ele>437</ele>
        <time>2014-09-13T08:30:46.000Z</time>
      </trkpt>
      <trkpt lat="44.10914" lon="3.09102">
        <ele>436.39999389648</ele>
        <time>2014-09-13T08:30:51.000Z</time>
      </trkpt>
      <trkpt lat="44.10909" lon="3.09101">
        <ele>436.20001220703</ele>
        <time>2014-09-13T08:30:53.000Z</time>
      </trkpt>
      <trkpt lat="44.10896" lon="3.09103">
        <ele>435.39999389648</ele>
        <time>2014-09-13T08:30:58.000Z</time>
      </trkpt>
      <trkpt lat="44.10893" lon="3.09103">
        <ele>435.20001220703</ele>
        <time>2014-09-13T08:30:59.000Z</time>
      </trkpt>
      <trkpt lat="44.10882" lon="3.09102">
        <ele>435.20001220703</ele>
        <time>2014-09-13T08:31:03.000Z</time>
      </trkpt>
      <trkpt lat="44.10871" lon="3.091">
        <ele>434</ele>
        <time>2014-09-13T08:31:07.000Z</time>
      </trkpt>
      <trkpt lat="44.10864" lon="3.09099">
        <ele>433.39999389648</ele>
        <time>2014-09-13T08:31:09.000Z</time>
      </trkpt>
      <trkpt lat="44.10862" lon="3.09097">
        <ele>432.79998779297</ele>
        <time>2014-09-13T08:31:10.000Z</time>
      </trkpt>
      <trkpt lat="44.10855" lon="3.09092">
        <ele>431.79998779297</ele>
        <time>2014-09-13T08:31:14.000Z</time>
      </trkpt>
      <trkpt lat="44.10853" lon="3.0909">
        <ele>431.20001220703</ele>
        <time>2014-09-13T08:31:15.000Z</time>
      </trkpt>
      <trkpt lat="44.10847" lon="3.09084">
        <ele>429.79998779297</ele>
        <time>2014-09-13T08:31:18.000Z</time>
      </trkpt>
      <trkpt lat="44.1084" lon="3.09079">
        <ele>427.79998779297</ele>
        <time>2014-09-13T08:31:21.000Z</time>
      </trkpt>
      <trkpt lat="44.10833" lon="3.09075">
        <ele>426.79998779297</ele>
        <time>2014-09-13T08:31:24.000Z</time>
      </trkpt>
      <trkpt lat="44.10825" lon="3.09069">
        <ele>425.60000610352</ele>
        <time>2014-09-13T08:31:27.000Z</time>
      </trkpt>
      <trkpt lat="44.10822" lon="3.09067">
        <ele>425</ele>
        <time>2014-09-13T08:31:28.000Z</time>
      </trkpt>
      <trkpt lat="44.1082" lon="3.09065">
        <ele>424.39999389648</ele>
        <time>2014-09-13T08:31:29.000Z</time>
      </trkpt>
      <trkpt lat="44.10811" lon="3.09057">
        <ele>423.20001220703</ele>
        <time>2014-09-13T08:31:33.000Z</time>
      </trkpt>
      <trkpt lat="44.10804" lon="3.09052">
        <ele>422</ele>
        <time>2014-09-13T08:31:36.000Z</time>
      </trkpt>
      <trkpt lat="44.10797" lon="3.09046">
        <ele>421</ele>
        <time>2014-09-13T08:31:39.000Z</time>
      </trkpt>
      <trkpt lat="44.1079" lon="3.09041">
        <ele>419.79998779297</ele>
        <time>2014-09-13T08:31:42.000Z</time>
      </trkpt>
      <trkpt lat="44.10786" lon="3.09038">
        <ele>419.39999389648</ele>
        <time>2014-09-13T08:31:44.000Z</time>
      </trkpt>
      <trkpt lat="44.10783" lon="3.09036">
        <ele>418.60000610352</ele>
        <time>2014-09-13T08:31:45.000Z</time>
      </trkpt>
      <trkpt lat="44.10774" lon="3.09032">
        <ele>417.20001220703</ele>
        <time>2014-09-13T08:31:49.000Z</time>
      </trkpt>
      <trkpt lat="44.10771" lon="3.0903">
        <ele>416.79998779297</ele>
        <time>2014-09-13T08:31:50.000Z</time>
      </trkpt>
      <trkpt lat="44.10766" lon="3.09028">
        <ele>416</ele>
        <time>2014-09-13T08:31:52.000Z</time>
      </trkpt>
      <trkpt lat="44.10759" lon="3.09022">
        <ele>414.79998779297</ele>
        <time>2014-09-13T08:31:55.000Z</time>
      </trkpt>
      <trkpt lat="44.10757" lon="3.09021">
        <ele>414.20001220703</ele>
        <time>2014-09-13T08:31:56.000Z</time>
      </trkpt>
      <trkpt lat="44.10755" lon="3.09019">
        <ele>413.60000610352</ele>
        <time>2014-09-13T08:31:57.000Z</time>
      </trkpt>
      <trkpt lat="44.10748" lon="3.09015">
        <ele>412.60000610352</ele>
        <time>2014-09-13T08:32:00.000Z</time>
      </trkpt>
      <trkpt lat="44.1074" lon="3.09011">
        <ele>411.39999389648</ele>
        <time>2014-09-13T08:32:03.000Z</time>
      </trkpt>
      <trkpt lat="44.10733" lon="3.09007">
        <ele>410.20001220703</ele>
        <time>2014-09-13T08:32:06.000Z</time>
      </trkpt>
      <trkpt lat="44.10728" lon="3.09003">
        <ele>409.39999389648</ele>
        <time>2014-09-13T08:32:08.000Z</time>
      </trkpt>
      <trkpt lat="44.10726" lon="3.09001">
        <ele>408.60000610352</ele>
        <time>2014-09-13T08:32:09.000Z</time>
      </trkpt>
      <trkpt lat="44.10717" lon="3.08996">
        <ele>407.60000610352</ele>
        <time>2014-09-13T08:32:13.000Z</time>
      </trkpt>
      <trkpt lat="44.10713" lon="3.08996">
        <ele>406.79998779297</ele>
        <time>2014-09-13T08:32:15.000Z</time>
      </trkpt>
      <trkpt lat="44.10712" lon="3.08995">
        <ele>406.39999389648</ele>
        <time>2014-09-13T08:32:16.000Z</time>
      </trkpt>
      <trkpt lat="44.10707" lon="3.08992">
        <ele>405</ele>
        <time>2014-09-13T08:32:19.000Z</time>
      </trkpt>
      <trkpt lat="44.10702" lon="3.08987">
        <ele>404</ele>
        <time>2014-09-13T08:32:22.000Z</time>
      </trkpt>
      <trkpt lat="44.10696" lon="3.08979">
        <ele>403</ele>
        <time>2014-09-13T08:32:26.000Z</time>
      </trkpt>
      <trkpt lat="44.10691" lon="3.08974">
        <ele>402</ele>
        <time>2014-09-13T08:32:29.000Z</time>
      </trkpt>
      <trkpt lat="44.10684" lon="3.08967">
        <ele>400.39999389648</ele>
        <time>2014-09-13T08:32:33.000Z</time>
      </trkpt>
      <trkpt lat="44.1068" lon="3.08963">
        <ele>400</ele>
        <time>2014-09-13T08:32:35.000Z</time>
      </trkpt>
      <trkpt lat="44.10677" lon="3.08959">
        <ele>399.20001220703</ele>
        <time>2014-09-13T08:32:37.000Z</time>
      </trkpt>
      <trkpt lat="44.10672" lon="3.08954">
        <ele>398.39999389648</ele>
        <time>2014-09-13T08:32:41.000Z</time>
      </trkpt>
      <trkpt lat="44.10671" lon="3.08952">
        <ele>398</ele>
        <time>2014-09-13T08:32:42.000Z</time>
      </trkpt>
      <trkpt lat="44.10664" lon="3.08948">
        <ele>396.79998779297</ele>
        <time>2014-09-13T08:32:47.000Z</time>
      </trkpt>
      <trkpt lat="44.1066" lon="3.08946">
        <ele>395.60000610352</ele>
        <time>2014-09-13T08:32:50.000Z</time>
      </trkpt>
      <trkpt lat="44.10656" lon="3.08946">
        <ele>394.39999389648</ele>
        <time>2014-09-13T08:32:53.000Z</time>
      </trkpt>
      <trkpt lat="44.10655" lon="3.08947">
        <ele>394</ele>
        <time>2014-09-13T08:32:54.000Z</time>
      </trkpt>
      <trkpt lat="44.10651" lon="3.08948">
        <ele>393.39999389648</ele>
        <time>2014-09-13T08:32:56.000Z</time>
      </trkpt>
      <trkpt lat="44.10646" lon="3.0895">
        <ele>392.20001220703</ele>
        <time>2014-09-13T08:32:59.000Z</time>
      </trkpt>
      <trkpt lat="44.10641" lon="3.08951">
        <ele>391</ele>
        <time>2014-09-13T08:33:03.000Z</time>
      </trkpt>
      <trkpt lat="44.10636" lon="3.08952">
        <ele>390.60000610352</ele>
        <time>2014-09-13T08:33:07.000Z</time>
      </trkpt>
      <trkpt lat="44.10634" lon="3.08953">
        <ele>390</ele>
        <time>2014-09-13T08:33:09.000Z</time>
      </trkpt>
      <trkpt lat="44.10628" lon="3.08956">
        <ele>388.79998779297</ele>
        <time>2014-09-13T08:33:13.000Z</time>
      </trkpt>
      <trkpt lat="44.10626" lon="3.08956">
        <ele>388.39999389648</ele>
        <time>2014-09-13T08:33:14.000Z</time>
      </trkpt>
      <trkpt lat="44.1062" lon="3.08956">
        <ele>387.60000610352</ele>
        <time>2014-09-13T08:33:17.000Z</time>
      </trkpt>
      <trkpt lat="44.10614" lon="3.08953">
        <ele>386</ele>
        <time>2014-09-13T08:33:21.000Z</time>
      </trkpt>
      <trkpt lat="44.10612" lon="3.08952">
        <ele>385.60000610352</ele>
        <time>2014-09-13T08:33:22.000Z</time>
      </trkpt>
      <trkpt lat="44.10608" lon="3.08952">
        <ele>385</ele>
        <time>2014-09-13T08:33:24.000Z</time>
      </trkpt>
      <trkpt lat="44.10604" lon="3.08952">
        <ele>384.20001220703</ele>
        <time>2014-09-13T08:33:27.000Z</time>
      </trkpt>
      <trkpt lat="44.10603" lon="3.08953">
        <ele>383.79998779297</ele>
        <time>2014-09-13T08:33:28.000Z</time>
      </trkpt>
      <trkpt lat="44.10593" lon="3.08961">
        <ele>382.39999389648</ele>
        <time>2014-09-13T08:33:33.000Z</time>
      </trkpt>
      <trkpt lat="44.10588" lon="3.08965">
        <ele>381</ele>
        <time>2014-09-13T08:33:36.000Z</time>
      </trkpt>
      <trkpt lat="44.10581" lon="3.08965">
        <ele>379.79998779297</ele>
        <time>2014-09-13T08:33:39.000Z</time>
      </trkpt>
      <trkpt lat="44.10574" lon="3.08966">
        <ele>378.39999389648</ele>
        <time>2014-09-13T08:33:42.000Z</time>
      </trkpt>
      <trkpt lat="44.10569" lon="3.08965">
        <ele>377.20001220703</ele>
        <time>2014-09-13T08:33:44.000Z</time>
      </trkpt>
      <trkpt lat="44.10565" lon="3.08965">
        <ele>376</ele>
        <time>2014-09-13T08:33:46.000Z</time>
      </trkpt>
      <trkpt lat="44.1056" lon="3.0896">
        <ele>374.39999389648</ele>
        <time>2014-09-13T08:33:49.000Z</time>
      </trkpt>
      <trkpt lat="44.10556" lon="3.08954">
        <ele>373.20001220703</ele>
        <time>2014-09-13T08:33:51.000Z</time>
      </trkpt>
      <trkpt lat="44.10554" lon="3.08946">
        <ele>372</ele>
        <time>2014-09-13T08:33:53.000Z</time>
      </trkpt>
      <trkpt lat="44.10552" lon="3.08934">
        <ele>370.79998779297</ele>
        <time>2014-09-13T08:33:56.000Z</time>
      </trkpt>
      <trkpt lat="44.10546" lon="3.0892">
        <ele>369.79998779297</ele>
        <time>2014-09-13T08:33:59.000Z</time>
      </trkpt>
      <trkpt lat="44.10542" lon="3.08914">
        <ele>369.39999389648</ele>
        <time>2014-09-13T08:34:01.000Z</time>
      </trkpt>
      <trkpt lat="44.10537" lon="3.08904">
        <ele>368.79998779297</ele>
        <time>2014-09-13T08:34:04.000Z</time>
      </trkpt>
      <trkpt lat="44.10533" lon="3.08897">
        <ele>368.39999389648</ele>
        <time>2014-09-13T08:34:06.000Z</time>
      </trkpt>
      <trkpt lat="44.10523" lon="3.0888">
        <ele>368.39999389648</ele>
        <time>2014-09-13T08:34:11.000Z</time>
      </trkpt>
      <trkpt lat="44.10512" lon="3.08865">
        <ele>367.79998779297</ele>
        <time>2014-09-13T08:34:16.000Z</time>
      </trkpt>
      <trkpt lat="44.10499" lon="3.08855">
        <ele>367.20001220703</ele>
        <time>2014-09-13T08:34:21.000Z</time>
      </trkpt>
      <trkpt lat="44.10488" lon="3.08855">
        <ele>367.20001220703</ele>
        <time>2014-09-13T08:34:25.000Z</time>
      </trkpt>
      <trkpt lat="44.10475" lon="3.08857">
        <ele>367</ele>
        <time>2014-09-13T08:34:30.000Z</time>
      </trkpt>
      <trkpt lat="44.10466" lon="3.08856">
        <ele>366.60000610352</ele>
        <time>2014-09-13T08:34:33.000Z</time>
      </trkpt>
      <trkpt lat="44.1046" lon="3.08857">
        <ele>366.39999389648</ele>
        <time>2014-09-13T08:34:35.000Z</time>
      </trkpt>
      <trkpt lat="44.10445" lon="3.08858">
        <ele>366.39999389648</ele>
        <time>2014-09-13T08:34:40.000Z</time>
      </trkpt>
      <trkpt lat="44.1043" lon="3.08858">
        <ele>366.20001220703</ele>
        <time>2014-09-13T08:34:45.000Z</time>
      </trkpt>
      <trkpt lat="44.10413" lon="3.08857">
        <ele>366.60000610352</ele>
        <time>2014-09-13T08:34:51.000Z</time>
      </trkpt>
      <trkpt lat="44.10398" lon="3.0886">
        <ele>366.20001220703</ele>
        <time>2014-09-13T08:34:56.000Z</time>
      </trkpt>
      <trkpt lat="44.10386" lon="3.0886">
        <ele>366.39999389648</ele>
        <time>2014-09-13T08:35:00.000Z</time>
      </trkpt>
      <trkpt lat="44.10374" lon="3.08861">
        <ele>366.39999389648</ele>
        <time>2014-09-13T08:35:04.000Z</time>
      </trkpt>
      <trkpt lat="44.10359" lon="3.08858">
        <ele>366.20001220703</ele>
        <time>2014-09-13T08:35:09.000Z</time>
      </trkpt>
      <trkpt lat="44.10345" lon="3.08849">
        <ele>366</ele>
        <time>2014-09-13T08:35:14.000Z</time>
      </trkpt>
      <trkpt lat="44.10333" lon="3.08843">
        <ele>366</ele>
        <time>2014-09-13T08:35:19.000Z</time>
      </trkpt>
    </trkseg>
  </trk>
</gpx>